[[{"header":{"parameterUnit":"m.s-1","parameterCategory":1,"la1":31.0,"la2":29.5877,"lo1":-88.7671,"lo2":-86.6584,"dy":0.0162,"dx":0.0185,"nx":115,"ny":88,"refTime":"2023-07-01T00:00:00:Z","depth":0,"parameterNumber":2,"parameterNumberName":"U-component_of_WINDS"},"data":[0.0,0.0,0.0,0.0,0.0,0.0,0.0,0.0,0.0,0.0,0.0,0.0,0.0,0.0,0.0,0.0,0.0,0.0,0.0,0.0,0.0,0.0,0.0,0.0,0.0,0.0,0.0,0.0,0.0,0.0,0.0,0.0,0.0,0.0,0.0,0.0,0.0,0.0,0.0,0.0,0.0,0.0,0.0,0.0,0.0,0.0,0.0,0.0,0.0,0.0,0.0,0.0,0.0,0.0,0.0,0.0,0.0,0.0,0.0,0.0,0.0,0.0,0.0,0.0,0.0,0.0,0.0,0.0,0.0,0.0,0.0,0.0,0.0,0.0,0.0,0.0,0.0,0.0,0.0,0.0,0.0,0.0,0.0,0.0,0.0,0.0,0.0,0.0,0.0,0.0,0.0,0.0,0.0,0.0,0.0,0.0,0.0,0.0,0.0,0.0,0.0,0.0,0.0,0.0,0.0,0.0,0.0,0.0,0.0,0.0,0.0,0.0,0.0,0.0,0.0,0.0,0.0,0.0,0.0,0.0,0.0,0.0,0.0,0.0,0.0,0.0,0.0,0.0,0.0,0.0,0.0,0.0,0.0,0.0,0.0,0.0,0.0,0.0,0.0,0.0,0.0,0.0,0.0,0.0,0.0,0.0,0.0,0.0,0.0,0.0,0.0,0.0,0.0,0.0,0.0,0.0,0.0,0.0,0.0,0.0,0.0,0.0,0.0,0.0,0.0,0.0,0.0,0.0,0.0,0.0,0.0,0.0,0.0,0.0,0.0,0.0,0.0,0.0,0.0,0.0,0.0,0.0,0.0,0.0,0.0,0.0,0.0,0.0,0.0,0.0,0.0,0.0,0.0,0.0,0.0,0.0,0.0,0.0,0.0,0.0,0.0,0.0,0.0,0.0,0.0,0.0,0.0,0.0,0.0,0.0,0.0,0.0,0.0,0.0,0.0,0.0,0.0,0.0,0.0,0.0,0.0,0.0,0.0,0.0,0.0,0.0,0.0,0.0,0.0,0.0,0.0,0.0,0.0,0.0,0.0,0.0,0.0,0.0,0.0,0.0,0.0,0.0,0.0,0.0,0.0,0.0,0.0,0.0,0.0,0.0,0.0,0.0,0.0,0.0,0.0,0.0,0.0,0.0,0.0,0.0,0.0,0.0,0.0,0.0,0.0,0.0,0.0,0.0,0.0,0.0,0.0,0.0,0.0,0.0,0.0,0.0,0.0,0.0,0.0,0.0,0.0,0.0,0.0,0.0,0.0,0.0,0.0,0.0,0.0,0.0,0.0,0.0,0.0,0.0,0.0,0.0,0.0,0.0,0.0,0.0,0.0,0.0,0.0,0.0,0.0,0.0,0.0,0.0,0.0,0.0,0.0,0.0,0.0,0.0,0.0,0.0,0.0,0.0,0.0,0.0,0.0,0.0,0.0,0.0,0.0,0.0,0.0,0.0,0.0,0.0,0.0,0.0,0.0,0.0,0.0,0.0,0.0,0.0,0.0,0.0,0.0,0.0,0.0,0.0,0.0,0.0,0.0,0.0,0.0,0.0,0.0,0.0,0.0,0.0,0.0,0.0,0.0,0.0,0.0,0.0,0.0,0.0,0.0,0.0,0.0,0.0,0.0,0.0,0.0,0.0,0.0,0.0,0.0,0.0,0.0,0.0,0.0,0.0,0.0,0.0,0.0,0.0,0.0,0.0,0.0,0.0,0.0,0.0,0.0,0.0,0.0,0.0,0.0,0.0,0.0,0.0,0.0,0.0,0.0,0.0,0.0,0.0,0.0,0.0,0.0,0.0,0.0,0.0,0.0,0.0,0.0,0.0,0.0,0.0,0.0,0.0,0.0,0.0,0.0,0.0,0.0,0.0,0.0,0.0,0.0,0.0,0.0,0.0,0.0,0.0,0.0,0.0,0.0,0.0,0.0,0.0,0.0,0.0,0.0,0.0,0.0,0.0,0.0,0.0,0.0,0.0,0.0,0.0,0.0,0.0,0.0,0.0,0.0,0.0,0.0,0.0,0.0,0.0,0.0,0.0,0.0,0.0,0.0,0.0,0.0,0.0,0.0,0.0,0.0,0.0,0.0,0.0,0.0,0.0,0.0,0.0,0.0,0.0,0.0,0.0,0.0,0.0,0.0,0.0,0.0,0.0,0.0,0.0,0.0,0.0,0.0,0.0,0.0,0.0,0.0,0.0,0.0,0.0,0.0,0.0,0.0,0.0,0.0,0.0,0.0,0.0,0.0,0.0,0.0,0.0,0.0,0.0,0.0,0.0,0.0,0.0,0.0,0.0,0.0,0.0,0.0,0.0,0.0,0.0,0.0,0.0,0.0,0.0,0.0,0.0,0.0,0.0,0.0,0.0,0.0,0.0,0.0,0.0,0.0,0.0,0.0,0.0,0.0,0.0,0.0,0.0,0.0,0.0,0.0,0.0,0.0,0.0,0.0,0.0,0.0,0.0,0.0,0.0,0.0,0.0,0.0,0.0,0.0,0.0,0.0,0.0,0.0,0.0,0.0,0.0,0.0,0.0,0.0,0.0,0.0,0.0,0.0,0.0,0.0,0.0,0.0,0.0,0.0,0.0,0.0,0.0,0.0,0.0,0.0,0.0,0.0,0.0,0.0,0.0,0.0,0.0,0.0,0.0,0.0,0.0,0.0,0.0,0.0,0.0,0.0,0.0,0.0,0.0,0.0,0.0,0.0,0.0,0.0,0.0,0.0,0.0,0.0,0.0,0.0,0.0,0.0,0.0,0.0,0.0,0.0,0.0,0.0,0.0,0.0,0.0,0.0,0.0,0.0,0.0,0.0,0.0,0.0,0.0,0.0,0.0,0.0,0.0,0.0,0.0,0.0,0.0,0.0,0.0,0.0,0.0,0.0,0.0,0.0,0.0,0.0,0.0,0.0,0.0,0.0,0.0,0.0,0.0,0.0,0.0,0.0,0.0,0.0,0.0,0.0,0.0,0.0,0.0,0.0,0.0,0.0,0.0,0.0,0.0,0.0,0.0,0.0,0.0,0.0,0.0,0.0,0.0,0.0,0.0,0.0,0.0,0.0,0.0,0.0,0.0,0.0,0.0,0.0,0.0,0.0,0.0,0.0,0.0,0.0,0.0,0.0,0.0,0.0,0.0,0.0,0.0,0.0,0.0,0.0,0.0,0.0,0.0,0.0,0.0,0.0,0.0,0.0,0.0,0.0,0.0,0.0,0.0,0.0,0.0,0.0,0.0,0.0,0.0,0.0,0.0,0.0,0.0,0.0,0.0,0.0,0.0,0.0,0.0,0.0,0.0,0.0,0.0,0.0,0.0,0.0,0.0,0.0,0.0,0.0,0.0,0.0,0.0,0.0,0.0,0.0,0.0,0.0,0.0,0.0,0.0,0.0,0.0,0.0,0.0,0.0,0.0,0.0,0.0,0.0,0.0,0.0,0.0,0.0,0.0,0.0,0.0,0.0,0.0,0.0,0.0,0.0,0.0,0.0,0.0,0.0,0.0,0.0,0.0,0.0,0.0,0.0,0.0,0.0,0.0,0.0,0.0,0.0,0.0,0.0,0.0,0.0,0.0,0.0,0.0,0.0,0.0,0.0,0.0,0.0,0.0,0.0,0.0,0.0,0.0,0.0,0.0,0.0,0.0,0.0,0.0,0.0,0.0,0.0,0.0,0.0,0.0,0.0,0.0,0.0,0.0,0.0,0.0,0.0,0.0,0.0,0.0,0.0,0.0,0.0,0.0,0.0,0.0,0.0,0.0,0.0,0.0,0.0,0.0,0.0,0.0,0.0,0.0,0.0,0.0,0.0,0.0,0.0,0.0,0.0,0.0,0.0,0.0,0.0,0.0,0.0,0.0,0.0,0.0,0.0,0.0,0.0,0.0,0.0,0.0,0.0,0.0,0.0,0.0,0.0,0.0,0.0,0.0,0.0,0.0,0.0,0.0,0.0,0.0,0.0,0.0,0.0,0.0,0.0,0.0,0.0,0.0,0.0,0.0,0.0,0.0,0.0,0.0,0.0,0.0,0.0,0.0,0.0,0.0,0.0,0.0,0.0,0.0,0.0,0.0,0.0,0.0,0.0,0.0,0.0,0.0,0.0,0.0,0.0,0.0,0.0,0.0,0.0,0.0,0.0,0.0,0.0,0.0,0.0,0.0,0.0,0.0,0.0,0.0,0.0,0.0,0.0,0.0,0.0,0.0,0.0,0.0,0.0,0.0,0.0,0.0,0.0,0.0,0.0,0.0,0.0,0.0,0.0,0.0,0.0,0.0,0.0,0.0,-1.1933,0.0,0.0,0.0,0.0,0.0,0.0,0.0,0.0,0.0,0.0,0.0,0.0,0.0,0.0,0.0,0.0,0.0,0.0,0.0,0.0,0.0,0.0,0.0,0.0,0.0,0.0,0.0,0.0,0.0,0.0,0.0,0.0,0.0,0.0,0.0,0.0,0.0,0.0,0.0,0.0,0.0,0.0,0.0,0.0,0.0,0.0,0.0,0.0,0.0,0.0,0.0,0.0,0.0,0.0,0.0,0.0,0.0,0.0,0.0,0.0,0.0,0.0,0.0,0.0,0.0,0.0,0.0,0.0,0.0,0.0,0.0,0.0,0.0,0.0,0.0,0.0,0.0,0.0,0.0,0.0,0.0,0.0,0.0,0.0,0.0,0.0,0.0,0.0,0.0,0.0,0.0,0.0,0.0,0.0,0.0,0.0,0.0,0.0,0.0,0.0,0.0,0.0,0.0,0.0,0.0,0.0,0.0,0.0,0.0,0.0,-1.1085,-1.1224,-1.1339,-1.1474,-1.1608,0.0,0.0,0.0,0.0,0.0,0.0,0.0,0.0,0.0,0.0,0.0,0.0,0.0,0.0,0.0,0.0,0.0,0.0,0.0,0.0,0.0,0.0,0.0,0.0,0.0,0.0,0.0,0.0,0.0,0.0,0.0,0.0,0.0,0.0,0.0,0.0,0.0,0.0,0.0,0.0,0.0,0.0,0.0,0.0,0.0,0.0,0.0,0.0,0.0,0.0,0.0,0.0,0.0,0.0,0.0,0.0,0.0,0.0,0.0,0.0,0.0,0.0,0.0,0.0,0.0,0.0,0.0,0.0,0.0,0.0,0.0,0.0,0.0,0.0,0.0,0.0,0.0,0.0,0.0,0.0,0.0,0.0,0.0,0.0,0.0,0.0,0.0,0.0,0.0,0.0,0.0,0.0,0.0,0.0,0.0,0.0,0.0,0.0,0.0,0.0,0.0,0.0,0.0,0.0,0.0,0.0,0.0,0.0,0.0,0.0,0.0,0.0,-1.1076,-1.1192,-1.1285,0.0,0.0,0.0,0.0,0.0,0.0,0.0,0.0,0.0,0.0,0.0,0.0,0.0,0.0,0.0,0.0,0.0,0.0,0.0,0.0,0.0,0.0,0.0,0.0,0.0,0.0,0.0,0.0,0.0,0.0,0.0,0.0,0.0,0.0,0.0,0.0,0.0,0.0,0.0,0.0,0.0,0.0,0.0,0.0,0.0,0.0,0.0,0.0,0.0,0.0,0.0,0.0,0.0,0.0,0.0,0.0,0.0,0.0,0.0,0.0,0.0,0.0,0.0,0.0,0.0,0.0,0.0,0.0,0.0,0.0,0.0,0.0,0.0,0.0,0.0,0.0,0.0,0.0,0.0,0.0,0.0,0.0,0.0,0.0,0.0,0.0,0.0,0.0,0.0,0.0,0.0,0.0,0.0,0.0,0.0,0.0,0.0,0.0,0.0,0.0,0.0,0.0,0.0,0.0,0.0,0.0,0.0,0.0,0.0,0.0,-1.0572,-1.0632,-1.0656,0.0,-1.0944,0.0,0.0,0.0,0.0,0.0,0.0,0.0,0.0,0.0,0.0,0.0,0.0,0.0,0.0,0.0,0.0,0.0,0.0,0.0,0.0,0.0,0.0,0.0,0.0,0.0,0.0,0.0,0.0,0.0,0.0,0.0,0.0,0.0,0.0,0.0,0.0,0.0,0.0,0.0,0.0,0.0,0.0,0.0,0.0,0.0,0.0,0.0,0.0,0.0,0.0,0.0,0.0,0.0,0.0,0.0,0.0,0.0,0.0,0.0,0.0,0.0,0.0,0.0,0.0,0.0,0.0,0.0,0.0,0.0,0.0,0.0,0.0,0.0,0.0,0.0,0.0,0.0,0.0,0.0,0.0,0.0,0.0,0.0,0.0,0.0,0.0,0.0,0.0,0.0,0.0,0.0,0.0,0.0,0.0,0.0,0.0,0.0,0.0,0.0,0.0,0.0,0.0,0.0,0.0,0.0,0.0,0.0,0.0,0.0,0.0,-1.0449,-1.0485,-1.046,-1.051,0.0,0.0,0.0,0.0,0.0,0.0,0.0,0.0,0.0,0.0,0.0,0.0,0.0,0.0,0.0,0.0,0.0,0.0,0.0,0.0,0.0,0.0,0.0,0.0,0.0,0.0,0.0,0.0,0.0,0.0,0.0,0.0,0.0,0.0,0.0,0.0,0.0,0.0,0.0,0.0,0.0,0.0,0.0,0.0,0.0,0.0,0.0,0.0,0.0,0.0,0.0,0.0,0.0,0.0,0.0,0.0,0.0,0.0,0.0,0.0,0.0,0.0,0.0,0.0,0.0,0.0,0.0,0.0,0.0,0.0,0.0,0.0,0.0,0.0,0.0,0.0,0.0,0.0,0.0,0.0,0.0,0.0,0.0,0.0,0.0,0.0,0.0,0.0,0.0,0.0,0.0,0.0,0.0,0.0,0.0,0.0,0.0,0.0,0.0,0.0,0.0,0.0,0.0,0.0,0.0,0.0,0.0,0.0,0.0,0.0,-1.0224,-1.0299,-1.0311,-1.0311,-1.0324,-1.0286,0.0,0.0,0.0,0.0,0.0,0.0,0.0,0.0,0.0,0.0,0.0,0.0,0.0,0.0,0.0,0.0,0.0,0.0,0.0,0.0,0.0,0.0,0.0,0.0,0.0,0.0,0.0,0.0,0.0,0.0,0.0,0.0,0.0,0.0,0.0,0.0,0.0,0.0,0.0,0.0,0.0,0.0,0.0,0.0,0.0,0.0,0.0,0.0,0.0,0.0,0.0,0.0,0.0,0.0,0.0,0.0,0.0,0.0,0.0,0.0,0.0,0.0,0.0,0.0,0.0,0.0,0.0,0.0,0.0,0.0,0.0,0.0,0.0,0.0,0.0,0.0,0.0,0.0,0.0,0.0,0.0,0.0,0.0,0.0,0.0,0.0,0.0,0.0,0.0,0.0,0.0,0.0,0.0,0.0,0.0,0.0,0.0,0.0,0.0,0.0,0.0,0.0,0.0,0.0,0.0,0.0,0.0,0.0,-0.9905,-0.997,-1.0046,-1.0122,-1.0084,-1.0072,0.0,0.0,0.0,0.0,0.0,0.0,0.0,0.0,0.0,0.0,0.0,0.0,0.0,0.0,0.0,0.0,0.0,0.0,0.0,0.0,0.0,0.0,0.0,0.0,0.0,0.0,0.0,0.0,0.0,0.0,0.0,0.0,0.0,0.0,0.0,0.0,0.0,0.0,0.0,0.0,0.0,0.0,0.0,0.0,0.0,0.0,0.0,0.0,0.0,0.0,0.0,0.0,0.0,0.0,0.0,0.0,0.0,0.0,0.0,0.0,0.0,0.0,0.0,0.0,0.0,0.0,0.0,0.0,0.0,0.0,0.0,0.0,0.0,0.0,0.0,0.0,0.0,0.0,0.0,0.0,0.0,0.0,0.0,0.0,0.0,0.0,0.0,0.0,0.0,0.0,0.0,0.0,0.0,0.0,0.0,0.0,0.0,0.0,0.0,0.0,0.0,0.0,0.0,0.0,0.0,0.0,0.0,0.0,0.0,-0.988,-0.9919,-0.9944,-0.997,-0.997,-0.9944,0.0,0.0,0.0,0.0,0.0,0.0,0.0,0.0,0.0,0.0,0.0,0.0,0.0,0.0,0.0,0.0,0.0,0.0,0.0,0.0,0.0,0.0,0.0,0.0,0.0,0.0,0.0,0.0,0.0,0.0,0.0,0.0,0.0,0.0,0.0,0.0,0.0,0.0,0.0,0.0,0.0,0.0,0.0,0.0,0.0,0.0,0.0,0.0,0.0,0.0,0.0,0.0,0.0,0.0,0.0,0.0,0.0,0.0,0.0,0.0,0.0,0.0,0.0,0.0,0.0,0.0,0.0,0.0,0.0,0.0,0.0,0.0,0.0,0.0,0.0,0.0,0.0,0.0,0.0,0.0,0.0,0.0,0.0,0.0,0.0,0.0,0.0,0.0,0.0,0.0,0.0,0.0,0.0,0.0,0.0,0.0,0.0,0.0,0.0,0.0,0.0,0.0,0.0,0.0,0.0,0.0,0.0,0.0,0.0,-0.9684,0.0,-0.9698,-0.975,-0.975,-0.9736,0.0,0.0,0.0,0.0,0.0,0.0,0.0,0.0,0.0,0.0,0.0,0.0,0.0,0.0,0.0,0.0,0.0,0.0,0.0,0.0,0.0,0.0,0.0,0.0,0.0,0.0,0.0,0.0,0.0,0.0,0.0,0.0,0.0,0.0,0.0,0.0,0.0,0.0,0.0,0.0,0.0,0.0,0.0,0.0,0.0,0.0,0.0,0.0,0.0,0.0,0.0,0.0,0.0,0.0,0.0,0.0,0.0,0.0,0.0,0.0,0.0,0.0,0.0,0.0,0.0,0.0,0.0,0.0,0.0,0.0,0.0,0.0,0.0,0.0,0.0,0.0,0.0,0.0,0.0,0.0,0.0,0.0,0.0,0.0,0.0,0.0,0.0,0.0,0.0,0.0,0.0,0.0,0.0,0.0,0.0,0.0,0.0,0.0,0.0,0.0,0.0,0.0,0.0,0.0,0.0,0.0,0.0,0.0,-0.9271,-0.9205,-0.9205,-0.9286,-0.9381,-0.9485,-0.9497,0.0,0.0,0.0,0.0,0.0,0.0,0.0,0.0,0.0,0.0,0.0,0.0,0.0,0.0,0.0,0.0,0.0,0.0,0.0,0.0,0.0,0.0,0.0,0.0,0.0,0.0,0.0,0.0,0.0,0.0,0.0,0.0,0.0,0.0,0.0,0.0,0.0,0.0,0.0,0.0,0.0,0.0,0.0,0.0,0.0,0.0,0.0,0.0,0.0,0.0,0.0,0.0,0.0,0.0,0.0,0.0,0.0,0.0,0.0,0.0,0.0,0.0,0.0,0.0,0.0,0.0,0.0,0.0,0.0,0.0,0.0,0.0,0.0,0.0,0.0,0.0,0.0,0.0,0.0,0.0,0.0,0.0,0.0,0.0,0.0,0.0,0.0,0.0,0.0,0.0,0.0,0.0,0.0,0.0,0.0,0.0,0.0,0.0,0.0,0.0,0.0,0.0,0.0,0.0,0.0,0.0,0.0,0.0,0.0,-0.9158,-0.9147,-0.9162,-0.9217,-0.9324,-0.9351,0.0,0.0,0.0,0.0,0.0,0.0,0.0,0.0,0.0,0.0,0.0,0.0,0.0,0.0,0.0,0.0,0.0,0.0,0.0,0.0,0.0,0.0,0.0,0.0,0.0,0.0,0.0,0.0,0.0,0.0,0.0,0.0,0.0,0.0,0.0,0.0,0.0,0.0,0.0,0.0,0.0,0.0,0.0,0.0,0.0,0.0,0.0,0.0,0.0,0.0,0.0,0.0,0.0,0.0,0.0,0.0,0.0,0.0,0.0,0.0,0.0,0.0,0.0,0.0,0.0,0.0,0.0,0.0,0.0,0.0,0.0,0.0,0.0,0.0,0.0,0.0,0.0,0.0,0.0,0.0,0.0,0.0,0.0,0.0,0.0,0.0,0.0,0.0,0.0,0.0,0.0,0.0,0.0,0.0,0.0,0.0,0.0,0.0,0.0,0.0,0.0,0.0,0.0,0.0,0.0,0.0,0.0,0.0,0.0,-0.9649,-0.9709,-0.9751,-0.9769,-0.9706,-0.9569,-0.9384,0.0,0.0,0.0,0.0,0.0,0.0,0.0,0.0,0.0,0.0,0.0,0.0,0.0,0.0,0.0,0.0,0.0,0.0,0.0,0.0,0.0,0.0,0.0,0.0,0.0,0.0,0.0,0.0,0.0,0.0,0.0,0.0,0.0,0.0,0.0,0.0,0.0,0.0,0.0,0.0,0.0,0.0,0.0,0.0,0.0,0.0,0.0,0.0,0.0,0.0,0.0,0.0,0.0,0.0,0.0,0.0,0.0,0.0,0.0,0.0,0.0,0.0,0.0,0.0,0.0,0.0,0.0,0.0,0.0,0.0,0.0,0.0,0.0,0.0,0.0,0.0,0.0,0.0,0.0,0.0,0.0,0.0,0.0,0.0,0.0,0.0,0.0,0.0,0.0,0.0,0.0,0.0,0.0,0.0,0.0,0.0,0.0,0.0,0.0,0.0,0.0,0.0,0.0,0.0,0.0,0.0,0.0,0.0,-1.0645,-1.0805,-1.0911,-1.0906,-1.0498,-1.0116,0.0,0.0,0.0,0.0,0.0,0.0,0.0,0.0,0.0,0.0,0.0,0.0,0.0,0.0,0.0,0.0,0.0,0.0,0.0,0.0,0.0,0.0,0.0,0.0,0.0,0.0,0.0,0.0,0.0,0.0,0.0,0.0,0.0,0.0,0.0,0.0,0.0,0.0,0.0,0.0,0.0,0.0,0.0,0.0,0.0,0.0,0.0,0.0,0.0,0.0,0.0,0.0,0.0,0.0,0.0,0.0,0.0,0.0,0.0,0.0,0.0,0.0,0.0,0.0,0.0,0.0,0.0,0.0,0.0,0.0,0.0,0.0,0.0,0.0,0.0,0.0,0.0,0.0,0.0,0.0,0.0,0.0,0.0,0.0,0.0,0.0,0.0,0.0,0.0,0.0,0.0,0.0,0.0,0.0,0.0,0.0,0.0,0.0,0.0,0.0,0.0,0.0,0.0,0.0,0.0,0.0,0.0,0.0,0.0,-1.1131,-1.1715,-1.1829,-1.1359,-1.0608,-1.0165,0.0,0.0,0.0,0.0,0.0,0.0,0.0,0.0,0.0,0.0,0.0,0.0,0.0,0.0,0.0,0.0,0.0,0.0,0.0,0.0,0.0,0.0,0.0,0.0,0.0,0.0,0.0,0.0,0.0,0.0,0.0,0.0,0.0,0.0,0.0,0.0,0.0,0.0,0.0,0.0,0.0,0.0,0.0,0.0,0.0,0.0,0.0,0.0,0.0,0.0,0.0,0.0,0.0,0.0,0.0,0.0,0.0,0.0,0.0,0.0,0.0,0.0,0.0,0.0,0.0,0.0,0.0,0.0,0.0,0.0,0.0,0.0,0.0,0.0,0.0,0.0,0.0,0.0,0.0,0.0,0.0,0.0,0.0,0.0,0.0,0.0,0.0,0.0,0.0,0.0,0.0,0.0,0.0,0.0,0.0,0.0,0.0,0.0,0.0,0.0,0.0,0.0,0.0,0.0,0.0,0.0,0.0,0.0,-1.0797,-1.1518,-1.2348,-1.2619,-1.2226,-1.12,-1.0453,0.0,0.0,0.0,0.0,0.0,0.0,0.0,0.0,0.0,0.0,0.0,0.0,0.0,0.0,0.0,0.0,0.0,0.0,0.0,0.0,0.0,0.0,0.0,0.0,0.0,0.0,0.0,0.0,0.0,0.0,0.0,0.0,0.0,0.0,0.0,0.0,0.0,0.0,0.0,0.0,0.0,0.0,0.0,0.0,0.0,0.0,0.0,0.0,0.0,0.0,0.0,0.0,0.0,0.0,0.0,0.0,0.0,0.0,0.0,0.0,0.0,0.0,0.0,0.0,0.0,0.0,0.0,0.0,0.0,0.0,0.0,0.0,0.0,0.0,0.0,0.0,0.0,0.0,0.0,0.0,0.0,0.0,0.0,0.0,0.0,0.0,0.0,0.0,0.0,0.0,0.0,0.0,0.0,0.0,0.0,0.0,0.0,0.0,0.0,0.0,0.0,0.0,0.0,0.0,0.0,0.0,0.0,0.0,-1.0864,-1.1753,-1.2656,-1.3112,-1.3044,-1.193,-1.0893,0.0,0.0,0.0,0.0,0.0,0.0,0.0,0.0,0.0,0.0,0.0,0.0,0.0,0.0,0.0,0.0,0.0,0.0,0.0,0.0,0.0,0.0,0.0,0.0,0.0,0.0,0.0,0.0,0.0,0.0,0.0,0.0,0.0,0.0,0.0,0.0,0.0,0.0,0.0,0.0,0.0,0.0,0.0,0.0,0.0,0.0,0.0,0.0,0.0,0.0,0.0,0.0,0.0,0.0,0.0,0.0,0.0,0.0,0.0,0.0,0.0,0.0,0.0,0.0,0.0,0.0,0.0,0.0,0.0,0.0,0.0,0.0,0.0,0.0,0.0,0.0,0.0,0.0,0.0,0.0,0.0,0.0,0.0,0.0,0.0,0.0,0.0,0.0,0.0,0.0,0.0,0.0,0.0,0.0,0.0,0.0,0.0,0.0,0.0,0.0,0.0,0.0,0.0,0.0,0.0,0.0,0.0,0.0,-1.1341,-1.1648,-1.2205,-1.2471,-1.2353,-1.1626,-1.0945,0.0,0.0,0.0,0.0,0.0,0.0,0.0,0.0,0.0,0.0,0.0,0.0,0.0,0.0,0.0,0.0,0.0,0.0,0.0,0.0,0.0,0.0,0.0,0.0,0.0,0.0,0.0,0.0,0.0,0.0,0.0,0.0,0.0,0.0,0.0,0.0,0.0,0.0,0.0,0.0,0.0,0.0,0.0,0.0,0.0,0.0,0.0,0.0,0.151,0.0,0.0,0.0,0.0,0.0,0.0,0.0,0.0,0.0,0.0,0.0,0.0,0.0,0.0,0.0,0.0,0.0,0.0,0.0,0.0,0.0,0.0,0.0,0.0,0.0,0.0,0.0,0.0,0.0,0.0,0.0,0.0,0.0,0.0,0.0,0.0,0.0,0.0,0.0,0.0,0.0,0.0,0.0,0.0,0.0,0.0,0.0,0.0,0.0,0.0,0.0,0.0,0.0,0.0,0.0,0.0,0.0,0.0,0.0,-1.1677,-1.1556,-1.2175,-1.2382,-1.2089,-1.1582,-1.0964,0.0,0.0,0.0,0.0,0.0,0.0,0.0,0.0,0.0,0.0,0.0,0.0,0.0,0.0,0.0,0.0,0.0,0.0,0.0,0.0,0.0,0.0,0.0,0.0,0.0,0.0,0.0,0.0,0.0,0.0,0.0,0.0,0.0,0.0,0.0,0.0,0.0,0.0,0.0,0.0,0.0,0.0,0.0,0.0,0.0,0.0,0.0,0.0,0.0,0.0,0.0,0.0,0.0,0.0,0.0,0.0,0.0,0.0,0.0,0.0,0.0,0.0,0.0,0.0,0.0,0.0,0.0,0.0,0.0,0.0,0.0,0.0,0.0,0.0,0.0,0.0,0.0,0.0,0.0,0.0,0.0,0.0,0.0,0.0,0.0,0.0,0.0,0.0,0.0,0.0,0.0,0.0,0.0,0.0,0.0,0.0,0.0,0.0,0.0,0.0,0.0,0.0,0.0,0.0,0.0,0.0,0.0,-1.1266,-1.181,-1.1648,-1.23,-1.248,-1.2126,-1.1691,-1.0956,-0.9839,0.0,0.0,0.0,0.0,0.0,0.0,0.0,0.0,0.0,0.0,0.0,0.0,0.0,0.0,0.0,0.0,0.0,0.0,0.0,0.0,0.0,0.0,0.0,0.0,0.0,0.0,0.0,0.0,0.0,0.0,0.0,0.0,0.0,0.0,0.0,0.0,0.0,0.0,-0.0667,-0.0577,0.0,0.0,0.0,0.0,0.0,0.0,0.0,0.0,0.1161,0.0,0.0,0.0,0.0,0.0,0.0,0.0,0.0,0.0,0.0,0.0,0.0,0.0,0.0,0.0,0.0,0.0,0.0,0.0,0.0,0.0,0.0,0.0,0.0,0.0,0.0,0.0,0.0,0.0,0.0,0.0,0.0,0.0,0.0,0.0,0.0,0.0,0.0,0.0,0.0,0.0,0.0,0.0,0.0,0.0,0.0,0.0,0.0,0.0,0.0,0.0,0.0,0.0,0.0,0.0,0.0,-1.0984,-1.1272,-1.1688,-1.2162,-1.2393,-1.2372,-1.2116,-1.17,-1.0965,-0.9778,0.0,0.0,0.0,0.0,0.0,0.0,0.0,0.0,0.0,0.0,0.0,0.0,0.0,0.0,0.0,0.0,0.0,0.0,0.0,0.0,0.0,0.0,0.0,0.0,0.0,0.0,0.0,0.0,0.0,0.0,0.0,0.0,0.0,0.0,0.0,0.0,0.0,0.0,0.0,-0.0922,-0.104,0.0,0.0,0.0,0.0,0.0,0.0,0.0,0.0,0.1477,0.0,0.0,0.0,0.0,0.0,0.0,0.0,0.0,0.0,0.0,0.0,0.0,0.0,0.0,0.0,0.0,0.0,0.0,0.0,0.0,0.0,0.0,0.0,0.0,0.0,0.0,0.0,0.0,0.0,0.0,0.0,0.0,0.0,0.0,0.0,0.0,0.0,0.0,0.0,0.0,0.0,0.0,0.0,0.0,0.0,0.0,0.0,0.0,0.0,0.0,0.0,0.0,0.0,0.0,0.0,-1.1051,-1.1464,-1.1836,-1.2206,-1.248,-1.2431,-1.2126,-1.1691,-1.0921,0.0,0.0,0.0,0.0,0.0,0.0,0.0,0.0,0.0,0.0,0.0,0.0,0.0,0.0,0.0,0.0,0.0,0.0,0.0,0.0,0.0,0.0,0.0,0.0,0.0,0.0,0.0,0.0,0.0,0.0,0.0,0.0,0.0,0.0,0.0,0.0,0.0,0.0,0.0,0.0,-0.1002,-0.133,-0.1109,0.0,0.0,0.0,0.0,0.0,0.0,-0.0,0.0527,0.0,0.0,0.0,0.0,0.0,0.0,0.0,0.0,0.0,0.0,0.0,0.0,0.0,0.0,0.0,0.0,0.0,0.0,0.0,0.0,0.0,0.0,0.0,0.0,0.0,0.0,0.0,0.0,0.0,0.0,0.0,0.0,0.0,0.0,0.0,0.0,0.0,0.0,0.0,0.0,0.0,0.0,0.0,0.0,0.0,0.0,0.0,0.0,0.0,0.0,0.0,0.0,0.0,0.0,0.0,-1.099,-1.1609,-1.1978,-1.2157,-1.248,-1.248,-1.2116,-1.1618,-1.0829,0.0,0.0,0.0,0.0,0.0,0.0,0.0,0.0,0.0,0.0,0.0,0.0,0.0,0.0,0.0,0.0,0.0,0.0,0.0,0.0,0.0,0.0,0.0,0.0,0.0,0.0,0.0,0.0,0.0,0.0,0.0,0.0,0.0,0.0,0.0,0.0,0.0,0.0,0.0,0.0,0.0,-0.1497,-0.1505,-0.1474,0.0,0.0,0.0,0.0,-0.1015,-0.0944,0.0,0.0,0.0,0.0,0.0,0.0,0.0,0.0,0.0,0.0,0.0,0.0,0.0,0.0,0.0,0.0,0.0,0.0,0.0,0.0,0.0,0.0,0.0,0.0,0.0,0.0,0.0,0.0,0.0,0.0,0.0,0.0,0.0,0.0,0.0,0.0,0.0,0.0,0.0,0.0,0.0,0.0,0.0,0.0,0.0,0.0,0.0,0.0,0.0,0.0,0.0,0.0,0.0,0.0,0.0,0.0,-1.1148,-1.1546,-1.1911,-1.2255,-1.2323,-1.2274,-1.2126,-1.138,-1.0588,0.0,0.0,0.0,0.0,0.0,0.0,0.0,0.0,0.0,0.0,0.0,0.0,0.0,0.0,0.0,0.0,0.0,0.0,0.0,0.0,0.0,0.0,0.0,0.0,0.0,0.0,0.0,0.0,0.0,0.0,0.0,0.0,0.0,0.0,0.0,0.0,0.0,0.0,0.0,0.0,0.0,-0.1886,-0.201,-0.2261,-0.2002,0.0,0.0,-0.205,-0.3071,-0.2212,0.0,0.0,0.0,0.0,0.0,0.0,0.0,0.0,0.0,0.0,0.0,0.0,0.0,0.0,0.0,0.0,0.0,0.0,0.0,0.0,0.0,0.0,0.0,0.0,0.0,0.0,0.0,0.0,0.0,0.0,0.0,0.0,0.0,0.0,0.0,0.0,0.0,0.0,0.0,0.0,0.0,0.0,0.0,0.0,0.0,0.0,0.0,0.0,0.0,0.0,0.0,0.0,0.0,0.0,0.0,-1.0954,-1.1097,-1.164,-1.2009,-1.2175,-1.2175,-1.2175,-1.2126,-1.1334,-1.0634,0.0,0.0,0.0,0.0,0.0,0.0,0.0,0.0,0.0,0.0,0.0,0.0,0.0,0.0,0.0,0.0,0.0,0.0,0.0,0.0,0.0,0.0,0.0,0.0,0.0,0.0,0.0,0.0,0.0,0.0,0.0,0.0,0.0,0.0,0.0,0.0,0.0,0.0,0.0,0.0,0.0,0.0,-0.2534,-0.2596,0.0,0.0,0.0,-0.2336,-0.3414,0.0,0.0,0.0,0.0,0.0,0.0,0.0,0.0,0.0,0.0,0.0,0.0,0.0,0.0,0.0,0.0,0.0,0.0,0.0,0.0,0.0,0.0,0.0,0.0,0.0,0.0,0.0,0.0,0.0,0.0,0.0,0.0,0.0,0.0,0.0,0.0,0.0,0.0,0.0,0.0,0.0,0.0,0.0,0.0,0.0,0.0,0.0,0.0,0.0,0.0,0.0,0.0,0.0,0.0,0.0,0.0,0.0,-1.1072,-1.1768,-1.2076,-1.2076,-1.2076,-1.2076,-1.2058,-1.1435,0.0,0.0,0.0,0.0,0.0,0.0,0.0,0.0,0.0,0.0,0.0,0.0,0.0,0.0,0.0,0.0,0.0,0.0,0.0,0.0,0.0,0.0,0.0,0.0,0.0,0.0,0.0,-0.4205,0.0,0.0,0.0,0.0,0.0,0.0,0.0,0.0,0.0,0.0,0.0,0.0,0.0,0.0,-0.2678,-0.3119,-0.3045,-0.3009,0.0,0.0,-0.2739,-0.3455,-0.334,-0.2762,0.0,0.0,0.0,0.0,0.0,0.0,0.0,0.0,0.0,0.0,0.0,0.0,0.0,0.0,0.0,0.0,0.0,0.0,0.0,0.0,0.0,0.0,0.0,0.0,0.0,0.0,0.0,0.0,0.0,0.0,0.0,0.0,0.0,0.0,0.0,0.0,0.0,0.0,0.0,0.0,0.0,0.0,0.0,0.0,0.0,0.0,0.0,0.0,0.0,0.0,0.0,0.0,0.0,0.0,-1.1309,-1.1293,-1.1807,-1.2076,-1.2076,-1.2076,-1.2076,-1.2067,-1.1663,-1.1077,0.0,0.0,0.0,0.0,0.0,0.0,0.0,0.0,0.0,0.0,0.0,0.0,0.0,0.0,0.0,0.0,0.0,0.0,0.0,0.0,0.0,0.0,0.0,0.0,0.0,0.0,0.0,0.0,0.0,0.0,0.0,0.0,0.0,0.0,0.0,0.0,0.0,0.0,0.0,0.0,0.0,-0.3176,-0.3603,-0.3815,-0.384,0.0,-0.3727,-0.3788,-0.3627,-0.3677,-0.3465,-0.2664,0.0,0.0,0.0,0.0,0.0,0.0,0.0,0.0,0.0,0.0,0.0,0.0,0.0,0.0,0.0,0.0,0.0,0.0,0.0,0.0,0.0,0.0,0.0,0.0,0.0,0.0,0.0,0.0,0.0,0.0,0.0,0.0,0.0,0.0,0.0,0.0,0.0,0.0,0.0,0.0,0.0,0.0,0.0,0.0,0.0,0.0,0.0,0.0,0.0,0.0,0.0,0.0,0.0,-1.1362,-1.124,-1.1807,-1.2076,-1.2076,-1.2076,-1.2076,-1.2076,-1.17,-1.1296,0.0,0.0,0.0,0.0,0.0,0.0,0.0,0.0,0.0,0.0,0.0,0.0,0.0,0.0,0.0,0.0,0.0,0.0,0.0,0.0,0.0,0.0,0.0,0.0,0.0,0.0,0.0,0.0,-0.5786,-0.5736,-0.559,0.0,0.0,0.0,0.0,0.0,0.0,0.0,0.0,0.0,0.0,-0.4105,-0.4409,-0.4252,0.0,0.0,-0.4239,-0.4141,-0.4141,-0.4027,-0.3756,-0.326,-0.2997,0.0,0.0,0.0,0.0,0.0,0.0,0.0,0.0,0.0,0.0,0.0,0.0,0.0,0.0,0.0,0.0,0.0,0.0,0.0,0.0,0.0,0.0,0.0,0.0,0.0,0.0,0.0,0.0,0.0,0.0,0.0,0.0,0.0,0.0,0.0,0.0,0.0,0.0,0.0,0.0,0.0,0.0,0.0,0.0,0.0,0.0,0.0,0.0,0.0,0.0,0.0,0.0,-1.1508,-1.1509,-1.1872,-1.2076,-1.2076,-1.2076,-1.2076,-1.2067,-1.1752,-1.1465,0.0,0.0,0.0,0.0,0.0,0.0,0.0,0.0,0.0,0.0,0.0,0.0,0.0,0.0,0.0,0.0,0.0,0.0,0.0,0.0,0.0,0.0,0.0,0.0,0.0,0.0,0.0,0.0,-0.6795,-0.6766,-0.6516,0.0,0.0,0.0,0.0,0.0,0.0,0.0,0.0,0.0,0.0,-0.5079,-0.521,-0.4944,-0.4714,-0.4769,-0.4677,-0.4581,-0.4588,-0.4415,-0.421,-0.3949,0.0,0.0,0.0,0.0,0.0,0.0,0.0,0.0,0.0,0.0,0.0,0.0,0.0,0.0,0.0,0.0,0.0,0.0,0.0,0.0,0.0,0.0,0.0,0.0,0.0,0.0,0.0,-1.0091,0.0,0.0,-0.9972,0.0,0.0,0.0,0.0,0.0,0.0,0.0,0.0,0.0,0.0,0.0,0.0,0.0,0.0,0.0,0.0,0.0,0.0,0.0,0.0,0.0,0.0,-1.1787,-1.2161,-1.2108,-1.2076,-1.2076,-1.2076,-1.2076,-1.2076,-1.1868,-1.1483,-1.1119,0.0,0.0,0.0,0.0,0.0,0.0,0.0,0.0,0.0,0.0,0.0,0.0,0.0,0.0,0.0,0.0,0.0,0.0,0.0,0.0,0.0,0.0,0.0,0.0,0.0,0.0,-0.7348,-0.7462,-0.7579,0.0,0.0,0.0,0.0,0.0,0.0,0.0,0.0,0.0,-0.5336,-0.5748,-0.5982,-0.6,-0.5941,-0.5605,-0.4703,-0.4948,-0.5191,-0.4971,-0.4908,-0.4901,0.0,0.0,0.0,0.0,0.0,0.0,0.0,0.0,0.0,0.0,0.0,0.0,0.0,0.0,0.0,0.0,0.0,0.0,0.0,0.0,0.0,0.0,0.0,0.0,0.0,0.0,0.0,-1.1173,-1.1031,0.0,0.0,0.0,0.0,0.0,0.0,0.0,0.0,0.0,0.0,0.0,-1.2578,-1.273,0.0,0.0,0.0,0.0,0.0,0.0,0.0,0.0,0.0,0.0,0.0,0.0,-1.2333,-1.2097,-1.2359,-1.2382,-1.2126,-1.2076,-1.2076,-1.2076,-1.1877,-1.1402,-1.0737,0.0,0.0,0.0,0.0,0.0,0.0,0.0,0.0,0.0,0.0,0.0,0.0,0.0,0.0,0.0,0.0,0.0,0.0,0.0,0.0,0.0,0.0,0.0,0.0,0.0,-0.7754,0.0,0.0,0.0,0.0,0.0,0.0,0.0,0.0,0.0,0.0,0.0,-0.5891,-0.6061,-0.6543,-0.6799,-0.6642,-0.6588,-0.6529,0.0,0.0,0.0,0.0,0.0,0.0,0.0,0.0,0.0,0.0,0.0,0.0,0.0,0.0,-0.1595,-0.1939,-0.1646,-0.1306,-0.1258,0.0,0.0,0.0,0.0,0.0,0.0,0.0,0.0,0.0,0.0,0.0,0.0,0.0,0.0,-1.2102,-1.2014,-1.1975,0.0,0.0,0.0,0.0,0.0,0.0,0.0,0.0,-1.3139,-1.3314,-1.3204,-1.3357,-1.3445,-1.3488,-1.3488,-1.3575,0.0,0.0,0.0,0.0,0.0,0.0,0.0,0.0,-1.268,-1.2385,-1.2435,-1.2382,-1.2126,-1.2076,-1.2076,-1.2076,-1.1828,-1.1355,-1.068,-1.0651,-1.041,0.0,0.0,0.0,0.0,0.0,0.0,0.0,0.0,0.0,0.0,0.0,0.0,0.0,0.0,0.0,0.0,0.0,0.0,0.0,0.0,0.0,0.0,0.0,-0.836,0.0,0.0,0.0,0.0,0.0,0.0,0.0,0.0,0.0,-0.6588,-0.6534,-0.6588,-0.6761,-0.7187,-0.7456,-0.7176,0.0,0.0,0.0,0.0,0.0,0.0,0.0,-0.6164,-0.6376,-0.6327,-0.6166,-0.576,-0.5112,-0.4569,-0.4151,0.0,0.0,-0.3081,-0.2821,-0.2568,-0.2363,-0.2261,-0.2161,-0.2209,-0.2718,-0.3227,0.0,0.0,0.0,0.0,-1.4155,0.0,0.0,0.0,-1.3101,-1.3037,0.0,-1.29,0.0,0.0,0.0,0.0,-1.2265,-1.2693,0.0,0.0,-1.3914,-1.4144,-1.3772,-1.4155,-1.4466,-1.4581,-1.4558,-1.4605,-1.4709,-1.3531,0.0,0.0,0.0,0.0,0.0,0.0,-1.2832,-1.2996,-1.2501,-1.2175,-1.2126,-1.2126,-1.2076,-1.2067,-1.1819,-1.1469,-1.0905,-1.0648,-1.0399,-1.0132,-0.9979,0.0,0.0,0.0,0.0,0.0,0.0,0.0,0.0,0.0,0.0,0.0,0.0,0.0,0.0,0.0,0.0,0.0,0.0,0.0,0.0,-0.8734,0.0,0.0,0.0,0.0,0.0,0.0,0.0,0.0,0.0,-0.7717,-0.7241,-0.7133,-0.7192,-0.7461,0.0,0.0,0.0,0.0,-0.7521,-0.743,-0.7101,-0.6933,-0.7106,-0.6993,-0.6982,-0.7241,0.0,0.0,-0.6696,-0.6268,-0.6046,-0.6187,-0.566,-0.5069,-0.4245,-0.4117,-0.3868,-0.329,-0.319,-0.3129,-0.3179,-0.3352,-0.3397,-1.5344,0.0,0.0,0.0,0.0,-1.3971,-1.3861,-1.4138,-1.3707,-1.3521,-1.3477,-1.3477,0.0,0.0,0.0,0.0,0.0,0.0,-1.3477,-1.351,-1.41,-1.4307,-1.4187,-1.4318,-1.443,-1.4419,-1.4477,-1.4477,-1.4512,-1.4146,-1.4115,-1.4306,0.0,0.0,0.0,0.0,-1.3861,-1.3457,-1.3382,-1.3045,-1.252,-1.252,-1.2274,-1.1828,-1.1728,-1.1477,-1.0922,-1.0822,-1.0714,-1.0505,-1.0213,0.0,0.0,0.0,0.0,0.0,0.0,0.0,0.0,0.0,0.0,0.0,0.0,0.0,0.0,0.0,0.0,0.0,0.0,0.0,-0.9151,-0.9029,-0.9061,0.0,0.0,0.0,0.0,0.0,0.0,0.0,0.0,0.0,-0.8321,-0.7943,-0.7777,0.0,0.0,-0.8156,-0.7901,-0.7842,-0.7735,-0.7628,-0.7359,0.0,-0.7521,-0.7365,-0.7252,-0.7563,-0.7515,-0.7413,-0.7144,-0.6928,-0.6756,-0.6647,-0.6603,-0.6455,-0.6076,-0.573,-0.5464,-0.5177,-0.5116,-0.5173,-0.5284,-0.5337,-0.5333,-1.5637,-1.5215,-1.5311,-1.5311,-1.5218,-1.486,-1.4821,-1.5037,-1.4657,-1.4548,-1.4548,-1.4548,-1.4384,-1.4022,-1.3837,0.0,0.0,0.0,-1.3958,-1.398,-1.4242,-1.443,-1.443,-1.443,-1.443,-1.443,-1.443,-1.443,-1.443,-1.443,-1.4523,-1.473,0.0,-1.4627,-1.4477,-1.4373,-1.414,-1.3668,-1.3488,-1.3152,-1.2735,-1.2529,-1.2274,-1.1868,-1.1778,-1.1477,-1.1074,-1.0972,-1.0828,-1.0624,-1.0556,-1.0466,0.0,0.0,0.0,0.0,0.0,0.0,0.0,0.0,0.0,0.0,0.0,-0.9942,-0.9885,0.0,0.0,0.0,-0.9356,-0.9403,-0.9457,-0.935,0.0,0.0,0.0,0.0,0.0,0.0,0.0,-0.891,-0.8745,-0.8692,-0.8857,-0.8633,-0.8461,-0.8633,-0.8685,-0.8633,-0.8427,0.0,-0.8156,-0.809,-0.7788,-0.758,-0.7729,-0.7628,-0.758,-0.7735,-0.7735,-0.7574,-0.7419,-0.7306,-0.7246,-0.7133,-0.7085,-0.7144,-0.7198,-0.7036,-0.6712,-0.6204,-0.6091,-0.6095,-0.6209,-0.6209,-0.6209,-1.5957,-1.5946,-1.6192,-1.6187,-1.6008,-1.5957,-1.5906,-1.5785,-1.5774,-1.5785,-1.5785,-1.5785,-1.5785,-1.5753,-1.5367,0.0,-1.4493,-1.4493,-1.4504,-1.4493,-1.454,-1.4493,-1.4493,-1.4493,-1.4493,-1.454,-1.454,-1.4493,-1.4504,-1.4504,-1.4587,-1.4691,-1.4691,-1.4658,-1.4592,-1.4222,-1.401,-1.3873,-1.326,-1.289,-1.2929,-1.2476,-1.2267,-1.2227,-1.189,-1.1571,-1.1319,-1.104,-1.0769,-1.0522,-1.0871,-1.0772,-1.0222,0.0,0.0,0.0,0.0,0.0,0.0,0.0,0.0,0.0,0.0,0.0,0.0,0.0,0.0,0.0,-1.0322,0.0,-0.9769,-0.9718,0.0,0.0,0.0,-0.9666,-1.002,-0.9458,-0.9061,-0.9054,0.0,0.0,-0.9061,-0.9166,-0.9218,-0.9113,-0.9159,-0.9211,-0.9211,-0.889,-0.8685,-0.8626,-0.8268,-0.8002,-0.8062,-0.8002,-0.7955,-0.8008,-0.7901,-0.7794,-0.7574,-0.7521,-0.7521,-0.7521,-0.7343,-0.7283,-0.7788,-0.7848,-0.7574,-0.6534,-0.6372,-0.6372,-0.6426,-0.6426,-0.6426,-1.694,-1.6929,-1.6983,-1.6567,-1.5836,-1.5826,-1.5836,-1.5785,-1.5785,-1.5785,-1.5785,-1.5785,-1.5785,-1.5774,-1.5665,-1.5596,-1.5487,-1.5487,-1.5487,-1.5487,-1.5487,-1.5448,-1.5487,-1.5487,-1.5498,-1.5487,-1.5487,-1.5487,-1.5487,-1.5437,-1.5487,-1.5487,-1.5537,-1.5224,-1.4603,-1.4523,-1.4559,-1.4785,-1.459,-1.4563,-1.4584,-1.3932,-1.3417,-1.3187,-1.2307,-1.1704,-1.1389,-1.0873,-1.0573,-1.0522,-1.0573,-1.0756,-1.0934,-1.0947,0.0,0.0,0.0,0.0,0.0,0.0,0.0,0.0,0.0,-1.1282,-1.1367,0.0,-1.0995,0.0,-1.034,-1.0431,-1.1006,-1.0643,0.0,0.0,-1.0608,-1.0506,-1.0498,-0.9976,-0.9666,-0.9762,-0.9413,-0.9211,-0.9413,-0.9577,-0.9695,-0.974,-0.9532,-0.9368,-0.9368,-0.9256,-0.9152,-0.9054,-0.8949,-0.8896,-0.8844,-0.8633,-0.8421,-0.8415,-0.8162,-0.7901,-0.7848,-0.7788,-0.7788,-0.7788,-0.7735,-0.7783,-0.7901,-0.7901,-0.7848,-0.7574,-0.7521,-0.7461,-0.7467,-0.7467,-0.7521,-1.7434,-1.7645,-1.739,-1.7126,-1.6819,-1.6576,-1.6629,-1.6807,-1.6576,-1.6618,-1.6819,-1.6565,-1.6481,-1.6481,-1.647,-1.635,-1.6153,-1.6079,-1.5981,-1.5785,-1.5785,-1.5785,-1.5785,-1.5785,-1.5785,-1.5785,-1.5785,-1.5785,-1.5785,-1.5785,-1.5785,-1.5785,-1.5785,-1.5563,-1.5158,-1.5136,-1.5208,-1.5421,-1.5211,-1.5076,-1.4966,-1.4523,-1.4053,-1.3523,-1.2825,-1.2165,-1.1645,-1.1081,-1.082,-1.0871,-1.0871,-1.0962,-1.1264,-1.1234,-1.1412,0.0,0.0,0.0,0.0,0.0,0.0,0.0,0.0,0.0,0.0,0.0,-1.1519,-1.1065,-1.0947,-1.0998,-1.1368,-1.1124,-1.1015,-1.1226,-1.1023,-1.0922,-1.1006,-1.0431,-1.0064,-1.0012,-0.9666,-0.9465,-0.9517,-0.9569,-0.9688,-0.9895,-0.9784,-0.9732,-0.9836,-0.9725,-0.9562,-0.9458,-0.9309,-0.9204,-0.9204,-0.9001,-0.889,-0.8837,-0.8633,-0.848,-0.848,-0.848,-0.848,-0.8474,-0.8184,-0.8066,-0.8421,-0.848,-0.8474,-0.8474,-0.8474,-0.8321,-0.8008,-0.7901,-0.7955,-1.7623,-1.8032,-1.7578,-1.7712,-1.8123,-1.7779,-1.7856,-1.8147,-1.7645,-1.7645,-1.8007,-1.7479,-1.7278,-1.7278,-1.7278,-1.7038,-1.6623,-1.6623,-1.6404,-1.6033,-1.6022,-1.597,-1.6022,-1.6033,-1.597,-1.597,-1.597,-1.597,-1.597,-1.597,-1.6022,-1.597,-1.6022,-1.597,-1.5959,-1.5959,-1.5938,-1.5872,-1.5593,-1.5311,-1.5024,-1.491,-1.4528,-1.3827,-1.3279,-1.2651,-1.2009,-1.1453,-1.1226,-1.1326,-1.1326,-1.1369,-1.1455,-1.1725,-1.1894,0.0,-1.2049,0.0,0.0,0.0,0.0,0.0,0.0,0.0,0.0,-1.205,-1.189,-1.1698,-1.1749,-1.1766,-1.1566,-1.1566,-1.1626,-1.187,-1.1421,-1.1243,-1.1589,-1.0972,-1.0415,-1.0226,-1.002,-0.9821,-0.9673,-0.9621,-0.9725,-0.9999,-1.0051,-1.0146,-1.0419,-1.0146,-0.9873,-0.9865,-0.9562,-0.9465,-0.942,-0.9368,-0.9263,-0.9256,-0.9152,-0.9204,-0.9152,-0.9152,-0.9152,-0.9093,-0.8567,-0.8377,-0.9086,-0.9271,-0.933,-0.9159,-0.9106,-0.8896,-0.8321,-0.8168,-0.8062,-1.761,-1.8019,-1.7926,-1.8134,-1.864,-1.9041,-1.9088,-1.8774,-1.8224,-1.7744,-1.7423,-1.7334,-1.7278,-1.7278,-1.7278,-1.7224,-1.7136,-1.7136,-1.7092,-1.7005,-1.6994,-1.7005,-1.7005,-1.7005,-1.6994,-1.7005,-1.7005,-1.7005,-1.7005,-1.7005,-1.7016,-1.7005,-1.7005,-1.7005,-1.7005,0.0,0.0,0.0,-1.6732,-1.6884,-1.6774,-1.5962,-1.5287,-1.4884,-1.3576,0.0,-1.2319,-1.1837,-1.1569,-1.1628,-1.1628,0.0,0.0,0.0,0.0,0.0,0.0,0.0,0.0,0.0,0.0,0.0,-1.3103,-1.2929,-1.2641,-1.245,-1.2398,-1.245,-1.2398,-1.2482,-1.286,-1.2905,-1.2959,-1.2941,-1.2597,-1.2398,-1.2441,-1.166,-1.1158,-1.1209,-1.0846,-1.0592,-1.0557,-1.0753,-1.0854,-1.093,-1.071,-1.06,-1.0836,-1.0478,-1.0257,-1.036,-1.0257,-1.0205,-1.0265,-0.9932,-0.9666,-0.9666,-0.9413,-0.9263,-0.9263,-0.9204,-0.9211,-0.9211,-0.9086,-0.8967,-0.9204,-0.9754,-0.9993,-0.933,-0.9204,-0.9159,-0.9001,-0.8949,-0.8949,-1.9295,-1.9688,-1.9425,-1.9622,0.0,-2.0457,-2.0631,-2.0598,-1.94,-1.8566,-1.7977,-1.7977,-1.8019,-1.8002,-1.7742,-1.7666,-1.77,-1.7434,-1.7278,-1.7278,-1.7278,-1.7278,-1.7289,-1.7518,-1.7508,-1.7289,-1.7518,-1.7518,-1.7289,-1.7278,-1.7278,-1.7278,-1.7278,-1.7278,-1.7278,-1.7278,-1.7147,-1.6896,-1.7147,-1.7278,-1.7267,-1.6761,-1.624,-1.5714,-1.4894,0.0,0.0,0.0,0.0,0.0,0.0,0.0,0.0,-1.3503,-1.3588,-1.3995,-1.3943,-1.4032,-1.4224,-1.4079,-1.3968,-1.3913,-1.3756,-1.3406,-1.3011,-1.2921,-1.2921,-1.2975,-1.2921,-1.3004,-1.3268,-1.3296,-1.3296,-1.3277,-1.3103,-1.2975,-1.2938,-1.24,-1.191,-1.167,-1.1319,-1.1015,-1.0761,-1.0854,-1.109,-1.1404,-1.1386,-1.1335,-1.1369,-1.0772,-1.0316,-1.0368,-1.0411,-1.0419,-1.0411,-1.0308,-1.0138,-1.0138,-0.9991,-0.9836,-0.9836,-0.9836,-0.9836,-0.9836,-0.9844,-0.9836,-0.9844,-1.0208,-1.0335,-0.9962,-0.9836,-0.9844,-0.974,-0.942,-0.9113,-2.0998,-2.1469,-2.1027,-2.1145,-2.1618,-2.1719,-2.2158,-2.2553,-2.094,0.0,0.0,-1.9309,-1.9358,-1.9379,-1.8832,-1.8507,-1.838,-1.7889,-1.7562,-1.742,-1.7497,-1.7529,-1.7551,-1.7944,-1.7879,-1.7442,-1.7901,-1.7835,-1.7311,-1.7498,-1.7431,-1.73,-1.7366,-1.7422,-1.7289,-1.7433,-1.7465,-1.7455,-1.7311,-1.7278,-1.7278,-1.7191,-1.6841,-1.6245,-1.5977,-1.5584,-1.4997,-1.4354,-1.4257,-1.4734,-1.4194,-1.418,-1.474,-1.4419,-1.4459,-1.4861,-1.4646,-1.4686,-1.5255,-1.4949,-1.4667,-1.4563,-1.4222,-1.38,-1.3341,-1.3351,-1.3396,-1.3406,-1.3396,-1.3424,-1.3506,-1.3516,-1.3506,-1.3506,-1.3451,-1.3396,-1.3369,-1.303,-1.2615,-1.2211,-1.1887,-1.1575,-1.1232,-1.1232,-1.136,-1.185,-1.2087,-1.2034,-1.1956,-1.1189,-1.0616,-1.0624,-1.0565,-1.0419,-1.0419,-1.0368,-1.047,-1.0419,-1.047,-1.0522,-1.0522,-1.0522,-1.0522,-1.0419,-1.047,-1.047,-1.047,-1.0478,-1.047,-1.0462,-1.0462,-1.0419,-1.0213,-0.9688,-0.9218,-2.0989,-2.1377,-2.1318,-2.1584,-2.2068,-2.2611,-2.3198,-2.3636,-2.2527,-2.1694,-2.1164,-2.1632,-2.1922,-2.1849,-2.1136,-2.0358,-1.9541,-1.9271,-1.8687,-1.7933,-1.8316,-1.849,-1.849,-1.8567,-1.8348,-1.7966,-1.837,-1.8141,-1.7453,-1.8086,-1.8086,-1.742,-1.7693,-1.7704,-1.7411,-1.7794,-1.8002,-1.7901,-1.7486,-1.7278,-1.7267,-1.6809,-1.6504,-1.6364,-1.5733,-1.5384,-1.5247,-1.5049,-1.4976,-1.5039,-1.4934,-1.5057,-1.5393,-1.5696,-1.5818,-1.5766,-1.6033,-1.595,-1.5255,-1.5139,-1.4925,-1.4542,-1.4423,-1.4112,-1.3387,-1.3607,-1.38,-1.38,-1.38,-1.3956,-1.4277,-1.4313,-1.4295,-1.4286,-1.4002,-1.38,-1.3791,-1.3451,-1.3204,-1.3095,-1.3167,-1.3094,-1.2833,-1.2959,-1.3075,-1.3122,-1.2923,-1.2599,-1.2193,-1.1713,-1.1444,-1.1318,-1.1015,-1.082,-1.0769,-1.0522,-1.047,-1.0316,-1.047,-1.0616,-1.0624,-1.0616,-1.0616,-1.0522,-1.0565,-1.0514,-1.0522,-1.0522,-1.047,-1.0368,-1.0368,-1.0265,-1.0102,-0.9792,-0.9688,-2.2964,-2.2867,-2.2841,-2.3005,-2.3258,-2.3863,-2.4445,-2.4946,-2.4828,-2.3966,-2.2819,-2.3038,-2.3203,-2.3195,-2.257,-2.1827,-2.1032,-2.0625,-1.9939,-1.9179,-1.9113,-1.908,-1.908,-1.908,-1.8829,-1.8425,-1.8862,-1.872,-1.8141,-1.849,-1.848,-1.8075,-1.8272,-1.8272,-1.8075,-1.8169,-1.8267,-1.8381,-1.8335,-1.8225,-1.8043,-1.7527,-1.7277,-1.7277,-1.6699,-1.6396,-1.6396,-1.606,-1.605,-1.6277,-1.606,-1.609,-1.6477,-1.6443,-1.6472,-1.6616,-1.6637,-1.6513,-1.6343,-1.6104,-1.5758,-1.5303,-1.501,-1.4751,-1.4355,-1.4276,-1.4222,-1.4222,-1.4222,-1.4295,-1.4497,-1.4515,-1.4515,-1.4515,-1.4332,-1.4231,-1.4185,-1.3864,-1.3616,-1.3598,-1.3479,-1.335,-1.3296,-1.3405,-1.3616,-1.3728,-1.3663,-1.3525,-1.3214,-1.2844,-1.2314,-1.1622,-1.1326,-1.1217,-1.1217,-1.1175,-1.1074,-1.1074,-1.1124,-1.1175,-1.1226,-1.1276,-1.1267,-1.1259,-1.088,-1.0669,-1.0863,-1.0675,-1.047,-1.0368,-1.0316,-1.0213,-0.9947,-0.9792,-0.9732,-2.4713,-2.4308,-2.4164,-2.4191,-2.4374,-2.5053,-2.5602,-2.6059,-2.6608,-2.6063,-2.474,-2.4637,-2.4676,-2.4722,-2.4109,-2.342,-2.2722,-2.2034,-2.1342,-2.0532,-2.0095,-1.991,-1.9899,-1.9801,-1.9484,-1.9102,-1.9408,-1.9277,-1.8774,-1.8905,-1.8949,-1.8851,-1.8742,-1.8698,-1.8698,-1.8527,-1.8581,-1.8862,-1.9232,-1.9177,-1.8698,-1.8338,-1.8163,-1.813,-1.7802,-1.7595,-1.7584,-1.7241,-1.7231,-1.7448,-1.7123,-1.7123,-1.7427,-1.7027,-1.7016,-1.7494,-1.7145,-1.7066,-1.7402,-1.7011,-1.6554,-1.6083,-1.5733,-1.5459,-1.5186,-1.4843,-1.4625,-1.4506,-1.4606,-1.4606,-1.4446,-1.4455,-1.4455,-1.4387,-1.4455,-1.4428,-1.4359,-1.4154,-1.3962,-1.3802,-1.3632,-1.3589,-1.3506,-1.3506,-1.3764,-1.4137,-1.4307,-1.4345,-1.4242,-1.3803,-1.3081,-1.228,-1.1793,-1.1628,-1.1619,-1.1628,-1.1628,-1.1678,-1.1678,-1.1678,-1.1728,-1.1819,-1.1868,-1.1751,-1.1366,-1.1107,-1.1259,-1.1074,-1.082,-1.0667,-1.0667,-1.0514,-1.0257,-1.0095,-0.9829,-2.4949,-2.4818,-2.436,-2.4426,-2.5061,-2.6046,-2.6517,-2.6648,-2.7196,-2.7365,-2.7022,-2.7167,-2.7102,-2.7089,-2.6329,-2.5548,-2.4605,-2.3656,-2.2696,-2.1829,-2.153,-2.1385,-2.1297,-2.0915,-2.0478,-1.9998,-2.002,-1.9681,-1.8938,-1.9626,-1.9737,-1.9342,-1.8916,-1.8753,-1.8763,-1.8978,-1.9184,-1.9364,-1.9801,-1.9594,-1.8753,-1.8654,-1.8632,-1.8632,-1.8578,-1.8556,-1.8501,-1.8496,-1.8392,-1.8104,-1.7921,-1.7969,-1.8046,-1.7521,-1.7614,-1.8447,-1.8104,-1.7921,-1.7927,-1.7513,-1.7063,-1.6598,-1.6527,-1.6108,-1.5332,-1.5177,-1.4951,-1.4675,-1.4902,-1.4715,-1.4189,-1.4327,-1.4327,-1.4079,-1.4258,-1.4387,-1.413,-1.43,-1.4204,-1.3588,-1.3969,-1.4269,-1.3992,-1.411,-1.4359,-1.4427,-1.4536,-1.4492,-1.4222,-1.4129,-1.3912,-1.3201,-1.258,-1.2109,-1.2063,-1.1728,-1.1728,-1.1628,-1.1678,-1.1828,-1.1877,-1.1877,-1.1769,-1.2058,-1.1904,-1.1846,-1.1669,-1.1569,-1.1528,-1.1226,-1.1175,-1.1276,-1.1108,-1.0905,-1.0498,-2.5785,-2.5445,-2.5223,-2.5458,-2.602,-2.6555,-2.6857,-2.7196,-2.7419,-2.7469,-2.7469,-2.7469,-2.7469,-2.7456,-2.7175,-2.6354,-2.5166,-2.4728,-2.385,-2.2592,-2.2204,-2.2018,-2.1964,-2.1516,-2.1177,-2.1013,-2.1002,-2.0795,-2.0544,-2.0806,-2.0893,-2.0675,-2.0205,-1.9987,-1.9976,-1.9813,-1.9759,-1.9791,-1.9976,-1.9878,-1.9572,-1.9266,-1.9124,-1.9091,-1.8851,-1.8698,-1.8698,-1.8698,-1.8523,-1.8244,-1.8327,-1.8327,-1.8223,-1.8143,-1.8272,-1.8643,-1.8523,-1.8371,-1.824,-1.819,-1.7938,-1.7482,-1.7155,-1.6711,-1.6107,-1.6046,-1.5816,-1.5362,-1.4824,-1.4291,-1.407,-1.395,-1.3821,-1.3761,-1.3821,-1.395,-1.401,-1.3941,-1.389,-1.401,-1.395,-1.407,-1.4258,-1.4387,-1.4515,-1.4506,-1.4556,-1.4483,-1.4326,-1.422,-1.4044,-1.3756,-1.3292,-1.2926,-1.2647,-1.2485,-1.2311,-1.2332,-1.2372,-1.2421,-1.248,-1.2529,-1.2578,-1.255,-1.2577,-1.2497,-1.2234,-1.2149,-1.2086,-1.1722,-1.1226,-1.1124,-1.1015,-1.1015,-1.0651,-2.6452,-2.6086,-2.6059,-2.6295,-2.6674,-2.6844,-2.7144,-2.7497,-2.7469,-2.7469,-2.7469,-2.7469,-2.7469,-2.7469,-2.7469,-2.6892,-2.6,-2.5721,-2.5004,-2.3891,-2.3139,-2.2789,-2.2734,-2.2089,-2.1789,-2.1767,-2.1625,-2.1581,-2.1603,-2.1603,-2.1603,-2.1538,-2.1232,-2.1136,-2.1002,-2.0477,-2.0161,-2.026,-2.0238,-2.0085,-2.0031,-1.9737,-1.9615,-1.9594,-1.9277,-1.9091,-1.9091,-1.908,-1.8986,-1.8736,-1.8866,-1.8855,-1.8725,-1.8746,-1.8753,-1.8895,-1.9015,-1.9029,-1.8833,-1.8957,-1.8768,-1.8154,-1.776,-1.7269,-1.666,-1.6513,-1.6275,-1.5758,-1.4824,-1.424,-1.4061,-1.3692,-1.3511,-1.339,-1.345,-1.3571,-1.3649,-1.358,-1.3631,-1.3899,-1.364,-1.3692,-1.4198,-1.4327,-1.4327,-1.4446,-1.4616,-1.468,-1.4653,-1.4483,-1.4338,-1.4081,-1.3932,-1.3612,-1.3204,-1.3008,-1.3046,-1.3018,-1.2959,-1.2881,-1.3036,-1.3036,-1.3036,-1.2774,-1.3057,-1.3018,-1.2646,-1.2516,-1.2463,-1.1913,-1.1519,-1.1377,-1.1519,-1.1368,-1.1116,-2.6674,-2.6648,-2.6634,-2.6661,-2.6726,-2.7236,-2.7484,-2.7469,-2.7469,-2.7469,-2.7469,-2.7469,-2.7469,-2.7469,-2.7469,-2.7469,-2.7255,-2.6552,-2.6208,-2.5836,-2.4577,-2.4002,-2.3918,-2.285,-2.2291,-2.2248,-2.1898,-2.1701,-2.1669,-2.1636,-2.1603,-2.1614,-2.1581,-2.1559,-2.1472,-2.0676,-2.0407,-2.0773,-2.0456,-2.0129,-2.0107,-2.0064,-2.0042,-2.0009,-1.9998,-1.9944,-1.9966,-1.9998,-1.9976,-1.9987,-1.9552,-1.9572,-1.9846,-1.92,-1.8949,-1.9364,-1.9726,-1.9901,-1.9738,-1.9782,-1.9361,-1.8595,-1.8351,-1.7786,-1.6644,-1.6472,-1.6212,-1.5526,-1.5118,-1.4706,-1.4282,-1.3863,-1.3459,-1.3164,-1.3338,-1.3338,-1.3103,-1.3338,-1.3208,-1.3042,-1.3277,-1.3631,-1.4001,-1.401,-1.4225,-1.4487,-1.4845,-1.5056,-1.5065,-1.5029,-1.4894,-1.4502,-1.4255,-1.4007,-1.3711,-1.3461,-1.3362,-1.3396,-1.3281,-1.2988,-1.291,-1.2939,-1.2969,-1.2969,-1.2978,-1.2939,-1.291,-1.2842,-1.2705,-1.2431,-1.2323,-1.2224,-1.1918,-1.2175,-1.1868,-2.7536,-2.7223,-2.7223,-2.7223,-2.7236,-2.7445,-2.7469,-2.7469,-2.7469,-2.7469,-2.7469,-2.7469,-2.7469,-2.7469,-2.7469,-2.7255,-2.6756,-2.6483,-2.6139,-2.5652,-2.4552,-2.412,-2.4024,-2.3172,-2.275,-2.2717,-2.2575,-2.2488,-2.2488,-2.2488,-2.2488,-2.2422,-2.2193,-2.2051,-2.1974,-2.1651,-2.141,-2.1399,-2.1347,-2.1127,-2.0631,-2.0609,-2.0467,-2.0107,-2.0085,-2.0085,-2.0085,-2.0085,-2.0085,-2.0085,-1.99,-1.99,-2.002,-1.9823,-1.9628,-1.9738,-1.9976,-2.0009,-1.9747,-1.9813,-1.9598,-1.8806,-1.871,-1.8243,-1.7311,-1.708,-1.6848,-1.6311,-1.569,-1.5264,-1.5021,-1.451,-1.3932,-1.3459,-1.345,-1.3407,-1.3103,-1.2981,-1.2981,-1.3155,-1.3398,-1.3692,-1.3992,-1.4061,-1.4168,-1.4531,-1.4887,-1.5212,-1.5423,-1.5487,-1.5251,-1.4746,-1.4617,-1.4634,-1.4239,-1.3927,-1.3695,-1.3729,-1.3675,-1.3669,-1.3591,-1.3491,-1.352,-1.3179,-1.3061,-1.2809,-1.2742,-1.2627,-1.2578,-1.2431,-1.2372,-1.2421,-1.2224,-1.2175,-1.1927,-2.815,-2.7811,-2.7602,-2.7469,-2.7469,-2.7469,-2.7469,-2.7469,-2.7469,-2.7469,-2.7469,-2.7469,-2.7469,-2.7469,-2.7469,-2.7255,-2.6769,-2.6769,-2.6483,-2.6,-2.5193,-2.4838,-2.4696,-2.3852,-2.335,-2.3276,-2.3075,-2.3001,-2.3001,-2.3001,-2.3001,-2.2957,-2.2673,-2.2531,-2.2477,-2.2281,-2.2039,-2.1903,-2.1886,-2.1611,-2.1202,-2.109,-2.0871,-2.0456,-2.0369,-2.0293,-2.0096,-2.0085,-2.0085,-2.0085,-2.0085,-2.0085,-2.0085,-2.0085,-2.0074,-2.0009,-2.0064,-2.0009,-1.9736,-1.9802,-1.9598,-1.8956,-1.8881,-1.8552,-1.7708,-1.7613,-1.7391,-1.6879,-1.6444,-1.6045,-1.5788,-1.541,-1.4765,-1.407,-1.3917,-1.3865,-1.3545,-1.328,-1.321,-1.3128,-1.3164,-1.345,-1.4001,-1.4186,-1.4538,-1.4994,-1.5401,-1.5734,-1.6002,-1.5937,-1.5817,-1.5351,-1.5149,-1.4876,-1.457,-1.422,-1.4033,-1.4067,-1.3892,-1.4028,-1.4077,-1.3949,-1.3781,-1.3485,-1.3096,-1.2739,-1.2491,-1.2419,-1.2274,-1.2126,-1.2126,-1.2224,-1.2076,-1.1927,-1.1678,-2.8386,-2.8268,-2.7758,-2.7469,-2.7469,-2.7469,-2.7469,-2.7469,-2.7469,-2.7469,-2.7469,-2.7469,-2.7469,-2.7469,-2.7469,-2.7469,-2.739,-2.739,-2.7323,-2.7188,-2.6552,-2.6195,-2.6126,-2.4696,-2.3902,-2.3829,-2.3276,-2.3001,-2.3001,-2.3001,-2.3001,-2.3001,-2.2968,-2.2914,-2.2979,-2.2542,-2.2335,-2.2248,-2.1953,-2.1669,-2.1603,-2.1592,-2.1363,-2.0926,-2.0939,-2.0675,-2.0183,-2.0118,-2.0085,-2.0085,-2.0085,-2.0085,-2.0085,-2.0085,-2.0085,-2.0085,-2.0085,-2.0009,-1.9933,-1.9868,-1.9609,-1.9073,-1.8882,-1.8638,-1.8071,-1.7894,-1.7645,-1.714,-1.6966,-1.6832,-1.6461,-1.6321,-1.576,-1.4793,-1.4726,-1.4763,-1.4445,-1.4259,-1.3868,-1.3124,-1.2952,-1.3058,-1.3796,-1.4294,-1.4862,-1.5688,-1.6239,-1.6619,-1.6779,-1.6618,-1.6531,-1.6487,-1.5992,-1.5392,-1.4974,-1.455,-1.4471,-1.4374,-1.4118,-1.4031,-1.4107,-1.4061,-1.4005,-1.3704,-1.3221,-1.2794,-1.2383,-1.2264,-1.2299,-1.2181,-1.2162,-1.2076,-1.1877,-1.1678,-1.1418,-2.8752,-2.832,-2.7758,-2.7469,-2.7469,-2.7469,-2.7469,-2.7469,-2.7469,-2.7469,-2.7469,-2.7469,-2.7469,-2.7469,-2.7469,-2.7469,-2.7469,-2.7469,-2.7469,-2.739,-2.6769,-2.6414,-2.6126,-2.4826,-2.3841,-2.335,-2.3139,-2.3001,-2.3001,-2.3001,-2.3001,-2.3001,-2.3001,-2.3001,-2.299,-2.2859,-2.2783,-2.2772,-2.2641,-2.2422,-2.2127,-2.2095,-2.1854,-2.1428,-2.1363,-2.1275,-2.1123,-2.0434,-2.0107,-2.0096,-2.0085,-2.0085,-2.0085,-2.0085,-2.0085,-2.0085,-2.0085,-2.0074,-1.9944,-1.9823,-1.9649,-1.9293,-1.911,-1.876,-1.8311,-1.8238,-1.8041,-1.7533,-1.7451,-1.7276,-1.6953,-1.6829,-1.6295,-1.5264,-1.5233,-1.5141,-1.4708,-1.4496,-1.4519,-1.4584,-1.4031,-1.4003,-1.4515,-1.4719,-1.4927,-1.5808,-1.6327,-1.6759,-1.7485,-1.735,-1.7063,-1.6908,-1.6319,-1.5867,-1.5355,-1.5004,-1.484,-1.4636,-1.4383,-1.4214,-1.4261,-1.427,-1.4148,-1.3932,-1.345,-1.3062,-1.259,-1.23,-1.2347,-1.2127,-1.2013,-1.1846,-1.1637,-1.1427,-1.1175,-2.9052,-2.8634,-2.785,-2.7469,-2.7469,-2.7469,-2.7469,-2.7469,-2.7469,-2.7469,-2.7469,-2.7469,-2.7469,-2.7469,-2.7469,-2.7469,-2.7469,-2.7469,-2.7469,-2.7469,-2.704,-2.6837,-2.6688,-2.5545,-2.4337,-2.3559,-2.3423,-2.3276,-2.3001,-2.3001,-2.3001,-2.3001,-2.3001,-2.3001,-2.3001,-2.3001,-2.3001,-2.3001,-2.2979,-2.2859,-2.2641,-2.2564,-2.2346,-2.1931,-2.1865,-2.1767,-2.1581,-2.0981,-2.0598,-2.0413,-2.0194,-2.0096,-2.0085,-2.0085,-2.0085,-2.0085,-2.0085,-2.0074,-1.9944,-1.99,-1.9703,-1.9417,-1.9274,-1.9027,-1.8757,-1.864,-1.8444,-1.8071,-1.7968,-1.7792,-1.7348,-1.7234,-1.691,-1.6367,-1.6138,-1.5802,-1.54,-1.5204,-1.5223,-1.5345,-1.5023,-1.5132,-1.5422,-1.5698,-1.5569,-1.6306,-1.6816,-1.7091,-1.791,-1.791,-1.7698,-1.7387,-1.7061,-1.651,-1.5754,-1.5422,-1.5207,-1.4987,-1.47,-1.4557,-1.4548,-1.448,-1.4366,-1.4289,-1.3941,-1.4154,-1.3744,-1.2959,-1.267,-1.2291,-1.1885,-1.1444,-1.1226,-1.1175,-1.1023,-2.9274,-2.9131,-2.802,-2.7469,-2.7469,-2.7469,-2.7469,-2.7469,-2.7469,-2.7469,-2.7469,-2.7469,-2.7469,-2.7469,-2.7469,-2.7469,-2.7469,-2.7469,-2.7469,-2.7469,-2.739,-2.7323,-2.704,-2.6414,-2.5346,-2.4192,-2.3975,-2.3632,-2.3075,-2.3001,-2.3001,-2.3001,-2.3001,-2.3001,-2.3001,-2.3001,-2.3001,-2.3001,-2.3001,-2.2979,-2.2947,-2.2957,-2.2783,-2.2368,-2.2346,-2.2182,-2.1854,-2.1636,-2.133,-2.0882,-2.0435,-2.0172,-2.0096,-2.0085,-2.0085,-2.0085,-2.0085,-2.0085,-2.0085,-1.9955,-1.9758,-1.9539,-1.9351,-1.9218,-1.9079,-1.9027,-1.8837,-1.8475,-1.8413,-1.8247,-1.7874,-1.7761,-1.7657,-1.7595,-1.7174,-1.689,-1.6842,-1.6441,-1.625,-1.6075,-1.5918,-1.6092,-1.6631,-1.699,-1.7137,-1.7395,-1.7792,-1.7958,-1.8162,-1.8307,-1.8442,-1.8263,-1.7978,-1.7262,-1.6587,-1.6215,-1.5957,-1.54,-1.5137,-1.4911,-1.4684,-1.4616,-1.4529,-1.4466,-1.4601,-1.4838,-1.4849,-1.4111,-1.3143,-1.251,-1.1919,-1.1217,-1.0922,-1.093,-1.0871,-2.9274,-2.9144,-2.802,-2.7469,-2.7469,-2.7469,-2.7469,-2.7469,-2.7469,-2.7469,-2.7469,-2.7469,-2.7469,-2.7469,-2.7469,-2.7469,-2.7469,-2.7469,-2.7469,-2.7469,-2.7469,-2.7188,-2.6756,-2.6483,-2.5627,-2.4337,-2.4192,-2.3694,-2.3065,-2.3001,-2.3001,-2.3001,-2.3001,-2.3001,-2.3001,-2.3001,-2.3001,-2.3001,-2.3001,-2.3001,-2.3001,-2.3001,-2.2957,-2.2848,-2.2805,-2.2739,-2.2597,-2.2302,-2.1701,-2.1005,-2.0762,-2.05,-2.0151,-2.0096,-2.0085,-2.0085,-2.0085,-2.0074,-1.9955,-1.99,-1.9703,-1.9407,-1.9274,-1.9142,-1.9131,-1.9131,-1.9069,-1.8889,-1.8878,-1.8692,-1.8319,-1.8206,-1.8081,-1.7781,-1.7667,-1.7513,-1.744,-1.74,-1.7235,-1.7222,-1.7056,-1.7064,-1.7181,-1.7216,-1.735,-1.7726,-1.8073,-1.8317,-1.8519,-1.8942,-1.9131,-1.9304,-1.9052,-1.8187,-1.7523,-1.7073,-1.6578,-1.5938,-1.5526,-1.5313,-1.497,-1.4616,-1.4569,-1.4489,-1.4946,-1.5209,-1.5477,-1.53,-1.4204,-1.3007,-1.2244,-1.1636,-1.1005,-1.0777,-1.0675,-2.9131,-2.883,-2.7915,-2.7469,-2.7469,-2.7469,-2.7469,-2.7469,-2.7469,-2.7469,-2.7469,-2.7469,-2.7469,-2.7469,-2.7469,-2.7469,-2.7469,-2.7469,-2.7469,-2.7469,-2.7469,-2.7255,-2.6973,-2.6837,-2.6057,-2.4779,-2.4564,-2.4009,-2.3213,-2.3001,-2.3001,-2.3001,-2.3001,-2.3001,-2.3001,-2.3001,-2.3001,-2.3001,-2.3001,-2.3001,-2.3001,-2.3001,-2.3001,-2.299,-2.3001,-2.3001,-2.2947,-2.2739,-2.216,-2.1363,-2.0981,-2.0729,-2.0478,-2.0183,-2.0096,-2.0085,-2.0085,-2.0074,-1.9944,-1.9845,-1.9713,-1.9417,-1.9264,-1.9131,-1.9131,-1.9131,-1.9131,-1.9121,-1.9131,-1.893,-1.8754,-1.8671,-1.8557,-1.8392,-1.8299,-1.8206,-1.804,-1.7946,-1.8112,-1.815,-1.8171,-1.8061,-1.8051,-1.789,-1.7862,-1.8027,-1.8345,-1.8519,-1.8721,-1.9351,-1.9747,-1.9814,-1.9672,-1.8805,-1.8169,-1.7704,-1.7098,-1.6403,-1.5989,-1.571,-1.5478,-1.502,-1.4787,-1.4866,-1.5255,-1.5613,-1.5914,-1.592,-1.5069,-1.3968,-1.2984,-1.1956,-1.1272,-1.091,-1.074,-2.8869,-2.8333,-2.7771,-2.7469,-2.7469,-2.7469,-2.7469,-2.7469,-2.7469,-2.7469,-2.7469,-2.7469,-2.7469,-2.7469,-2.7469,-2.7469,-2.7469,-2.7469,-2.7469,-2.7469,-2.7469,-2.739,-2.739,-2.7323,-2.662,-2.5511,-2.537,-2.4432,-2.3497,-2.3139,-2.3001,-2.3001,-2.3001,-2.3001,-2.3001,-2.3001,-2.3001,-2.3001,-2.3001,-2.3001,-2.3001,-2.3001,-2.3001,-2.3001,-2.3001,-2.3001,-2.3001,-2.2914,-2.2586,-2.1778,-2.1275,-2.1103,-2.0882,-2.0424,-2.0151,-2.0096,-2.0085,-2.0074,-2.002,-1.9911,-1.9724,-1.955,-1.9274,-1.9131,-1.9131,-1.9131,-1.9131,-1.9131,-1.9131,-1.9044,-1.9023,-1.9034,-1.8992,-1.8909,-1.8982,-1.8837,-1.8568,-1.8454,-1.862,-1.9048,-1.9054,-1.9131,-1.9131,-1.9065,-1.8865,-1.8452,-1.8654,-1.8721,-1.8931,-1.9274,-1.9692,-1.9878,-1.9651,-1.9342,-1.8779,-1.8333,-1.7562,-1.691,-1.6498,-1.6228,-1.6171,-1.5806,-1.5352,-1.5332,-1.5593,-1.5961,-1.6321,-1.6028,-1.5507,-1.4723,-1.3605,-1.2439,-1.1399,-1.1229,-1.1034,-2.849,-2.8333,-2.7771,-2.7469,-2.7469,-2.7469,-2.7469,-2.7469,-2.7469,-2.7469,-2.7469,-2.7469,-2.7469,-2.7469,-2.7469,-2.7469,-2.7469,-2.7469,-2.7469,-2.7469,-2.7469,-2.7469,-2.7469,-2.7469,-2.6973,-2.6139,-2.5523,-2.4791,-2.3913,-2.3276,-2.3001,-2.3001,-2.3001,-2.3001,-2.3001,-2.3001,-2.3001,-2.3001,-2.3001,-2.3001,-2.3001,-2.3001,-2.3001,-2.3001,-2.3001,-2.3001,-2.3001,-2.3001,-2.2892,-2.2641,-2.2226,-2.1669,-2.109,-2.0784,-2.0533,-2.0194,-2.0096,-2.0074,-1.9955,-1.9834,-1.9658,-1.9428,-1.9208,-1.9131,-1.9131,-1.9131,-1.9131,-1.9131,-1.9131,-1.9131,-1.9131,-1.9131,-1.9131,-1.9131,-1.9065,-1.9034,-1.894,-1.8909,-1.8951,-1.909,-1.9131,-1.9131,-1.9131,-1.9142,-1.8998,-1.8865,-1.8931,-1.8998,-1.9142,-1.9341,-1.955,-1.9823,-1.9879,-1.9561,-1.8818,-1.8348,-1.7763,-1.728,-1.6981,-1.6984,-1.6859,-1.6457,-1.6016,-1.5813,-1.5861,-1.6259,-1.6681,-1.6431,-1.5895,-1.5077,-1.4229,-1.3168,-1.2234,-1.1841,-1.1179,-2.8229,-2.7954,-2.7654,-2.7469,-2.7469,-2.7469,-2.7469,-2.7469,-2.7469,-2.7469,-2.7469,-2.7469,-2.7469,-2.7469,-2.7469,-2.7469,-2.7469,-2.7469,-2.7469,-2.7469,-2.7469,-2.7469,-2.7469,-2.7456,-2.7108,-2.6427,-2.5664,-2.4862,-2.4131,-2.3423,-2.3001,-2.3001,-2.3001,-2.3001,-2.3001,-2.3001,-2.3001,-2.3001,-2.3001,-2.3001,-2.3001,-2.3001,-2.3001,-2.3001,-2.3001,-2.3001,-2.3001,-2.3001,-2.3001,-2.2936,-2.275,-2.2324,-2.1581,-2.1112,-2.074,-2.0533,-2.0172,-2.0031,-1.9944,-1.9834,-1.9647,-1.9351,-1.9208,-1.9131,-1.9131,-1.9131,-1.9131,-1.9131,-1.9131,-1.9131,-1.9131,-1.9131,-1.9131,-1.9131,-1.9131,-1.9131,-1.9131,-1.9131,-1.9131,-1.9131,-1.9131,-1.9131,-1.9131,-1.9142,-1.9208,-1.9075,-1.9075,-1.9208,-1.9341,-1.9473,-1.9507,-1.9715,-1.9944,-1.9683,-1.8873,-1.8294,-1.7868,-1.7538,-1.7351,-1.7586,-1.7798,-1.7248,-1.6637,-1.6534,-1.6441,-1.669,-1.6945,-1.6637,-1.6249,-1.5469,-1.4656,-1.3811,-1.296,-1.2209,-1.1391,-2.7968,-2.7469,-2.7469,-2.7469,-2.7469,-2.7469,-2.7469,-2.7469,-2.7469,-2.7469,-2.7469,-2.7469,-2.7469,-2.7469,-2.7469,-2.7469,-2.7469,-2.7469,-2.7469,-2.7469,-2.7469,-2.7469,-2.7469,-2.7456,-2.7242,-2.6552,-2.5861,-2.5134,-2.4564,-2.3632,-2.335,-2.3213,-2.3001,-2.3001,-2.3001,-2.3001,-2.3001,-2.3001,-2.3001,-2.3001,-2.3001,-2.3001,-2.3001,-2.3001,-2.3001,-2.3001,-2.3001,-2.3001,-2.3001,-2.3001,-2.3001,-2.2794,-2.2324,-2.1559,-2.0961,-2.0928,-2.0336,-2.0031,-1.9878,-1.9768,-1.9581,-1.9274,-1.9131,-1.9131,-1.9131,-1.9131,-1.9131,-1.9131,-1.9131,-1.9131,-1.9131,-1.9131,-1.9131,-1.9131,-1.9131,-1.9131,-1.9131,-1.9131,-1.9142,-1.9131,-1.9131,-1.9131,-1.9142,-1.9208,-1.9285,-1.9351,-1.9351,-1.9351,-1.955,-1.9605,-1.9639,-1.9694,-1.9922,-1.9868,-1.9135,-1.8556,-1.8097,-1.7977,-1.7781,-1.7988,-1.8359,-1.7839,-1.7209,-1.717,-1.718,-1.7205,-1.7151,-1.6896,-1.6461,-1.583,-1.5365,-1.4775,-1.3791,-1.26,-1.1754,-2.7615,-2.7469,-2.7469,-2.7469,-2.7469,-2.7469,-2.7469,-2.7469,-2.7469,-2.7469,-2.7469,-2.7469,-2.7469,-2.7469,-2.7469,-2.7469,-2.7469,-2.7469,-2.7469,-2.7469,-2.7469,-2.7469,-2.7469,-2.7469,-2.739,-2.7188,-2.6564,-2.6057,-2.5557,-2.4696,-2.3913,-2.3768,-2.335,-2.3065,-2.3065,-2.3001,-2.3139,-2.3287,-2.3287,-2.3224,-2.3139,-2.3139,-2.3139,-2.3139,-2.3139,-2.3075,-2.3001,-2.3001,-2.3001,-2.3001,-2.3001,-2.2947,-2.2684,-2.1953,-2.1341,-2.0915,-2.0412,-2.0019,-1.9878,-1.9626,-1.9428,-1.9285,-1.9208,-1.9131,-1.9131,-1.9131,-1.9131,-1.9131,-1.9131,-1.9131,-1.9131,-1.9131,-1.9131,-1.9131,-1.9131,-1.9131,-1.9142,-1.9208,-1.9208,-1.9198,-1.9131,-1.9131,-1.9274,-1.9341,-1.9407,-1.9473,-1.9483,-1.955,-1.9681,-1.9736,-1.9781,-1.9846,-1.9911,-1.9705,-1.9408,-1.8927,-1.8501,-1.8512,-1.8381,-1.8217,-1.837,-1.8108,-1.7821,-1.7611,-1.7326,-1.722,-1.7121,-1.7054,-1.6807,-1.6301,-1.6064,-1.5874,-1.4574,-1.3322,-1.2502,-2.7469,-2.7469,-2.7469,-2.7469,-2.7469,-2.7469,-2.7469,-2.7469,-2.7469,-2.7469,-2.7469,-2.7469,-2.7469,-2.7469,-2.7469,-2.7469,-2.7469,-2.7469,-2.7469,-2.7469,-2.7469,-2.7469,-2.7469,-2.7469,-2.7469,-2.739,-2.7121,-2.6701,-2.6346,-2.5288,-2.4552,-2.4047,-2.3694,-2.3559,-2.3559,-2.3632,-2.3779,-2.4009,-2.4166,-2.3936,-2.3632,-2.3559,-2.3559,-2.3559,-2.3559,-2.335,-2.3075,-2.3001,-2.3001,-2.3001,-2.3001,-2.3001,-2.2805,-2.239,-2.1745,-2.1265,-2.0706,-2.0171,-1.9866,-1.9626,-1.9505,-1.9208,-1.9131,-1.9131,-1.9131,-1.9131,-1.9131,-1.9131,-1.9131,-1.9131,-1.9131,-1.9131,-1.9131,-1.9131,-1.9131,-1.9131,-1.9208,-1.9285,-1.9285,-1.9341,-1.9396,-1.9407,-1.9483,-1.955,-1.9605,-1.9671,-1.9605,-1.9671,-1.9813,-1.9868,-1.9857,-1.9879,-1.9912,-1.9694,-1.955,-1.9233,-1.8993,-1.9015,-1.8927,-1.8763,-1.8523,-1.8316,-1.8039,-1.7785,-1.7535,-1.7244,-1.7222,-1.7177,-1.6998,-1.6818,-1.6497,-1.6038,-1.5083,-1.4076,-1.323,-2.7469,-2.7469,-2.7469,-2.7469,-2.7469,-2.7469,-2.7469,-2.7469,-2.7469,-2.7469,-2.7469,-2.7469,-2.7469,-2.7469,-2.7469,-2.7469,-2.7469,-2.7469,-2.7469,-2.7469,-2.7469,-2.7469,-2.7469,-2.7469,-2.7469,-2.7469,-2.7456,-2.7188,-2.6701,-2.5931,-2.5217,-2.4838,-2.4552,-2.4337,-2.4348,-2.4348,-2.4791,-2.5087,-2.5312,-2.4933,-2.448,-2.4337,-2.4337,-2.4337,-2.4337,-2.4059,-2.3717,-2.3644,-2.3497,-2.335,-2.3276,-2.3213,-2.2936,-2.2652,-2.2237,-2.1745,-2.1199,-2.0495,-2.0092,-1.9647,-1.9505,-1.9208,-1.9131,-1.9131,-1.9131,-1.9131,-1.9131,-1.9131,-1.9131,-1.9131,-1.9131,-1.9131,-1.9131,-1.9131,-1.9131,-1.9131,-1.9274,-1.9341,-1.9483,-1.9539,-1.9671,-1.9671,-1.9681,-1.9615,-1.9671,-1.9802,-1.9802,-1.9878,-1.9944,-1.9944,-1.9987,-1.9912,-1.9889,-1.9726,-1.9552,-1.9517,-1.9419,-1.9539,-1.9386,-1.92,-1.8895,-1.86,-1.8246,-1.7875,-1.7527,-1.7278,-1.7289,-1.7289,-1.711,-1.6931,-1.6751,-1.6342,-1.566,-1.4779,-1.3825,-2.7469,-2.7469,-2.7469,-2.7469,-2.7469,-2.7469,-2.7469,-2.7469,-2.7469,-2.7469,-2.7469,-2.7469,-2.7469,-2.7469,-2.7469,-2.7469,-2.7469,-2.7469,-2.7469,-2.7469,-2.7469,-2.7469,-2.7469,-2.7469,-2.7469,-2.7469,-2.7469,-2.7469,-2.7121,-2.6552,-2.6208,-2.5918,-2.5358,-2.5158,-2.5146,-2.5146,-2.5229,-2.5312,-2.5382,-2.5312,-2.5229,-2.5229,-2.5158,-2.5158,-2.5158,-2.5016,-2.4802,-2.4659,-2.4504,-2.3913,-2.3913,-2.3632,-2.3128,-2.2979,-2.2684,-2.2056,-2.1322,-2.0568,-2.0361,-1.9903,-1.9459,-1.9295,-1.9142,-1.9131,-1.9131,-1.9131,-1.9131,-1.9131,-1.9131,-1.9131,-1.9131,-1.9131,-1.9131,-1.9131,-1.9142,-1.9208,-1.9274,-1.9539,-1.9671,-1.9747,-1.9878,-1.9878,-1.9878,-1.9747,-1.9681,-1.9868,-1.9998,-2.0009,-2.0085,-2.0009,-2.0009,-2.002,-1.9987,-1.9846,-1.977,-1.9714,-1.9736,-1.9921,-1.979,-1.9561,-1.9146,-1.8731,-1.8196,-1.7824,-1.7497,-1.7289,-1.7289,-1.7278,-1.7155,-1.7032,-1.6864,-1.6751,-1.6539,-1.5523,-1.4408,-2.7469,-2.7469,-2.7469,-2.7469,-2.7469,-2.7469,-2.7469,-2.7469,-2.7469,-2.7469,-2.7469,-2.7469,-2.7469,-2.7469,-2.7469,-2.7469,-2.7469,-2.7469,-2.7469,-2.7469,-2.7469,-2.7469,-2.7469,-2.7469,-2.7469,-2.7469,-2.7469,-2.7469,-2.7323,-2.7175,-2.6905,-2.6414,-2.6139,-2.5918,-2.5931,-2.5931,-2.6208,-2.6346,-2.6208,-2.6139,-2.6346,-2.6151,-2.5943,-2.5931,-2.5931,-2.5734,-2.5453,-2.5312,-2.4933,-2.4264,-2.412,-2.3768,-2.3213,-2.299,-2.2881,-2.2706,-2.2012,-2.1322,-2.0654,-2.0126,-1.9702,-1.9327,-1.9218,-1.9131,-1.9131,-1.9131,-1.9131,-1.9131,-1.9131,-1.9142,-1.9152,-1.9131,-1.9142,-1.9229,-1.9354,-1.947,-1.9603,-1.9671,-1.9802,-1.9944,-2.002,-2.0009,-2.0009,-1.9944,-1.9878,-1.9944,-2.0074,-2.0085,-2.0085,-2.0085,-2.0085,-2.0074,-2.0064,-2.0031,-2.0009,-1.9944,-1.9954,-1.9987,-1.9998,-1.9768,-1.9299,-1.8829,-1.8305,-1.7857,-1.7529,-1.7387,-1.7311,-1.7278,-1.7211,-1.7088,-1.6965,-1.6853,-1.6652,-1.5782,-1.4566,-2.7469,-2.7469,-2.7469,-2.7469,-2.7469,-2.7469,-2.7469,-2.7469,-2.7469,-2.7469,-2.7469,-2.7469,-2.7469,-2.7469,-2.7469,-2.7469,-2.7469,-2.7469,-2.7469,-2.7469,-2.7469,-2.7469,-2.7469,-2.7469,-2.7469,-2.7469,-2.7469,-2.7469,-2.7469,-2.739,-2.7121,-2.6701,-2.6701,-2.6701,-2.6701,-2.6701,-2.6905,-2.7175,-2.6905,-2.6973,-2.7188,-2.6905,-2.6701,-2.6688,-2.6633,-2.6427,-2.5943,-2.5931,-2.5557,-2.4981,-2.4552,-2.4204,-2.3486,-2.3139,-2.299,-2.2881,-2.2459,-2.2023,-2.1307,-2.07,-2.0154,-1.9712,-1.9295,-1.9131,-1.9131,-1.9131,-1.9131,-1.9131,-1.9131,-1.9183,-1.9277,-1.9396,-1.9609,-1.976,-1.987,-1.9924,-2.0017,-2.0137,-2.0095,-2.0009,-2.0085,-2.0085,-2.0085,-2.0085,-2.0085,-2.0085,-2.0085,-2.0085,-2.0085,-2.0085,-2.0085,-2.0085,-2.0085,-2.0085,-2.0085,-2.0085,-2.0085,-2.0085,-2.0085,-1.9878,-1.9452,-1.8971,-1.8469,-1.8043,-1.7617,-1.7398,-1.7278,-1.7278,-1.7267,-1.7155,-1.7088,-1.6909,-1.6567,-1.5786,-1.4894,-2.7469,-2.7469,-2.7469,-2.7469,-2.7469,-2.7469,-2.7469,-2.7469,-2.7469,-2.7469,-2.7469,-2.7469,-2.7469,-2.7469,-2.7469,-2.7469,-2.7469,-2.7469,-2.7469,-2.7469,-2.7469,-2.7469,-2.7469,-2.7469,-2.7469,-2.7469,-2.7469,-2.7469,-2.7469,-2.7469,-2.7469,-2.7403,-2.7255,-2.7335,-2.7323,-2.7255,-2.7255,-2.7456,-2.7323,-2.7323,-2.7469,-2.739,-2.7323,-2.7323,-2.739,-2.739,-2.7323,-2.7175,-2.662,-2.5849,-2.5288,-2.4504,-2.3779,-2.3287,-2.3001,-2.2957,-2.2925,-2.2553,-2.2006,-2.1501,-2.0919,-2.0443,-1.9868,-1.9337,-1.9274,-1.9142,-1.9142,-1.9152,-1.9271,-1.9525,-1.9802,-2.0081,-2.0265,-2.044,-2.052,-2.0582,-2.0611,-2.0557,-2.0474,-2.0227,-2.0129,-2.026,-2.0085,-2.0085,-2.0085,-2.0085,-2.0085,-2.0085,-2.0085,-2.0085,-2.0085,-2.0085,-2.0085,-2.0085,-2.0085,-2.0085,-2.0085,-2.0085,-2.0085,-1.9868,-1.9508,-1.9091,-1.8545,-1.8163,-1.7748,-1.7497,-1.7278,-1.7278,-1.7278,-1.7278,-1.7155,-1.7032,-1.6736,-1.6106,-1.5294,-2.7469,-2.7469,-2.7469,-2.7469,-2.7469,-2.7469,-2.7469,-2.7469,-2.7469,-2.7469,-2.7469,-2.7469,-2.7469,-2.7469,-2.7469,-2.7469,-2.7469,-2.7469,-2.7469,-2.7469,-2.7469,-2.7469,-2.7469,-2.7469,-2.7469,-2.7469,-2.7469,-2.7469,-2.7469,-2.7469,-2.7469,-2.7469,-2.7469,-2.7469,-2.7469,-2.7469,-2.7469,-2.7469,-2.7469,-2.7469,-2.7469,-2.7469,-2.7469,-2.7469,-2.7469,-2.7469,-2.7469,-2.7469,-2.6769,-2.6,-2.5511,-2.4719,-2.379,-2.3298,-2.3075,-2.3001,-2.3001,-2.2892,-2.2802,-2.2313,-2.1832,-2.0715,-2.0236,-1.9822,-1.9621,-1.9449,-1.9417,-1.947,-1.9702,-1.9975,-2.0128,-2.0482,-2.0796,-2.1086,-2.121,-2.1247,-2.1209,-2.1192,-2.0953,-2.0729,-2.0555,-2.05,-2.0336,-2.0085,-2.0085,-2.0085,-2.0085,-2.0085,-2.0085,-2.0085,-2.0085,-2.0151,-2.0151,-2.0151,-2.0085,-2.0085,-2.0151,-2.0085,-2.0085,-1.9976,-1.9703,-1.908,-1.8578,-1.8206,-1.7846,-1.7508,-1.7311,-1.7289,-1.7278,-1.7278,-1.7222,-1.7099,-1.6738,-1.6314,-1.567,-2.7776,-2.7776,-2.7577,-2.7469,-2.7469,-2.7469,-2.7469,-2.7469,-2.7469,-2.7469,-2.7469,-2.7469,-2.7469,-2.7469,-2.7469,-2.7469,-2.7469,-2.7469,-2.7469,-2.7469,-2.7469,-2.7469,-2.7469,-2.7469,-2.7469,-2.7469,-2.7469,-2.7469,-2.7469,-2.7469,-2.7469,-2.7469,-2.7469,-2.7469,-2.7469,-2.7469,-2.7469,-2.7469,-2.7469,-2.7469,-2.7469,-2.7469,-2.7469,-2.7469,-2.7469,-2.7469,-2.7469,-2.7469,-2.7121,-2.6277,-2.5581,-2.4802,-2.4009,-2.3298,-2.3075,-2.3001,-2.3001,-2.3001,-2.2999,-2.2765,-2.2325,-2.1431,-2.0855,-2.046,-2.0194,-2.0087,-2.008,-2.0058,-2.0371,-2.0552,-2.0717,-2.1182,-2.1575,-2.1912,-2.1988,-2.2017,-2.186,-2.1718,-2.1494,-2.1177,-2.1046,-2.0904,-2.0533,-2.0325,-2.0129,-2.0118,-2.0085,-2.0085,-2.0085,-2.0085,-2.0085,-2.0151,-2.027,-2.0205,-2.014,-2.0399,-2.0529,-2.0151,-2.0151,-2.0205,-1.9887,-1.9222,-1.8753,-1.8469,-1.8065,-1.7483,-1.7333,-1.73,-1.7289,-1.7278,-1.7211,-1.7088,-1.6933,-1.6573,-1.6119,-2.8481,-2.8417,-2.7842,-2.759,-2.7656,-2.7523,-2.7469,-2.7469,-2.7469,-2.7469,-2.7469,-2.7469,-2.7469,-2.7469,-2.7469,-2.7469,-2.7469,-2.7469,-2.7469,-2.7469,-2.7469,-2.7469,-2.7469,-2.7469,-2.7469,-2.7469,-2.7469,-2.7469,-2.7469,-2.7469,-2.7469,-2.7469,-2.7469,-2.7469,-2.7469,-2.7469,-2.7469,-2.7469,-2.7469,-2.7469,-2.7469,-2.7469,-2.7469,-2.7469,-2.7469,-2.7469,-2.7469,-2.7469,-2.7255,-2.6837,-2.5931,-2.5229,-2.4731,-2.3644,-2.3139,-2.3001,-2.3001,-2.3001,-2.2968,-2.2575,-2.2313,-2.2034,-2.1512,-2.1215,-2.1134,-2.1021,-2.0845,-2.0775,-2.0973,-2.1311,-2.1629,-2.1959,-2.2342,-2.2546,-2.2611,-2.2578,-2.24,-2.228,-2.2007,-2.1701,-2.157,-2.1396,-2.0915,-2.0533,-2.0303,-2.0151,-2.0107,-2.0085,-2.0085,-2.0151,-2.0151,-2.027,-2.0388,-2.0464,-2.0529,-2.0839,-2.0903,-2.0464,-2.0205,-2.027,-2.0062,-1.955,-1.9124,-1.8785,-1.8099,-1.741,-1.7318,-1.73,-1.7289,-1.7278,-1.7145,-1.7067,-1.6955,-1.6845,-1.6454,-2.9142,-2.9142,-2.8889,-2.8826,-2.8698,-2.7829,-2.7469,-2.7469,-2.7469,-2.7469,-2.7469,-2.7469,-2.7469,-2.7469,-2.7469,-2.7469,-2.7469,-2.7469,-2.7469,-2.7469,-2.7469,-2.7469,-2.7469,-2.7469,-2.7469,-2.7469,-2.7469,-2.7469,-2.7469,-2.7469,-2.7469,-2.7469,-2.7469,-2.7469,-2.7469,-2.7469,-2.7469,-2.7469,-2.7469,-2.7469,-2.7469,-2.7469,-2.7469,-2.7469,-2.7469,-2.7469,-2.7469,-2.7469,-2.7323,-2.6973,-2.6139,-2.5639,-2.4921,-2.3841,-2.3486,-2.3139,-2.3001,-2.3001,-2.299,-2.2805,-2.263,-2.2317,-2.2132,-2.18,-2.1528,-2.1452,-2.1431,-2.148,-2.1718,-2.1995,-2.2114,-2.2524,-2.2752,-2.287,-2.2903,-2.2892,-2.2772,-2.2761,-2.2608,-2.2258,-2.204,-2.1832,-2.1461,-2.1013,-2.0729,-2.0533,-2.05,-2.0172,-2.0096,-2.0151,-2.0151,-2.0399,-2.0582,-2.0711,-2.0914,-2.1233,-2.1158,-2.0711,-2.0453,-2.0399,-2.0136,-1.9799,-1.9473,-1.9113,-1.8175,-1.7355,-1.7402,-1.7398,-1.7311,-1.7278,-1.72,-1.7078,-1.7011,-1.6955,-1.6834,-2.9997,-2.9997,-2.969,-2.9628,-2.9393,-2.8338,-2.7723,-2.7536,-2.7469,-2.7469,-2.7469,-2.7469,-2.7469,-2.7469,-2.7469,-2.7469,-2.7469,-2.7469,-2.7469,-2.7469,-2.7469,-2.7469,-2.7469,-2.7469,-2.7469,-2.7469,-2.7469,-2.7469,-2.7469,-2.7469,-2.7469,-2.7469,-2.7469,-2.7469,-2.7469,-2.7469,-2.7469,-2.7469,-2.7469,-2.7469,-2.7469,-2.7469,-2.7469,-2.7469,-2.7469,-2.7469,-2.7469,-2.739,-2.731,-2.6837,-2.6402,-2.5975,-2.5052,-2.4337,-2.3975,-2.3486,-2.3065,-2.3065,-2.299,-2.299,-2.2805,-2.263,-2.2553,-2.24,-2.2138,-2.2182,-2.216,-2.2248,-2.239,-2.2466,-2.2608,-2.2947,-2.2957,-2.3001,-2.299,-2.2979,-2.2979,-2.2947,-2.2914,-2.2597,-2.2477,-2.2258,-2.2029,-2.1581,-2.1199,-2.1013,-2.0839,-2.0511,-2.0183,-2.0216,-2.0324,-2.0506,-2.0828,-2.1031,-2.1221,-2.1486,-2.1285,-2.0903,-2.0775,-2.0646,-2.0344,-2.005,-1.9745,-1.9493,-1.8962,-1.839,-1.7759,-1.7508,-1.7355,-1.7278,-1.7278,-1.72,-1.7134,-1.7078,-1.7022,-3.1043,-3.0911,-3.0194,-2.9936,-2.9766,-2.8967,-2.8157,-2.7536,-2.7536,-2.7536,-2.7536,-2.7536,-2.7469,-2.7469,-2.7469,-2.7469,-2.7469,-2.7469,-2.7469,-2.7469,-2.7469,-2.7469,-2.7469,-2.7469,-2.7469,-2.7469,-2.7469,-2.7469,-2.7469,-2.7469,-2.7469,-2.7469,-2.7469,-2.7469,-2.7469,-2.7469,-2.7469,-2.7469,-2.7469,-2.7469,-2.7469,-2.7469,-2.7469,-2.7469,-2.7469,-2.7469,-2.7469,-2.7469,-2.7456,-2.7188,-2.6824,-2.6552,-2.5906,-2.4898,-2.4397,-2.3829,-2.3276,-2.3065,-2.3001,-2.3001,-2.299,-2.287,-2.2914,-2.2947,-2.2881,-2.2728,-2.2684,-2.2706,-2.2805,-2.2881,-2.299,-2.299,-2.299,-2.3001,-2.3001,-2.3001,-2.3001,-2.299,-2.299,-2.2903,-2.2881,-2.275,-2.2597,-2.2215,-2.1695,-2.1352,-2.1068,-2.0621,-2.0402,-2.0388,-2.0506,-2.0677,-2.0996,-2.14,-2.16,-2.18,-2.16,-2.121,-2.1158,-2.1083,-2.0677,-2.0333,-2.0081,-1.9879,-1.9845,-1.925,-1.7986,-1.742,-1.7322,-1.7278,-1.7278,-1.7278,-1.7211,-1.7211,-1.7211,-3.1739,-3.1682,-3.1437,-3.1379,-3.119,-2.995,-2.8853,-2.8,-2.7789,-2.7709,-2.7723,-2.759,-2.7536,-2.7469,-2.7469,-2.7469,-2.7469,-2.7469,-2.7469,-2.7469,-2.7469,-2.7469,-2.7469,-2.7469,-2.7469,-2.7469,-2.7469,-2.7469,-2.7469,-2.7469,-2.7469,-2.7469,-2.7469,-2.7469,-2.7469,-2.7469,-2.7469,-2.7469,-2.7469,-2.7469,-2.7469,-2.7469,-2.7469,-2.7469,-2.7469,-2.7469,-2.7469,-2.7469,-2.7469,-2.739,-2.7323,-2.704,-2.6277,-2.5429,-2.4719,-2.3423,-2.3075,-2.3001,-2.3001,-2.3001,-2.3075,-2.3139,-2.3075,-2.3001,-2.299,-2.3001,-2.3001,-2.3001,-2.3001,-2.3001,-2.3001,-2.3001,-2.3001,-2.3001,-2.3001,-2.3001,-2.3001,-2.3001,-2.3001,-2.3001,-2.3001,-2.3054,-2.2944,-2.267,-2.2111,-2.1793,-2.1399,-2.0962,-2.0643,-2.0705,-2.0741,-2.0921,-2.1262,-2.1663,-2.1862,-2.2061,-2.1862,-2.1663,-2.1537,-2.1411,-2.1083,-2.073,-2.0482,-2.0117,-1.975,-1.8814,-1.7632,-1.7367,-1.7278,-1.7278,-1.7278,-1.7278,-1.7278,-1.7278,-1.7278,-3.215,-3.2135,-3.2094,-3.1811,-3.1146,-3.0086,-2.9044,-2.8249,-2.7868,-2.7723,-2.7789,-2.759,-2.7469,-2.7469,-2.7469,-2.7469,-2.7469,-2.7469,-2.7469,-2.7469,-2.7469,-2.7469,-2.7469,-2.7469,-2.7469,-2.7469,-2.7469,-2.7469,-2.7469,-2.7469,-2.7469,-2.7469,-2.7469,-2.7469,-2.7469,-2.7469,-2.7469,-2.7469,-2.7469,-2.7469,-2.7469,-2.7469,-2.7469,-2.7469,-2.7469,-2.7469,-2.7469,-2.7469,-2.7469,-2.7469,-2.7469,-2.7323,-2.6769,-2.6139,-2.53,-2.4215,-2.4082,-2.4082,-2.4082,-2.4009,-2.379,-2.3497,-2.3423,-2.3287,-2.3065,-2.3001,-2.3001,-2.3001,-2.3001,-2.3001,-2.3001,-2.3001,-2.3001,-2.3001,-2.3001,-2.3001,-2.3001,-2.3001,-2.3001,-2.3012,-2.3075,-2.3075,-2.3018,-2.282,-2.2666,-2.2457,-2.2176,-2.1818,-2.1341,-2.1057,-2.1099,-2.1152,-2.1577,-2.1987,-2.2123,-2.2197,-2.2061,-2.1851,-2.1714,-2.1526,-2.1348,-2.0962,-2.0542,-1.9972,-1.9432,-1.8493,-1.7518,-1.7344,-1.7278,-1.7278,-1.7278,-1.7278,-1.7278,-1.7278,-1.7278,-3.2398,-3.2398,-3.2231,-3.1537,-3.0433,-2.9794,-2.9156,-2.8403,-2.7973,-2.7656,-2.7776,-2.7577,-2.7536,-2.7536,-2.7536,-2.7523,-2.7523,-2.7469,-2.7469,-2.7536,-2.7469,-2.7469,-2.7469,-2.7469,-2.7469,-2.7469,-2.7469,-2.7469,-2.7469,-2.7469,-2.7469,-2.7469,-2.7469,-2.7469,-2.7469,-2.7469,-2.7469,-2.7469,-2.7469,-2.7469,-2.7469,-2.7469,-2.7469,-2.7469,-2.7469,-2.7469,-2.7469,-2.7469,-2.7469,-2.7469,-2.7469,-2.7469,-2.704,-2.6688,-2.5918,-2.537,-2.4957,-2.4957,-2.4874,-2.4874,-2.4659,-2.4348,-2.412,-2.3768,-2.3423,-2.3065,-2.3001,-2.3001,-2.3001,-2.3001,-2.3001,-2.3001,-2.3001,-2.3001,-2.3001,-2.3001,-2.3001,-2.3075,-2.3224,-2.3298,-2.3457,-2.3446,-2.3276,-2.315,-2.3139,-2.2955,-2.2867,-2.2565,-2.2275,-2.1789,-2.144,-2.1451,-2.1765,-2.2061,-2.2123,-2.2197,-2.2197,-2.2061,-2.1913,-2.1788,-2.1737,-2.1169,-2.0527,-2.0053,-1.9499,-1.8474,-1.769,-1.7538,-1.7431,-1.7278,-1.7278,-1.7278,-1.7278,-1.7278,-1.7278,-3.2398,-3.2398,-3.2342,-3.1879,-3.1175,-3.0911,-3.0421,-2.9903,-2.8917,-2.8222,-2.7842,-2.7723,-2.7656,-2.7603,-2.7669,-2.7656,-2.7523,-2.7603,-2.7536,-2.7536,-2.7536,-2.7603,-2.7536,-2.7603,-2.7536,-2.7469,-2.7469,-2.7536,-2.7536,-2.7536,-2.7536,-2.7536,-2.7536,-2.7536,-2.7469,-2.7469,-2.7469,-2.7469,-2.7469,-2.7469,-2.7469,-2.7469,-2.7469,-2.7469,-2.7469,-2.7469,-2.7469,-2.7469,-2.7469,-2.7469,-2.7469,-2.7188,-2.6701,-2.6483,-2.607,-2.5453,-2.5453,-2.5523,-2.5523,-2.5594,-2.537,-2.5004,-2.4624,-2.4192,-2.3768,-2.3276,-2.3001,-2.3075,-2.3001,-2.3001,-2.3001,-2.3001,-2.3001,-2.3001,-2.3075,-2.3075,-2.3075,-2.3298,-2.3446,-2.3593,-2.3824,-2.3824,-2.3593,-2.3588,-2.3503,-2.3406,-2.3367,-2.3271,-2.3206,-2.2858,-2.1882,-2.1804,-2.1925,-2.2111,-2.2185,-2.2197,-2.2197,-2.2197,-2.2061,-2.2061,-2.2061,-2.1404,-2.0785,-2.0198,-1.9525,-1.8753,-1.8163,-1.7806,-1.7679,-1.7508,-1.7376,-1.7409,-1.7311,-1.7278,-1.7278,-3.152,-3.1497,-3.1555,-3.1384,-3.1091,-3.0895,-3.0674,-3.03,-2.969,-2.9016,-2.8325,-2.7973,-2.7789,-2.7749,-2.7868,-2.7868,-2.7736,-2.7802,-2.7802,-2.7802,-2.7736,-2.7802,-2.7815,-2.7749,-2.7802,-2.7736,-2.7656,-2.7656,-2.7723,-2.7656,-2.7656,-2.7656,-2.7656,-2.7603,-2.7536,-2.7536,-2.7536,-2.7469,-2.7536,-2.7469,-2.7469,-2.7469,-2.7469,-2.7469,-2.7469,-2.7469,-2.7469,-2.7469,-2.7469,-2.7469,-2.7469,-2.739,-2.7108,-2.6973,-2.6769,-2.6496,-2.6346,-2.6289,-2.6208,-2.6208,-2.607,-2.5767,-2.5615,-2.5392,-2.4826,-2.4337,-2.3497,-2.3423,-2.3075,-2.3001,-2.3001,-2.3001,-2.3001,-2.3001,-2.3224,-2.3372,-2.3666,-2.397,-2.397,-2.3897,-2.4127,-2.4261,-2.4116,-2.4189,-2.4135,-2.4039,-2.393,-2.4235,-2.4145,-2.412,-2.3128,-2.2234,-2.2378,-2.2296,-2.2185,-2.2197,-2.2197,-2.2197,-2.2197,-2.2061,-2.1862,-2.1474,-2.0991,-2.0317,-1.9787,-1.9371,-1.883,-1.8484,-1.8006,-1.7802,-1.766,-1.7573,-1.7431,-1.7334,-1.7445,-3.0366,-3.04,-3.0492,-3.0498,-3.0518,-3.0483,-3.044,-3.0366,-3.0216,-2.9836,-2.9142,-2.8403,-2.8118,-2.8079,-2.8145,-2.8145,-2.8079,-2.8013,-2.8013,-2.8079,-2.8079,-2.8013,-2.8013,-2.8079,-2.8013,-2.8013,-2.7934,-2.7934,-2.8013,-2.7934,-2.7855,-2.7855,-2.7789,-2.7736,-2.7603,-2.7536,-2.759,-2.759,-2.7536,-2.7536,-2.7469,-2.7469,-2.7469,-2.7469,-2.7469,-2.7469,-2.7469,-2.7469,-2.7469,-2.7469,-2.7536,-2.7456,-2.7456,-2.7377,-2.7456,-2.7242,-2.7323,-2.7323,-2.739,-2.731,-2.7162,-2.6947,-2.6879,-2.6458,-2.5894,-2.5264,-2.442,-2.3925,-2.357,-2.3224,-2.3224,-2.315,-2.315,-2.3298,-2.3593,-2.374,-2.4116,-2.449,-2.4418,-2.4273,-2.4478,-2.4622,-2.4766,-2.4778,-2.4838,-2.4754,-2.4921,-2.5172,-2.5358,-2.5385,-2.4935,-2.3739,-2.307,-2.2849,-2.2308,-2.2197,-2.2259,-2.2197,-2.2135,-2.1937,-2.1737,-2.1411,-2.0928,-2.0299,-1.982,-1.9647,-1.9448,-1.9122,-1.8687,-1.813,-1.7994,-1.7864,-1.7623,-1.7557,-1.7601,-2.9935,-3.0376,-3.0394,-3.0402,-3.0402,-3.0434,-3.0684,-3.1,-3.0446,-3.0178,-2.9958,-2.9345,-2.8753,-2.8145,-2.8249,-2.8249,-2.821,-2.8145,-2.8145,-2.8079,-2.8145,-2.8145,-2.8145,-2.821,-2.8145,-2.8079,-2.8066,-2.8079,-2.821,-2.8079,-2.8,-2.8,-2.8,-2.8013,-2.7934,-2.7868,-2.7723,-2.7656,-2.759,-2.7469,-2.7469,-2.7469,-2.7469,-2.7469,-2.7469,-2.7469,-2.7469,-2.7469,-2.7469,-2.7469,-2.7536,-2.7669,-2.7723,-2.7723,-2.7723,-2.7736,-2.7802,-2.7802,-2.7802,-2.7868,-2.7656,-2.7643,-2.743,-2.7002,-2.6514,-2.6171,-2.5545,-2.5264,-2.4767,-2.402,-2.3813,-2.3666,-2.3666,-2.3886,-2.4177,-2.4177,-2.4334,-2.4634,-2.4778,-2.4838,-2.4969,-2.5241,-2.5441,-2.5581,-2.5873,-2.5931,-2.6195,-2.6473,-2.6678,-2.6673,-2.6466,-2.5396,-2.4066,-2.2897,-2.2209,-2.2321,-2.2309,-2.2259,-2.2185,-2.2049,-2.18,-2.1348,-2.0905,-2.0452,-2.0198,-1.9962,-1.9816,-1.9636,-1.9089,-1.8577,-1.8389,-1.8203,-1.7891,-1.7711,-1.7877]},{"header":{"parameterUnit":"m.s-1","parameterCategory":1,"la1":31.0,"la2":29.5877,"lo1":-88.7671,"lo2":-86.6584,"dy":0.0162,"dx":0.0185,"nx":115,"ny":88,"refTime":"2023-07-01T00:00:00:Z","depth":0,"parameterNumber":3,"parameterNumberName":"V-component_of_WINDS"},"data":[0.0,0.0,0.0,0.0,0.0,0.0,0.0,0.0,0.0,0.0,0.0,0.0,0.0,0.0,0.0,0.0,0.0,0.0,0.0,0.0,0.0,0.0,0.0,0.0,0.0,0.0,0.0,0.0,0.0,0.0,0.0,0.0,0.0,0.0,0.0,0.0,0.0,0.0,0.0,0.0,0.0,0.0,0.0,0.0,0.0,0.0,0.0,0.0,0.0,0.0,0.0,0.0,0.0,0.0,0.0,0.0,0.0,0.0,0.0,0.0,0.0,0.0,0.0,0.0,0.0,0.0,0.0,0.0,0.0,0.0,0.0,0.0,0.0,0.0,0.0,0.0,0.0,0.0,0.0,0.0,0.0,0.0,0.0,0.0,0.0,0.0,0.0,0.0,0.0,0.0,0.0,0.0,0.0,0.0,0.0,0.0,0.0,0.0,0.0,0.0,0.0,0.0,0.0,0.0,0.0,0.0,0.0,0.0,0.0,0.0,0.0,0.0,0.0,0.0,0.0,0.0,0.0,0.0,0.0,0.0,0.0,0.0,0.0,0.0,0.0,0.0,0.0,0.0,0.0,0.0,0.0,0.0,0.0,0.0,0.0,0.0,0.0,0.0,0.0,0.0,0.0,0.0,0.0,0.0,0.0,0.0,0.0,0.0,0.0,0.0,0.0,0.0,0.0,0.0,0.0,0.0,0.0,0.0,0.0,0.0,0.0,0.0,0.0,0.0,0.0,0.0,0.0,0.0,0.0,0.0,0.0,0.0,0.0,0.0,0.0,0.0,0.0,0.0,0.0,0.0,0.0,0.0,0.0,0.0,0.0,0.0,0.0,0.0,0.0,0.0,0.0,0.0,0.0,0.0,0.0,0.0,0.0,0.0,0.0,0.0,0.0,0.0,0.0,0.0,0.0,0.0,0.0,0.0,0.0,0.0,0.0,0.0,0.0,0.0,0.0,0.0,0.0,0.0,0.0,0.0,0.0,0.0,0.0,0.0,0.0,0.0,0.0,0.0,0.0,0.0,0.0,0.0,0.0,0.0,0.0,0.0,0.0,0.0,0.0,0.0,0.0,0.0,0.0,0.0,0.0,0.0,0.0,0.0,0.0,0.0,0.0,0.0,0.0,0.0,0.0,0.0,0.0,0.0,0.0,0.0,0.0,0.0,0.0,0.0,0.0,0.0,0.0,0.0,0.0,0.0,0.0,0.0,0.0,0.0,0.0,0.0,0.0,0.0,0.0,0.0,0.0,0.0,0.0,0.0,0.0,0.0,0.0,0.0,0.0,0.0,0.0,0.0,0.0,0.0,0.0,0.0,0.0,0.0,0.0,0.0,0.0,0.0,0.0,0.0,0.0,0.0,0.0,0.0,0.0,0.0,0.0,0.0,0.0,0.0,0.0,0.0,0.0,0.0,0.0,0.0,0.0,0.0,0.0,0.0,0.0,0.0,0.0,0.0,0.0,0.0,0.0,0.0,0.0,0.0,0.0,0.0,0.0,0.0,0.0,0.0,0.0,0.0,0.0,0.0,0.0,0.0,0.0,0.0,0.0,0.0,0.0,0.0,0.0,0.0,0.0,0.0,0.0,0.0,0.0,0.0,0.0,0.0,0.0,0.0,0.0,0.0,0.0,0.0,0.0,0.0,0.0,0.0,0.0,0.0,0.0,0.0,0.0,0.0,0.0,0.0,0.0,0.0,0.0,0.0,0.0,0.0,0.0,0.0,0.0,0.0,0.0,0.0,0.0,0.0,0.0,0.0,0.0,0.0,0.0,0.0,0.0,0.0,0.0,0.0,0.0,0.0,0.0,0.0,0.0,0.0,0.0,0.0,0.0,0.0,0.0,0.0,0.0,0.0,0.0,0.0,0.0,0.0,0.0,0.0,0.0,0.0,0.0,0.0,0.0,0.0,0.0,0.0,0.0,0.0,0.0,0.0,0.0,0.0,0.0,0.0,0.0,0.0,0.0,0.0,0.0,0.0,0.0,0.0,0.0,0.0,0.0,0.0,0.0,0.0,0.0,0.0,0.0,0.0,0.0,0.0,0.0,0.0,0.0,0.0,0.0,0.0,0.0,0.0,0.0,0.0,0.0,0.0,0.0,0.0,0.0,0.0,0.0,0.0,0.0,0.0,0.0,0.0,0.0,0.0,0.0,0.0,0.0,0.0,0.0,0.0,0.0,0.0,0.0,0.0,0.0,0.0,0.0,0.0,0.0,0.0,0.0,0.0,0.0,0.0,0.0,0.0,0.0,0.0,0.0,0.0,0.0,0.0,0.0,0.0,0.0,0.0,0.0,0.0,0.0,0.0,0.0,0.0,0.0,0.0,0.0,0.0,0.0,0.0,0.0,0.0,0.0,0.0,0.0,0.0,0.0,0.0,0.0,0.0,0.0,0.0,0.0,0.0,0.0,0.0,0.0,0.0,0.0,0.0,0.0,0.0,0.0,0.0,0.0,0.0,0.0,0.0,0.0,0.0,0.0,0.0,0.0,0.0,0.0,0.0,0.0,0.0,0.0,0.0,0.0,0.0,0.0,0.0,0.0,0.0,0.0,0.0,0.0,0.0,0.0,0.0,0.0,0.0,0.0,0.0,0.0,0.0,0.0,0.0,0.0,0.0,0.0,0.0,0.0,0.0,0.0,0.0,0.0,0.0,0.0,0.0,0.0,0.0,0.0,0.0,0.0,0.0,0.0,0.0,0.0,0.0,0.0,0.0,0.0,0.0,0.0,0.0,0.0,0.0,0.0,0.0,0.0,0.0,0.0,0.0,0.0,0.0,0.0,0.0,0.0,0.0,0.0,0.0,0.0,0.0,0.0,0.0,0.0,0.0,0.0,0.0,0.0,0.0,0.0,0.0,0.0,0.0,0.0,0.0,0.0,0.0,0.0,0.0,0.0,0.0,0.0,0.0,0.0,0.0,0.0,0.0,0.0,0.0,0.0,0.0,0.0,0.0,0.0,0.0,0.0,0.0,0.0,0.0,0.0,0.0,0.0,0.0,0.0,0.0,0.0,0.0,0.0,0.0,0.0,0.0,0.0,0.0,0.0,0.0,0.0,0.0,0.0,0.0,0.0,0.0,0.0,0.0,0.0,0.0,0.0,0.0,0.0,0.0,0.0,0.0,0.0,0.0,0.0,0.0,0.0,0.0,0.0,0.0,0.0,0.0,0.0,0.0,0.0,0.0,0.0,0.0,0.0,0.0,0.0,0.0,0.0,0.0,0.0,0.0,0.0,0.0,0.0,0.0,0.0,0.0,0.0,0.0,0.0,0.0,0.0,0.0,0.0,0.0,0.0,0.0,0.0,0.0,0.0,0.0,0.0,0.0,0.0,0.0,0.0,0.0,0.0,0.0,0.0,0.0,0.0,0.0,0.0,0.0,0.0,0.0,0.0,0.0,0.0,0.0,0.0,0.0,0.0,0.0,0.0,0.0,0.0,0.0,0.0,0.0,0.0,0.0,0.0,0.0,0.0,0.0,0.0,0.0,0.0,0.0,0.0,0.0,0.0,0.0,0.0,0.0,0.0,0.0,0.0,0.0,0.0,0.0,0.0,0.0,0.0,0.0,0.0,0.0,0.0,0.0,0.0,0.0,0.0,0.0,0.0,0.0,0.0,0.0,0.0,0.0,0.0,0.0,0.0,0.0,0.0,0.0,0.0,0.0,0.0,0.0,0.0,0.0,0.0,0.0,0.0,0.0,0.0,0.0,0.0,0.0,0.0,0.0,0.0,0.0,0.0,0.0,0.0,0.0,0.0,0.0,0.0,0.0,0.0,0.0,0.0,0.0,0.0,0.0,0.0,0.0,0.0,0.0,0.0,0.0,0.0,0.0,0.0,0.0,0.0,0.0,0.0,0.0,0.0,0.0,0.0,0.0,0.0,0.0,0.0,0.0,0.0,0.0,0.0,0.0,0.0,0.0,0.0,0.0,0.0,0.0,0.0,0.0,0.0,0.0,0.0,0.0,0.0,0.0,0.0,0.0,0.0,0.0,0.0,0.0,0.0,0.0,0.0,0.0,0.0,0.0,0.0,0.0,0.0,0.0,0.0,0.0,0.0,0.0,0.0,0.0,0.0,0.0,0.0,0.0,0.0,0.0,0.0,0.0,0.0,0.0,0.0,0.0,0.0,0.0,0.0,0.0,0.0,0.0,0.0,0.0,0.0,0.0,0.0,0.0,0.0,0.0,0.0,0.0,0.0,0.0,0.0,0.0,0.0,0.0,0.0,0.0,0.0,0.0,0.0,0.0,0.0,0.0,0.0,0.0,0.0,0.0,0.0,0.0,-0.975,0.0,0.0,0.0,0.0,0.0,0.0,0.0,0.0,0.0,0.0,0.0,0.0,0.0,0.0,0.0,0.0,0.0,0.0,0.0,0.0,0.0,0.0,0.0,0.0,0.0,0.0,0.0,0.0,0.0,0.0,0.0,0.0,0.0,0.0,0.0,0.0,0.0,0.0,0.0,0.0,0.0,0.0,0.0,0.0,0.0,0.0,0.0,0.0,0.0,0.0,0.0,0.0,0.0,0.0,0.0,0.0,0.0,0.0,0.0,0.0,0.0,0.0,0.0,0.0,0.0,0.0,0.0,0.0,0.0,0.0,0.0,0.0,0.0,0.0,0.0,0.0,0.0,0.0,0.0,0.0,0.0,0.0,0.0,0.0,0.0,0.0,0.0,0.0,0.0,0.0,0.0,0.0,0.0,0.0,0.0,0.0,0.0,0.0,0.0,0.0,0.0,0.0,0.0,0.0,0.0,0.0,0.0,0.0,0.0,0.0,-1.0705,-1.0559,-1.0436,-1.0286,-1.0135,0.0,0.0,0.0,0.0,0.0,0.0,0.0,0.0,0.0,0.0,0.0,0.0,0.0,0.0,0.0,0.0,0.0,0.0,0.0,0.0,0.0,0.0,0.0,0.0,0.0,0.0,0.0,0.0,0.0,0.0,0.0,0.0,0.0,0.0,0.0,0.0,0.0,0.0,0.0,0.0,0.0,0.0,0.0,0.0,0.0,0.0,0.0,0.0,0.0,0.0,0.0,0.0,0.0,0.0,0.0,0.0,0.0,0.0,0.0,0.0,0.0,0.0,0.0,0.0,0.0,0.0,0.0,0.0,0.0,0.0,0.0,0.0,0.0,0.0,0.0,0.0,0.0,0.0,0.0,0.0,0.0,0.0,0.0,0.0,0.0,0.0,0.0,0.0,0.0,0.0,0.0,0.0,0.0,0.0,0.0,0.0,0.0,0.0,0.0,0.0,0.0,0.0,0.0,0.0,0.0,0.0,0.0,0.0,0.0,0.0,0.0,0.0,-1.0743,-1.0621,-1.0523,0.0,0.0,0.0,0.0,0.0,0.0,0.0,0.0,0.0,0.0,0.0,0.0,0.0,0.0,0.0,0.0,0.0,0.0,0.0,0.0,0.0,0.0,0.0,0.0,0.0,0.0,0.0,0.0,0.0,0.0,0.0,0.0,0.0,0.0,0.0,0.0,0.0,0.0,0.0,0.0,0.0,0.0,0.0,0.0,0.0,0.0,0.0,0.0,0.0,0.0,0.0,0.0,0.0,0.0,0.0,0.0,0.0,0.0,0.0,0.0,0.0,0.0,0.0,0.0,0.0,0.0,0.0,0.0,0.0,0.0,0.0,0.0,0.0,0.0,0.0,0.0,0.0,0.0,0.0,0.0,0.0,0.0,0.0,0.0,0.0,0.0,0.0,0.0,0.0,0.0,0.0,0.0,0.0,0.0,0.0,0.0,0.0,0.0,0.0,0.0,0.0,0.0,0.0,0.0,0.0,0.0,0.0,0.0,0.0,0.0,-1.1239,-1.1155,-1.1132,0.0,-1.0849,0.0,0.0,0.0,0.0,0.0,0.0,0.0,0.0,0.0,0.0,0.0,0.0,0.0,0.0,0.0,0.0,0.0,0.0,0.0,0.0,0.0,0.0,0.0,0.0,0.0,0.0,0.0,0.0,0.0,0.0,0.0,0.0,0.0,0.0,0.0,0.0,0.0,0.0,0.0,0.0,0.0,0.0,0.0,0.0,0.0,0.0,0.0,0.0,0.0,0.0,0.0,0.0,0.0,0.0,0.0,0.0,0.0,0.0,0.0,0.0,0.0,0.0,0.0,0.0,0.0,0.0,0.0,0.0,0.0,0.0,0.0,0.0,0.0,0.0,0.0,0.0,0.0,0.0,0.0,0.0,0.0,0.0,0.0,0.0,0.0,0.0,0.0,0.0,0.0,0.0,0.0,0.0,0.0,0.0,0.0,0.0,0.0,0.0,0.0,0.0,0.0,0.0,0.0,0.0,0.0,0.0,0.0,0.0,0.0,0.0,-1.1353,-1.1293,-1.1316,-1.127,0.0,0.0,0.0,0.0,0.0,0.0,0.0,0.0,0.0,0.0,0.0,0.0,0.0,0.0,0.0,0.0,0.0,0.0,0.0,0.0,0.0,0.0,0.0,0.0,0.0,0.0,0.0,0.0,0.0,0.0,0.0,0.0,0.0,0.0,0.0,0.0,0.0,0.0,0.0,0.0,0.0,0.0,0.0,0.0,0.0,0.0,0.0,0.0,0.0,0.0,0.0,0.0,0.0,0.0,0.0,0.0,0.0,0.0,0.0,0.0,0.0,0.0,0.0,0.0,0.0,0.0,0.0,0.0,0.0,0.0,0.0,0.0,0.0,0.0,0.0,0.0,0.0,0.0,0.0,0.0,0.0,0.0,0.0,0.0,0.0,0.0,0.0,0.0,0.0,0.0,0.0,0.0,0.0,0.0,0.0,0.0,0.0,0.0,0.0,0.0,0.0,0.0,0.0,0.0,0.0,0.0,0.0,0.0,0.0,0.0,-1.1556,-1.1489,-1.1452,-1.1452,-1.1466,-1.1474,0.0,0.0,0.0,0.0,0.0,0.0,0.0,0.0,0.0,0.0,0.0,0.0,0.0,0.0,0.0,0.0,0.0,0.0,0.0,0.0,0.0,0.0,0.0,0.0,0.0,0.0,0.0,0.0,0.0,0.0,0.0,0.0,0.0,0.0,0.0,0.0,0.0,0.0,0.0,0.0,0.0,0.0,0.0,0.0,0.0,0.0,0.0,0.0,0.0,0.0,0.0,0.0,0.0,0.0,0.0,0.0,0.0,0.0,0.0,0.0,0.0,0.0,0.0,0.0,0.0,0.0,0.0,0.0,0.0,0.0,0.0,0.0,0.0,0.0,0.0,0.0,0.0,0.0,0.0,0.0,0.0,0.0,0.0,0.0,0.0,0.0,0.0,0.0,0.0,0.0,0.0,0.0,0.0,0.0,0.0,0.0,0.0,0.0,0.0,0.0,0.0,0.0,0.0,0.0,0.0,0.0,0.0,0.0,-1.1805,-1.1725,-1.1659,-1.1593,-1.1601,-1.1637,0.0,0.0,0.0,0.0,0.0,0.0,0.0,0.0,0.0,0.0,0.0,0.0,0.0,0.0,0.0,0.0,0.0,0.0,0.0,0.0,0.0,0.0,0.0,0.0,0.0,0.0,0.0,0.0,0.0,0.0,0.0,0.0,0.0,0.0,0.0,0.0,0.0,0.0,0.0,0.0,0.0,0.0,0.0,0.0,0.0,0.0,0.0,0.0,0.0,0.0,0.0,0.0,0.0,0.0,0.0,0.0,0.0,0.0,0.0,0.0,0.0,0.0,0.0,0.0,0.0,0.0,0.0,0.0,0.0,0.0,0.0,0.0,0.0,0.0,0.0,0.0,0.0,0.0,0.0,0.0,0.0,0.0,0.0,0.0,0.0,0.0,0.0,0.0,0.0,0.0,0.0,0.0,0.0,0.0,0.0,0.0,0.0,0.0,0.0,0.0,0.0,0.0,0.0,0.0,0.0,0.0,0.0,0.0,0.0,-1.1826,-1.1768,-1.1747,-1.1725,-1.1725,-1.1747,0.0,0.0,0.0,0.0,0.0,0.0,0.0,0.0,0.0,0.0,0.0,0.0,0.0,0.0,0.0,0.0,0.0,0.0,0.0,0.0,0.0,0.0,0.0,0.0,0.0,0.0,0.0,0.0,0.0,0.0,0.0,0.0,0.0,0.0,0.0,0.0,0.0,0.0,0.0,0.0,0.0,0.0,0.0,0.0,0.0,0.0,0.0,0.0,0.0,0.0,0.0,0.0,0.0,0.0,0.0,0.0,0.0,0.0,0.0,0.0,0.0,0.0,0.0,0.0,0.0,0.0,0.0,0.0,0.0,0.0,0.0,0.0,0.0,0.0,0.0,0.0,0.0,0.0,0.0,0.0,0.0,0.0,0.0,0.0,0.0,0.0,0.0,0.0,0.0,0.0,0.0,0.0,0.0,0.0,0.0,0.0,0.0,0.0,0.0,0.0,0.0,0.0,0.0,0.0,0.0,0.0,0.0,0.0,0.0,-1.2012,0.0,-1.1976,-1.1933,-1.1933,-1.197,0.0,0.0,0.0,0.0,0.0,0.0,0.0,0.0,0.0,0.0,0.0,0.0,0.0,0.0,0.0,0.0,0.0,0.0,0.0,0.0,0.0,0.0,0.0,0.0,0.0,0.0,0.0,0.0,0.0,0.0,0.0,0.0,0.0,0.0,0.0,0.0,0.0,0.0,0.0,0.0,0.0,0.0,0.0,0.0,0.0,0.0,0.0,0.0,0.0,0.0,0.0,0.0,0.0,0.0,0.0,0.0,0.0,0.0,0.0,0.0,0.0,0.0,0.0,0.0,0.0,0.0,0.0,0.0,0.0,0.0,0.0,0.0,0.0,0.0,0.0,0.0,0.0,0.0,0.0,0.0,0.0,0.0,0.0,0.0,0.0,0.0,0.0,0.0,0.0,0.0,0.0,0.0,0.0,0.0,0.0,0.0,0.0,0.0,0.0,0.0,0.0,0.0,0.0,0.0,0.0,0.0,0.0,0.0,-1.2359,-1.2383,-1.2383,-1.2323,-1.2226,-1.2195,-1.221,0.0,0.0,0.0,0.0,0.0,0.0,0.0,0.0,0.0,0.0,0.0,0.0,0.0,0.0,0.0,0.0,0.0,0.0,0.0,0.0,0.0,0.0,0.0,0.0,0.0,0.0,0.0,0.0,0.0,0.0,0.0,0.0,0.0,0.0,0.0,0.0,0.0,0.0,0.0,0.0,0.0,0.0,0.0,0.0,0.0,0.0,0.0,0.0,0.0,0.0,0.0,0.0,0.0,0.0,0.0,0.0,0.0,0.0,0.0,0.0,0.0,0.0,0.0,0.0,0.0,0.0,0.0,0.0,0.0,0.0,0.0,0.0,0.0,0.0,0.0,0.0,0.0,0.0,0.0,0.0,0.0,0.0,0.0,0.0,0.0,0.0,0.0,0.0,0.0,0.0,0.0,0.0,0.0,0.0,0.0,0.0,0.0,0.0,0.0,0.0,0.0,0.0,0.0,0.0,0.0,0.0,0.0,0.0,0.0,-1.249,-1.2475,-1.2439,-1.2399,-1.2318,-1.2298,0.0,0.0,0.0,0.0,0.0,0.0,0.0,0.0,0.0,0.0,0.0,0.0,0.0,0.0,0.0,0.0,0.0,0.0,0.0,0.0,0.0,0.0,0.0,0.0,0.0,0.0,0.0,0.0,0.0,0.0,0.0,0.0,0.0,0.0,0.0,0.0,0.0,0.0,0.0,0.0,0.0,0.0,0.0,0.0,0.0,0.0,0.0,0.0,0.0,0.0,0.0,0.0,0.0,0.0,0.0,0.0,0.0,0.0,0.0,0.0,0.0,0.0,0.0,0.0,0.0,0.0,0.0,0.0,0.0,0.0,0.0,0.0,0.0,0.0,0.0,0.0,0.0,0.0,0.0,0.0,0.0,0.0,0.0,0.0,0.0,0.0,0.0,0.0,0.0,0.0,0.0,0.0,0.0,0.0,0.0,0.0,0.0,0.0,0.0,0.0,0.0,0.0,0.0,0.0,0.0,0.0,0.0,0.0,0.0,-1.3844,-1.3802,-1.3797,-1.376,-1.3421,-1.311,-1.2857,0.0,0.0,0.0,0.0,0.0,0.0,0.0,0.0,0.0,0.0,0.0,0.0,0.0,0.0,0.0,0.0,0.0,0.0,0.0,0.0,0.0,0.0,0.0,0.0,0.0,0.0,0.0,0.0,0.0,0.0,0.0,0.0,0.0,0.0,0.0,0.0,0.0,0.0,0.0,0.0,0.0,0.0,0.0,0.0,0.0,0.0,0.0,0.0,0.0,0.0,0.0,0.0,0.0,0.0,0.0,0.0,0.0,0.0,0.0,0.0,0.0,0.0,0.0,0.0,0.0,0.0,0.0,0.0,0.0,0.0,0.0,0.0,0.0,0.0,0.0,0.0,0.0,0.0,0.0,0.0,0.0,0.0,0.0,0.0,0.0,0.0,0.0,0.0,0.0,0.0,0.0,0.0,0.0,0.0,0.0,0.0,0.0,0.0,0.0,0.0,0.0,0.0,0.0,0.0,0.0,0.0,0.0,0.0,-1.6236,-1.6247,-1.6176,-1.5943,-1.5204,-1.4447,0.0,0.0,0.0,0.0,0.0,0.0,0.0,0.0,0.0,0.0,0.0,0.0,0.0,0.0,0.0,0.0,0.0,0.0,0.0,0.0,0.0,0.0,0.0,0.0,0.0,0.0,0.0,0.0,0.0,0.0,0.0,0.0,0.0,0.0,0.0,0.0,0.0,0.0,0.0,0.0,0.0,0.0,0.0,0.0,0.0,0.0,0.0,0.0,0.0,0.0,0.0,0.0,0.0,0.0,0.0,0.0,0.0,0.0,0.0,0.0,0.0,0.0,0.0,0.0,0.0,0.0,0.0,0.0,0.0,0.0,0.0,0.0,0.0,0.0,0.0,0.0,0.0,0.0,0.0,0.0,0.0,0.0,0.0,0.0,0.0,0.0,0.0,0.0,0.0,0.0,0.0,0.0,0.0,0.0,0.0,0.0,0.0,0.0,0.0,0.0,0.0,0.0,0.0,0.0,0.0,0.0,0.0,0.0,0.0,-1.7987,-1.9118,-1.8748,-1.684,-1.5508,-1.4722,0.0,0.0,0.0,0.0,0.0,0.0,0.0,0.0,0.0,0.0,0.0,0.0,0.0,0.0,0.0,0.0,0.0,0.0,0.0,0.0,0.0,0.0,0.0,0.0,0.0,0.0,0.0,0.0,0.0,0.0,0.0,0.0,0.0,0.0,0.0,0.0,0.0,0.0,0.0,0.0,0.0,0.0,0.0,0.0,0.0,0.0,0.0,0.0,0.0,0.0,0.0,0.0,0.0,0.0,0.0,0.0,0.0,0.0,0.0,0.0,0.0,0.0,0.0,0.0,0.0,0.0,0.0,0.0,0.0,0.0,0.0,0.0,0.0,0.0,0.0,0.0,0.0,0.0,0.0,0.0,0.0,0.0,0.0,0.0,0.0,0.0,0.0,0.0,0.0,0.0,0.0,0.0,0.0,0.0,0.0,0.0,0.0,0.0,0.0,0.0,0.0,0.0,0.0,0.0,0.0,0.0,0.0,0.0,-1.7619,-1.9169,-2.0653,-2.0694,-1.919,-1.7412,-1.6174,0.0,0.0,0.0,0.0,0.0,0.0,0.0,0.0,0.0,0.0,0.0,0.0,0.0,0.0,0.0,0.0,0.0,0.0,0.0,0.0,0.0,0.0,0.0,0.0,0.0,0.0,0.0,0.0,0.0,0.0,0.0,0.0,0.0,0.0,0.0,0.0,0.0,0.0,0.0,0.0,0.0,0.0,0.0,0.0,0.0,0.0,0.0,0.0,0.0,0.0,0.0,0.0,0.0,0.0,0.0,0.0,0.0,0.0,0.0,0.0,0.0,0.0,0.0,0.0,0.0,0.0,0.0,0.0,0.0,0.0,0.0,0.0,0.0,0.0,0.0,0.0,0.0,0.0,0.0,0.0,0.0,0.0,0.0,0.0,0.0,0.0,0.0,0.0,0.0,0.0,0.0,0.0,0.0,0.0,0.0,0.0,0.0,0.0,0.0,0.0,0.0,0.0,0.0,0.0,0.0,0.0,0.0,0.0,-1.8444,-2.0052,-2.1378,-2.2039,-2.2034,-1.9855,-1.804,0.0,0.0,0.0,0.0,0.0,0.0,0.0,0.0,0.0,0.0,0.0,0.0,0.0,0.0,0.0,0.0,0.0,0.0,0.0,0.0,0.0,0.0,0.0,0.0,0.0,0.0,0.0,0.0,0.0,0.0,0.0,0.0,0.0,0.0,0.0,0.0,0.0,0.0,0.0,0.0,0.0,0.0,0.0,0.0,0.0,0.0,0.0,0.0,0.0,0.0,0.0,0.0,0.0,0.0,0.0,0.0,0.0,0.0,0.0,0.0,0.0,0.0,0.0,0.0,0.0,0.0,0.0,0.0,0.0,0.0,0.0,0.0,0.0,0.0,0.0,0.0,0.0,0.0,0.0,0.0,0.0,0.0,0.0,0.0,0.0,0.0,0.0,0.0,0.0,0.0,0.0,0.0,0.0,0.0,0.0,0.0,0.0,0.0,0.0,0.0,0.0,0.0,0.0,0.0,0.0,0.0,0.0,0.0,-1.9545,-2.1122,-2.2019,-2.2497,-2.2517,-2.0035,-1.8306,0.0,0.0,0.0,0.0,0.0,0.0,0.0,0.0,0.0,0.0,0.0,0.0,0.0,0.0,0.0,0.0,0.0,0.0,0.0,0.0,0.0,0.0,0.0,0.0,0.0,0.0,0.0,0.0,0.0,0.0,0.0,0.0,0.0,0.0,0.0,0.0,0.0,0.0,0.0,0.0,0.0,0.0,0.0,0.0,0.0,0.0,0.0,0.0,-1.7258,0.0,0.0,0.0,0.0,0.0,0.0,0.0,0.0,0.0,0.0,0.0,0.0,0.0,0.0,0.0,0.0,0.0,0.0,0.0,0.0,0.0,0.0,0.0,0.0,0.0,0.0,0.0,0.0,0.0,0.0,0.0,0.0,0.0,0.0,0.0,0.0,0.0,0.0,0.0,0.0,0.0,0.0,0.0,0.0,0.0,0.0,0.0,0.0,0.0,0.0,0.0,0.0,0.0,0.0,0.0,0.0,0.0,0.0,0.0,-1.9824,-2.1506,-2.2192,-2.2569,-2.2616,-2.1002,-1.9379,0.0,0.0,0.0,0.0,0.0,0.0,0.0,0.0,0.0,0.0,0.0,0.0,0.0,0.0,0.0,0.0,0.0,0.0,0.0,0.0,0.0,0.0,0.0,0.0,0.0,0.0,0.0,0.0,0.0,0.0,0.0,0.0,0.0,0.0,0.0,0.0,0.0,0.0,0.0,0.0,0.0,0.0,0.0,0.0,0.0,0.0,0.0,0.0,0.0,0.0,0.0,0.0,0.0,0.0,0.0,0.0,0.0,0.0,0.0,0.0,0.0,0.0,0.0,0.0,0.0,0.0,0.0,0.0,0.0,0.0,0.0,0.0,0.0,0.0,0.0,0.0,0.0,0.0,0.0,0.0,0.0,0.0,0.0,0.0,0.0,0.0,0.0,0.0,0.0,0.0,0.0,0.0,0.0,0.0,0.0,0.0,0.0,0.0,0.0,0.0,0.0,0.0,0.0,0.0,0.0,0.0,0.0,-1.8842,-1.995,-2.1678,-2.219,-2.2515,-2.2685,-2.1987,-2.0498,-1.8216,0.0,0.0,0.0,0.0,0.0,0.0,0.0,0.0,0.0,0.0,0.0,0.0,0.0,0.0,0.0,0.0,0.0,0.0,0.0,0.0,0.0,0.0,0.0,0.0,0.0,0.0,0.0,0.0,0.0,0.0,0.0,0.0,0.0,0.0,0.0,0.0,0.0,0.0,-1.6979,-1.7627,0.0,0.0,0.0,0.0,0.0,0.0,0.0,0.0,-1.8988,0.0,0.0,0.0,0.0,0.0,0.0,0.0,0.0,0.0,0.0,0.0,0.0,0.0,0.0,0.0,0.0,0.0,0.0,0.0,0.0,0.0,0.0,0.0,0.0,0.0,0.0,0.0,0.0,0.0,0.0,0.0,0.0,0.0,0.0,0.0,0.0,0.0,0.0,0.0,0.0,0.0,0.0,0.0,0.0,0.0,0.0,0.0,0.0,0.0,0.0,0.0,0.0,0.0,0.0,0.0,0.0,-1.9816,-1.9923,-2.0764,-2.2399,-2.2473,-2.2552,-2.2668,-2.2005,-2.0515,-1.8293,0.0,0.0,0.0,0.0,0.0,0.0,0.0,0.0,0.0,0.0,0.0,0.0,0.0,0.0,0.0,0.0,0.0,0.0,0.0,0.0,0.0,0.0,0.0,0.0,0.0,0.0,0.0,0.0,0.0,0.0,0.0,0.0,0.0,0.0,0.0,0.0,0.0,0.0,0.0,-1.8356,-1.831,0.0,0.0,0.0,0.0,0.0,0.0,0.0,0.0,-2.112,0.0,0.0,0.0,0.0,0.0,0.0,0.0,0.0,0.0,0.0,0.0,0.0,0.0,0.0,0.0,0.0,0.0,0.0,0.0,0.0,0.0,0.0,0.0,0.0,0.0,0.0,0.0,0.0,0.0,0.0,0.0,0.0,0.0,0.0,0.0,0.0,0.0,0.0,0.0,0.0,0.0,0.0,0.0,0.0,0.0,0.0,0.0,0.0,0.0,0.0,0.0,0.0,0.0,0.0,0.0,-2.0247,-2.0576,-2.1353,-2.2598,-2.2515,-2.2542,-2.2685,-2.1987,-2.0539,0.0,0.0,0.0,0.0,0.0,0.0,0.0,0.0,0.0,0.0,0.0,0.0,0.0,0.0,0.0,0.0,0.0,0.0,0.0,0.0,0.0,0.0,0.0,0.0,0.0,0.0,0.0,0.0,0.0,0.0,0.0,0.0,0.0,0.0,0.0,0.0,0.0,0.0,0.0,0.0,-1.9955,-2.0288,-2.1162,0.0,0.0,0.0,0.0,0.0,0.0,-2.209,-2.1947,0.0,0.0,0.0,0.0,0.0,0.0,0.0,0.0,0.0,0.0,0.0,0.0,0.0,0.0,0.0,0.0,0.0,0.0,0.0,0.0,0.0,0.0,0.0,0.0,0.0,0.0,0.0,0.0,0.0,0.0,0.0,0.0,0.0,0.0,0.0,0.0,0.0,0.0,0.0,0.0,0.0,0.0,0.0,0.0,0.0,0.0,0.0,0.0,0.0,0.0,0.0,0.0,0.0,0.0,0.0,-2.0347,-2.0943,-2.1721,-2.2624,-2.2515,-2.2515,-2.2668,-2.1849,-2.0366,0.0,0.0,0.0,0.0,0.0,0.0,0.0,0.0,0.0,0.0,0.0,0.0,0.0,0.0,0.0,0.0,0.0,0.0,0.0,0.0,0.0,0.0,0.0,0.0,0.0,0.0,0.0,0.0,0.0,0.0,0.0,0.0,0.0,0.0,0.0,0.0,0.0,0.0,0.0,0.0,0.0,-2.2098,-2.2958,-2.2491,0.0,0.0,0.0,0.0,-2.324,-2.2754,0.0,0.0,0.0,0.0,0.0,0.0,0.0,0.0,0.0,0.0,0.0,0.0,0.0,0.0,0.0,0.0,0.0,0.0,0.0,0.0,0.0,0.0,0.0,0.0,0.0,0.0,0.0,0.0,0.0,0.0,0.0,0.0,0.0,0.0,0.0,0.0,0.0,0.0,0.0,0.0,0.0,0.0,0.0,0.0,0.0,0.0,0.0,0.0,0.0,0.0,0.0,0.0,0.0,0.0,0.0,0.0,-2.0216,-2.1045,-2.1824,-2.2571,-2.2579,-2.2605,-2.2685,-2.129,-1.9809,0.0,0.0,0.0,0.0,0.0,0.0,0.0,0.0,0.0,0.0,0.0,0.0,0.0,0.0,0.0,0.0,0.0,0.0,0.0,0.0,0.0,0.0,0.0,0.0,0.0,0.0,0.0,0.0,0.0,0.0,0.0,0.0,0.0,0.0,0.0,0.0,0.0,0.0,0.0,0.0,0.0,-2.2107,-2.2979,-2.2955,-2.2881,0.0,0.0,-2.4034,-2.4141,-2.4078,0.0,0.0,0.0,0.0,0.0,0.0,0.0,0.0,0.0,0.0,0.0,0.0,0.0,0.0,0.0,0.0,0.0,0.0,0.0,0.0,0.0,0.0,0.0,0.0,0.0,0.0,0.0,0.0,0.0,0.0,0.0,0.0,0.0,0.0,0.0,0.0,0.0,0.0,0.0,0.0,0.0,0.0,0.0,0.0,0.0,0.0,0.0,0.0,0.0,0.0,0.0,0.0,0.0,0.0,0.0,-1.9966,-2.0333,-2.155,-2.2349,-2.2659,-2.2659,-2.2659,-2.2685,-2.1204,-1.9895,0.0,0.0,0.0,0.0,0.0,0.0,0.0,0.0,0.0,0.0,0.0,0.0,0.0,0.0,0.0,0.0,0.0,0.0,0.0,0.0,0.0,0.0,0.0,0.0,0.0,0.0,0.0,0.0,0.0,0.0,0.0,0.0,0.0,0.0,0.0,0.0,0.0,0.0,0.0,0.0,0.0,0.0,-2.3614,-2.3706,0.0,0.0,0.0,-2.4263,-2.4292,0.0,0.0,0.0,0.0,0.0,0.0,0.0,0.0,0.0,0.0,0.0,0.0,0.0,0.0,0.0,0.0,0.0,0.0,0.0,0.0,0.0,0.0,0.0,0.0,0.0,0.0,0.0,0.0,0.0,0.0,0.0,0.0,0.0,0.0,0.0,0.0,0.0,0.0,0.0,0.0,0.0,0.0,0.0,0.0,0.0,0.0,0.0,0.0,0.0,0.0,0.0,0.0,0.0,0.0,0.0,0.0,0.0,-2.0391,-2.1902,-2.2712,-2.2712,-2.2712,-2.2712,-2.2677,-2.1393,0.0,0.0,0.0,0.0,0.0,0.0,0.0,0.0,0.0,0.0,0.0,0.0,0.0,0.0,0.0,0.0,0.0,0.0,0.0,0.0,0.0,0.0,0.0,0.0,0.0,0.0,0.0,-1.7349,0.0,0.0,0.0,0.0,0.0,0.0,0.0,0.0,0.0,0.0,0.0,0.0,0.0,0.0,-2.35,-2.4096,-2.4361,-2.4503,0.0,0.0,-2.4515,-2.4583,-2.4539,-2.4238,0.0,0.0,0.0,0.0,0.0,0.0,0.0,0.0,0.0,0.0,0.0,0.0,0.0,0.0,0.0,0.0,0.0,0.0,0.0,0.0,0.0,0.0,0.0,0.0,0.0,0.0,0.0,0.0,0.0,0.0,0.0,0.0,0.0,0.0,0.0,0.0,0.0,0.0,0.0,0.0,0.0,0.0,0.0,0.0,0.0,0.0,0.0,0.0,0.0,0.0,0.0,0.0,0.0,0.0,-2.0193,-2.0269,-2.1859,-2.2712,-2.2712,-2.2712,-2.2712,-2.2694,-2.1936,-2.0832,0.0,0.0,0.0,0.0,0.0,0.0,0.0,0.0,0.0,0.0,0.0,0.0,0.0,0.0,0.0,0.0,0.0,0.0,0.0,0.0,0.0,0.0,0.0,0.0,0.0,0.0,0.0,0.0,0.0,0.0,0.0,0.0,0.0,0.0,0.0,0.0,0.0,0.0,0.0,0.0,0.0,-2.4128,-2.4107,-2.4786,-2.5316,0.0,-2.5313,-2.5343,-2.5406,-2.536,-2.5054,-2.4327,0.0,0.0,0.0,0.0,0.0,0.0,0.0,0.0,0.0,0.0,0.0,0.0,0.0,0.0,0.0,0.0,0.0,0.0,0.0,0.0,0.0,0.0,0.0,0.0,0.0,0.0,0.0,0.0,0.0,0.0,0.0,0.0,0.0,0.0,0.0,0.0,0.0,0.0,0.0,0.0,0.0,0.0,0.0,0.0,0.0,0.0,0.0,0.0,0.0,0.0,0.0,0.0,0.0,-2.0186,-2.0277,-2.1859,-2.2712,-2.2712,-2.2712,-2.2712,-2.2712,-2.2005,-2.1357,0.0,0.0,0.0,0.0,0.0,0.0,0.0,0.0,0.0,0.0,0.0,0.0,0.0,0.0,0.0,0.0,0.0,0.0,0.0,0.0,0.0,0.0,0.0,0.0,0.0,0.0,0.0,0.0,-2.0346,-2.0684,-2.1047,0.0,0.0,0.0,0.0,0.0,0.0,0.0,0.0,0.0,0.0,-2.4205,-2.4688,-2.5072,0.0,0.0,-2.5331,-2.5427,-2.5427,-2.5425,-2.5131,-2.4353,-2.3974,0.0,0.0,0.0,0.0,0.0,0.0,0.0,0.0,0.0,0.0,0.0,0.0,0.0,0.0,0.0,0.0,0.0,0.0,0.0,0.0,0.0,0.0,0.0,0.0,0.0,0.0,0.0,0.0,0.0,0.0,0.0,0.0,0.0,0.0,0.0,0.0,0.0,0.0,0.0,0.0,0.0,0.0,0.0,0.0,0.0,0.0,0.0,0.0,0.0,0.0,0.0,0.0,-2.0238,-2.0551,-2.1979,-2.2712,-2.2712,-2.2712,-2.2712,-2.2694,-2.222,-2.1908,0.0,0.0,0.0,0.0,0.0,0.0,0.0,0.0,0.0,0.0,0.0,0.0,0.0,0.0,0.0,0.0,0.0,0.0,0.0,0.0,0.0,0.0,0.0,0.0,0.0,0.0,0.0,0.0,-2.1388,-2.1459,-2.1311,0.0,0.0,0.0,0.0,0.0,0.0,0.0,0.0,0.0,0.0,-2.4419,-2.505,-2.5143,-2.5128,-2.5118,-2.5234,-2.5331,-2.537,-2.5361,-2.5158,-2.4587,0.0,0.0,0.0,0.0,0.0,0.0,0.0,0.0,0.0,0.0,0.0,0.0,0.0,0.0,0.0,0.0,0.0,0.0,0.0,0.0,0.0,0.0,0.0,0.0,0.0,0.0,0.0,-1.4891,0.0,0.0,-1.4995,0.0,0.0,0.0,0.0,0.0,0.0,0.0,0.0,0.0,0.0,0.0,0.0,0.0,0.0,0.0,0.0,0.0,0.0,0.0,0.0,0.0,0.0,-2.0416,-2.117,-2.2184,-2.2712,-2.2712,-2.2712,-2.2712,-2.2712,-2.2799,-2.2536,-2.1823,0.0,0.0,0.0,0.0,0.0,0.0,0.0,0.0,0.0,0.0,0.0,0.0,0.0,0.0,0.0,0.0,0.0,0.0,0.0,0.0,0.0,0.0,0.0,0.0,0.0,0.0,-2.1803,-2.2629,-2.2817,0.0,0.0,0.0,0.0,0.0,0.0,0.0,0.0,0.0,-2.3824,-2.441,-2.4917,-2.4993,-2.4987,-2.5024,-2.507,-2.5163,-2.5233,-2.5278,-2.525,-2.5212,0.0,0.0,0.0,0.0,0.0,0.0,0.0,0.0,0.0,0.0,0.0,0.0,0.0,0.0,0.0,0.0,0.0,0.0,0.0,0.0,0.0,0.0,0.0,0.0,0.0,0.0,0.0,-1.6257,-1.6354,0.0,0.0,0.0,0.0,0.0,0.0,0.0,0.0,0.0,0.0,0.0,-1.8914,-1.9142,0.0,0.0,0.0,0.0,0.0,0.0,0.0,0.0,0.0,0.0,0.0,0.0,-2.073,-2.1274,-2.2068,-2.2569,-2.2685,-2.2712,-2.2712,-2.2712,-2.2816,-2.2621,-2.2013,0.0,0.0,0.0,0.0,0.0,0.0,0.0,0.0,0.0,0.0,0.0,0.0,0.0,0.0,0.0,0.0,0.0,0.0,0.0,0.0,0.0,0.0,0.0,0.0,0.0,-2.1745,0.0,0.0,0.0,0.0,0.0,0.0,0.0,0.0,0.0,0.0,0.0,-2.4537,-2.4536,-2.4634,-2.4727,-2.479,-2.4804,-2.4799,0.0,0.0,0.0,0.0,0.0,0.0,0.0,0.0,0.0,0.0,0.0,0.0,0.0,0.0,-2.211,-2.2161,-2.2146,-2.2149,-2.2152,0.0,0.0,0.0,0.0,0.0,0.0,0.0,0.0,0.0,0.0,0.0,0.0,0.0,0.0,-1.7775,-1.7811,-1.7837,0.0,0.0,0.0,0.0,0.0,0.0,0.0,0.0,-1.9479,-1.9832,-1.9576,-1.9803,-1.9932,-1.9903,-1.9903,-1.9844,0.0,0.0,0.0,0.0,0.0,0.0,0.0,0.0,-2.1,-2.1559,-2.2204,-2.2569,-2.2685,-2.2712,-2.2712,-2.2712,-2.2842,-2.2775,-2.2517,-2.2206,-2.1824,0.0,0.0,0.0,0.0,0.0,0.0,0.0,0.0,0.0,0.0,0.0,0.0,0.0,0.0,0.0,0.0,0.0,0.0,0.0,0.0,0.0,0.0,0.0,-2.2813,0.0,0.0,0.0,0.0,0.0,0.0,0.0,0.0,0.0,-2.4804,-2.4818,-2.4804,-2.4798,-2.4657,-2.4578,-2.462,0.0,0.0,0.0,0.0,0.0,0.0,0.0,-2.4953,-2.4879,-2.4912,-2.4731,-2.4227,-2.3793,-2.3505,-2.3543,0.0,0.0,-2.3017,-2.2972,-2.2982,-2.2965,-2.2955,-2.2965,-2.2941,-2.2965,-2.2958,0.0,0.0,0.0,0.0,-1.9844,0.0,0.0,0.0,-1.9151,-1.9147,0.0,-1.9216,0.0,0.0,0.0,0.0,-1.8184,-1.8908,0.0,0.0,-2.0629,-2.0969,-2.0418,-2.0985,-2.1246,-2.1215,-2.1183,-2.1151,-2.1007,-1.9874,0.0,0.0,0.0,0.0,0.0,0.0,-2.1251,-2.2062,-2.2436,-2.2659,-2.2685,-2.2685,-2.2712,-2.2694,-2.2825,-2.3003,-2.3253,-2.2576,-2.2175,-2.2234,-2.1401,0.0,0.0,0.0,0.0,0.0,0.0,0.0,0.0,0.0,0.0,0.0,0.0,0.0,0.0,0.0,0.0,0.0,0.0,0.0,0.0,-2.3675,0.0,0.0,0.0,0.0,0.0,0.0,0.0,0.0,0.0,-2.4476,-2.4642,-2.4673,-2.4676,-2.4596,0.0,0.0,0.0,0.0,-2.4599,-2.4687,-2.4764,-2.4791,-2.4782,-2.4794,-2.4757,-2.4642,0.0,0.0,-2.4775,-2.4907,-2.4942,-2.5048,-2.5012,-2.464,-2.3189,-2.3053,-2.3116,-2.3048,-2.3062,-2.2991,-2.2984,-2.3118,-2.3072,-2.2016,0.0,0.0,0.0,0.0,-2.0045,-2.0074,-2.0571,-2.0132,-1.9952,-1.9981,-1.9981,0.0,0.0,0.0,0.0,0.0,0.0,-1.9981,-2.003,-2.0904,-2.1212,-2.1034,-2.1228,-2.1294,-2.1277,-2.1262,-2.1262,-2.1214,-2.0873,-2.0634,-2.0526,0.0,0.0,0.0,0.0,-2.1343,-2.1853,-2.1945,-2.2147,-2.247,-2.247,-2.2605,-2.2842,-2.2893,-2.302,-2.3289,-2.3077,-2.2976,-2.3051,-2.2282,0.0,0.0,0.0,0.0,0.0,0.0,0.0,0.0,0.0,0.0,0.0,0.0,0.0,0.0,0.0,0.0,0.0,0.0,0.0,-2.2508,-2.3522,-2.4074,0.0,0.0,0.0,0.0,0.0,0.0,0.0,0.0,0.0,-2.4339,-2.4445,-2.4478,0.0,0.0,-2.4375,-2.45,-2.4498,-2.4532,-2.4566,-2.4647,0.0,-2.4599,-2.4666,-2.4679,-2.4545,-2.458,-2.4631,-2.4711,-2.4772,-2.4779,-2.4808,-2.4861,-2.4738,-2.4371,-2.4334,-2.4395,-2.4358,-2.4331,-2.4339,-2.4335,-2.4324,-2.4305,-2.2859,-2.2035,-2.1968,-2.1968,-2.1937,-2.152,-2.1666,-2.2085,-2.173,-2.1568,-2.1568,-2.1568,-2.1325,-2.0886,-2.061,0.0,0.0,0.0,-2.0694,-2.0726,-2.1115,-2.1294,-2.1294,-2.1294,-2.1294,-2.1294,-2.1294,-2.1294,-2.1294,-2.1294,-2.123,-2.1135,0.0,-2.1183,-2.1262,-2.1309,-2.1464,-2.1768,-2.1903,-2.2106,-2.2394,-2.2487,-2.2605,-2.2799,-2.2868,-2.302,-2.3217,-2.3265,-2.3354,-2.3448,-2.2899,-2.2445,0.0,0.0,0.0,0.0,0.0,0.0,0.0,0.0,0.0,0.0,0.0,-2.0271,-2.0841,0.0,0.0,0.0,-2.2042,-2.2425,-2.2973,-2.3585,0.0,0.0,0.0,0.0,0.0,0.0,0.0,-2.4151,-2.419,-2.4209,-2.417,-2.421,-2.4229,-2.421,-2.4191,-2.421,-2.4303,0.0,-2.4375,-2.4355,-2.4515,-2.4601,-2.4513,-2.4566,-2.4601,-2.4532,-2.4532,-2.4582,-2.465,-2.4663,-2.466,-2.4673,-2.4707,-2.4711,-2.4695,-2.4742,-2.4832,-2.4883,-2.4891,-2.491,-2.4902,-2.4902,-2.4902,-2.3657,-2.364,-2.3449,-2.3333,-2.3291,-2.3326,-2.3361,-2.3513,-2.3497,-2.3513,-2.3513,-2.3513,-2.3513,-2.3464,-2.2782,0.0,-2.1487,-2.1487,-2.1503,-2.1487,-2.1455,-2.1487,-2.1487,-2.1487,-2.1487,-2.1455,-2.1455,-2.1487,-2.1503,-2.1503,-2.1423,-2.1376,-2.1376,-2.1327,-2.1231,-2.1386,-2.1573,-2.1777,-2.2178,-2.244,-2.2508,-2.274,-2.2831,-2.2875,-2.2963,-2.3082,-2.3207,-2.3276,-2.336,-2.3494,-2.3313,-2.2971,-2.2429,0.0,0.0,0.0,0.0,0.0,0.0,0.0,0.0,0.0,0.0,0.0,0.0,0.0,0.0,0.0,-2.3048,0.0,-2.3732,-2.3753,0.0,0.0,0.0,-2.3774,-2.3606,-2.3858,-2.4074,-2.4056,0.0,0.0,-2.4074,-2.4034,-2.4014,-2.4054,-2.4016,-2.3996,-2.3996,-2.4096,-2.4191,-2.4192,-2.4358,-2.4446,-2.4447,-2.4446,-2.4482,-2.4465,-2.45,-2.4534,-2.4582,-2.4599,-2.4599,-2.4599,-2.4591,-2.4588,-2.4515,-2.4517,-2.4582,-2.4818,-2.4861,-2.4861,-2.4847,-2.4847,-2.4847,-2.5114,-2.5098,-2.5061,-2.4446,-2.3479,-2.3462,-2.3479,-2.3513,-2.3513,-2.3513,-2.3513,-2.3513,-2.3513,-2.3497,-2.3335,-2.3122,-2.296,-2.296,-2.296,-2.296,-2.296,-2.301,-2.296,-2.296,-2.2977,-2.296,-2.296,-2.296,-2.296,-2.2994,-2.296,-2.296,-2.2927,-2.236,-2.1247,-2.123,-2.1584,-2.2232,-2.236,-2.275,-2.3453,-2.389,-2.4206,-2.4288,-2.4023,-2.3997,-2.4148,-2.3721,-2.3471,-2.3494,-2.3471,-2.3602,-2.3993,-2.3342,0.0,0.0,0.0,0.0,0.0,0.0,0.0,0.0,0.0,-2.1673,-2.231,0.0,-2.2669,0.0,-2.3361,-2.3427,-2.3206,-2.3353,0.0,0.0,-2.3412,-2.3458,-2.344,-2.3646,-2.3774,-2.3714,-2.3896,-2.3996,-2.3896,-2.3852,-2.3847,-2.3807,-2.3891,-2.3935,-2.3935,-2.3958,-2.3998,-2.4056,-2.4095,-2.4114,-2.4134,-2.421,-2.4284,-2.4266,-2.4393,-2.45,-2.4517,-2.4515,-2.4515,-2.4515,-2.4532,-2.4497,-2.45,-2.45,-2.4517,-2.4582,-2.4599,-2.4596,-2.4615,-2.4615,-2.4599,-2.5486,-2.5317,-2.554,-2.5035,-2.4131,-2.4346,-2.4309,-2.4115,-2.4346,-2.4293,-2.4131,-2.4329,-2.4434,-2.4434,-2.4418,-2.424,-2.3948,-2.3951,-2.3805,-2.3513,-2.3513,-2.3513,-2.3513,-2.3513,-2.3513,-2.3513,-2.3513,-2.3513,-2.3513,-2.3513,-2.3513,-2.3513,-2.3513,-2.3074,-2.2263,-2.2231,-2.2442,-2.2863,-2.2981,-2.3326,-2.3951,-2.429,-2.434,-2.4147,-2.3994,-2.3876,-2.3743,-2.3495,-2.3336,-2.3313,-2.3313,-2.3507,-2.3883,-2.3422,-2.327,0.0,0.0,0.0,0.0,0.0,0.0,0.0,0.0,0.0,0.0,0.0,-2.2977,-2.3199,-2.3212,-2.3188,-2.3052,-2.3193,-2.3223,-2.3144,-2.3241,-2.3289,-2.3206,-2.3427,-2.3566,-2.3588,-2.3774,-2.3876,-2.3855,-2.3834,-2.3828,-2.3743,-2.3768,-2.3789,-2.3747,-2.3771,-2.3816,-2.3858,-2.3937,-2.3978,-2.3978,-2.4075,-2.4096,-2.4115,-2.421,-2.4284,-2.4284,-2.4284,-2.4284,-2.4266,-2.4283,-2.4281,-2.4284,-2.4284,-2.4266,-2.4266,-2.4266,-2.4339,-2.4465,-2.45,-2.4482,-2.5404,-2.5163,-2.5577,-2.5532,-2.529,-2.5628,-2.5384,-2.4863,-2.5317,-2.5317,-2.5013,-2.5432,-2.5616,-2.5616,-2.5616,-2.526,-2.4644,-2.4644,-2.4321,-2.377,-2.3754,-2.3789,-2.3754,-2.377,-2.3789,-2.3789,-2.3789,-2.3789,-2.3789,-2.3789,-2.3754,-2.3789,-2.3754,-2.3789,-2.3772,-2.3772,-2.374,-2.3643,-2.3898,-2.4149,-2.4397,-2.433,-2.4059,-2.359,-2.359,-2.3423,-2.2946,-2.3098,-2.3144,-2.3095,-2.3095,-2.3182,-2.3358,-2.3136,-2.3094,0.0,-2.3145,0.0,0.0,0.0,0.0,0.0,0.0,0.0,0.0,-2.2902,-2.2963,-2.3084,-2.3058,-2.3093,-2.3325,-2.3325,-2.3317,-2.3172,-2.3288,-2.3309,-2.3117,-2.3265,-2.3392,-2.3518,-2.3606,-2.371,-2.3792,-2.3813,-2.3771,-2.37,-2.3678,-2.3616,-2.3539,-2.3616,-2.3689,-2.3671,-2.3816,-2.3876,-2.3915,-2.3935,-2.3976,-2.3958,-2.3998,-2.3978,-2.3998,-2.3998,-2.3998,-2.3999,-2.4026,-2.3989,-2.3981,-2.3994,-2.3992,-2.4016,-2.4036,-2.4114,-2.4339,-2.4412,-2.4447,-2.5863,-2.6341,-2.6451,-2.6758,-2.7122,-2.6818,-2.5796,-2.4467,-2.4855,-2.5224,-2.547,-2.5578,-2.5616,-2.5616,-2.5616,-2.5535,-2.5405,-2.5405,-2.5341,-2.5211,-2.5195,-2.5211,-2.5211,-2.5211,-2.5195,-2.5211,-2.5211,-2.5211,-2.5211,-2.5211,-2.5227,-2.5211,-2.5211,-2.5211,-2.5211,0.0,0.0,0.0,-2.4924,-2.5269,-2.5342,-2.5055,-2.4946,-2.4894,-2.4117,0.0,-2.3665,-2.3232,-2.2952,-2.2944,-2.2944,0.0,0.0,0.0,0.0,0.0,0.0,0.0,0.0,0.0,0.0,0.0,-2.4643,-2.4315,-2.365,-2.3663,-2.369,-2.3663,-2.369,-2.3977,-2.4573,-2.4659,-2.4631,-2.4596,-2.4071,-2.369,-2.3646,-2.3387,-2.3133,-2.3109,-2.3259,-2.3376,-2.3435,-2.3324,-2.3277,-2.3307,-2.3365,-2.3394,-2.3372,-2.3534,-2.3589,-2.3544,-2.3589,-2.3611,-2.3607,-2.3685,-2.3774,-2.3774,-2.3896,-2.3976,-2.3976,-2.3978,-2.3996,-2.3996,-2.3981,-2.3984,-2.3978,-2.3991,-2.3977,-2.3992,-2.3978,-2.4016,-2.4075,-2.4095,-2.4095,-2.5958,-2.6127,-2.6372,-2.6518,0.0,-2.6301,-2.5591,-2.4657,-2.5512,-2.6149,-2.6652,-2.6652,-2.6341,-2.583,-2.6057,-2.5825,-2.5278,-2.5486,-2.5616,-2.5616,-2.5616,-2.5616,-2.5632,-2.5972,-2.5956,-2.5632,-2.5972,-2.5972,-2.5632,-2.5616,-2.5616,-2.5616,-2.5616,-2.5616,-2.5616,-2.5616,-2.5422,-2.5049,-2.5422,-2.5616,-2.56,-2.5444,-2.5248,-2.5026,-2.4545,0.0,0.0,0.0,0.0,0.0,0.0,0.0,0.0,-2.4359,-2.4513,-2.5248,-2.4897,-2.4802,-2.5142,-2.5268,-2.533,-2.536,-2.5468,-2.5212,-2.4471,-2.443,-2.443,-2.4402,-2.443,-2.4585,-2.4954,-2.5005,-2.5005,-2.4971,-2.4643,-2.4402,-2.4333,-2.3821,-2.3502,-2.3535,-2.3337,-2.3223,-2.3342,-2.3277,-2.3382,-2.3643,-2.3739,-2.3763,-2.3703,-2.3638,-2.3585,-2.3562,-2.3522,-2.3539,-2.3522,-2.3567,-2.3598,-2.3598,-2.3682,-2.3747,-2.3747,-2.3747,-2.3747,-2.3747,-2.3765,-2.3747,-2.3765,-2.3759,-2.3768,-2.3757,-2.3747,-2.3765,-2.3807,-2.3915,-2.4054,-2.6047,-2.5813,-2.6199,-2.6229,-2.5993,-2.5884,-2.5716,-2.5604,-2.6443,0.0,0.0,-2.7705,-2.7264,-2.643,-2.6894,-2.643,-2.5298,-2.5908,-2.6037,-2.5826,-2.594,-2.5988,-2.6021,-2.6604,-2.6506,-2.5859,-2.6539,-2.6442,-2.5664,-2.5821,-2.5843,-2.5648,-2.5745,-2.5707,-2.5632,-2.5724,-2.5772,-2.5756,-2.5664,-2.5616,-2.5616,-2.5486,-2.5204,-2.4778,-2.472,-2.4462,-2.4,-2.4368,-2.4447,-2.4163,-2.4461,-2.456,-2.4411,-2.4601,-2.4669,-2.4611,-2.474,-2.5056,-2.5514,-2.5762,-2.5924,-2.6004,-2.6193,-2.5954,-2.5092,-2.5109,-2.5195,-2.5212,-2.5195,-2.5247,-2.5402,-2.5419,-2.5402,-2.5402,-2.5298,-2.5195,-2.5143,-2.4505,-2.4105,-2.4225,-2.3842,-2.3473,-2.3682,-2.3682,-2.3816,-2.4295,-2.4375,-2.427,-2.4112,-2.3724,-2.343,-2.3448,-2.3453,-2.3539,-2.3539,-2.3562,-2.3517,-2.3539,-2.3517,-2.3494,-2.3494,-2.3494,-2.3494,-2.3539,-2.3517,-2.3517,-2.3517,-2.3534,-2.3517,-2.3499,-2.3499,-2.3539,-2.3629,-2.3828,-2.4014,-2.6505,-2.6995,-2.7041,-2.7379,-2.7867,-2.7429,-2.7524,-2.7921,-2.6965,-2.679,-2.7211,-2.7812,-2.7933,-2.7841,-2.8434,-2.7892,-2.665,-2.7779,-2.7705,-2.6587,-2.7154,-2.7413,-2.7413,-2.7527,-2.7203,-2.6636,-2.7235,-2.6895,-2.5875,-2.6814,-2.6814,-2.5826,-2.6231,-2.6247,-2.5691,-2.6257,-2.6564,-2.6539,-2.5924,-2.5616,-2.56,-2.5037,-2.47,-2.4606,-2.4226,-2.3917,-2.3819,-2.3968,-2.3967,-2.3951,-2.4016,-2.4331,-2.4996,-2.4876,-2.5192,-2.5981,-2.5909,-2.6029,-2.6555,-2.6622,-2.6787,-2.7063,-2.7126,-2.654,-2.5178,-2.5592,-2.5954,-2.5954,-2.5954,-2.6247,-2.6851,-2.6919,-2.6885,-2.6868,-2.6333,-2.5954,-2.5937,-2.5298,-2.4833,-2.489,-2.4764,-2.4626,-2.4653,-2.4631,-2.4591,-2.481,-2.4958,-2.4861,-2.4322,-2.3492,-2.308,-2.3077,-2.3223,-2.3336,-2.336,-2.3494,-2.3517,-2.3585,-2.3517,-2.343,-2.3448,-2.343,-2.343,-2.3494,-2.3453,-2.3476,-2.3494,-2.3494,-2.3517,-2.3562,-2.3562,-2.3607,-2.3656,-2.3786,-2.3828,-2.7006,-2.7011,-2.6981,-2.7175,-2.7473,-2.7572,-2.7998,-2.8571,-2.8311,-2.8435,-2.8817,-2.9092,-2.891,-2.8389,-2.8889,-2.8574,-2.7658,-2.8519,-2.8742,-2.8433,-2.8336,-2.8288,-2.8288,-2.8288,-2.7915,-2.7316,-2.7964,-2.7753,-2.6895,-2.7413,-2.7397,-2.6798,-2.7089,-2.7089,-2.6798,-2.7064,-2.721,-2.7251,-2.6929,-2.6767,-2.6749,-2.6108,-2.5735,-2.5735,-2.511,-2.4772,-2.4772,-2.4968,-2.4952,-2.4827,-2.4968,-2.5135,-2.5373,-2.5442,-2.5609,-2.5957,-2.599,-2.6046,-2.6154,-2.6279,-2.6487,-2.6775,-2.694,-2.6749,-2.6031,-2.643,-2.6747,-2.6747,-2.6747,-2.6885,-2.7264,-2.7299,-2.7299,-2.7299,-2.6954,-2.6764,-2.6678,-2.6074,-2.5609,-2.5574,-2.5217,-2.4976,-2.5005,-2.4947,-2.5077,-2.5416,-2.5562,-2.5436,-2.5115,-2.4029,-2.316,-2.3057,-2.3095,-2.3126,-2.3126,-2.3168,-2.3217,-2.3217,-2.3193,-2.3168,-2.3144,-2.3119,-2.3102,-2.3084,-2.32,-2.3277,-2.3295,-2.3424,-2.3517,-2.3562,-2.3585,-2.3629,-2.3721,-2.3786,-2.3789,-2.7447,-2.6997,-2.6837,-2.6866,-2.707,-2.7824,-2.8434,-2.8942,-2.9552,-2.9982,-3.028,-3.0288,-2.9801,-2.9074,-2.9509,-2.9312,-2.8694,-2.9373,-2.9783,-2.9875,-2.9653,-2.9518,-2.9502,-2.9356,-2.8887,-2.832,-2.8773,-2.8579,-2.7834,-2.8029,-2.8093,-2.7948,-2.7786,-2.7721,-2.7721,-2.7859,-2.794,-2.7964,-2.8114,-2.8033,-2.7721,-2.7187,-2.6927,-2.6879,-2.6393,-2.6085,-2.6069,-2.6297,-2.6281,-2.6113,-2.6118,-2.6118,-2.6081,-2.5971,-2.5954,-2.6059,-2.615,-2.6155,-2.6168,-2.6447,-2.662,-2.6634,-2.6842,-2.6911,-2.6842,-2.7055,-2.7218,-2.7282,-2.7184,-2.7184,-2.7313,-2.733,-2.733,-2.7345,-2.733,-2.7279,-2.7293,-2.6761,-2.6398,-2.6372,-2.591,-2.5557,-2.5535,-2.5535,-2.5751,-2.6172,-2.6213,-2.6148,-2.5826,-2.4774,-2.3967,-2.3465,-2.3145,-2.2944,-2.2927,-2.2944,-2.2944,-2.2919,-2.2919,-2.2919,-2.2893,-2.2825,-2.2799,-2.2816,-2.2923,-2.3028,-2.3084,-2.3217,-2.3336,-2.3407,-2.3407,-2.3476,-2.3589,-2.3638,-2.3728,-2.7708,-2.7563,-2.7055,-2.7128,-2.7712,-2.8927,-2.945,-2.9595,-3.0205,-3.0526,-3.0543,-3.0572,-3.0499,-3.0484,-3.0964,-3.0447,-2.9454,-3.1109,-3.1239,-3.0323,-3.118,-3.1704,-3.1575,-3.1008,-3.036,-2.9789,-2.9821,-2.9178,-2.8077,-2.9097,-2.9399,-2.8676,-2.8045,-2.7802,-2.7818,-2.8403,-2.8712,-2.8709,-2.9356,-2.9049,-2.7802,-2.7656,-2.7624,-2.7624,-2.7543,-2.751,-2.7429,-2.7551,-2.7526,-2.7483,-2.6948,-2.6893,-2.7264,-2.6346,-2.6237,-2.7348,-2.6967,-2.6948,-2.7738,-2.8163,-2.7981,-2.7487,-2.737,-2.7211,-2.6826,-2.6825,-2.6973,-2.7169,-2.7023,-2.7103,-2.7404,-2.7376,-2.7376,-2.7483,-2.739,-2.7345,-2.7434,-2.7324,-2.7286,-2.7554,-2.7122,-2.712,-2.7022,-2.6961,-2.7006,-2.6992,-2.6911,-2.6691,-2.6193,-2.5754,-2.5227,-2.4569,-2.366,-2.2893,-2.2807,-2.2893,-2.2893,-2.2944,-2.2919,-2.2842,-2.2816,-2.2816,-2.285,-2.2677,-2.2868,-2.2877,-2.2902,-2.2952,-2.2995,-2.3144,-2.3168,-2.3119,-2.3157,-2.3253,-2.344,-2.8637,-2.826,-2.8013,-2.8274,-2.8898,-2.9363,-2.9827,-3.0205,-3.0451,-3.0642,-3.0642,-3.0642,-3.0642,-3.0628,-3.0851,-3.0994,-3.1217,-3.1936,-3.2379,-3.2415,-3.2611,-3.2643,-3.2562,-3.1898,-3.1396,-3.1154,-3.1137,-3.083,-3.0457,-3.0846,-3.0975,-3.0652,-2.9955,-2.9632,-2.9615,-2.9513,-2.9432,-2.948,-2.9756,-2.961,-2.9016,-2.8563,-2.8352,-2.8304,-2.7948,-2.7721,-2.7721,-2.7721,-2.7721,-2.7695,-2.7429,-2.7429,-2.7662,-2.7153,-2.7089,-2.764,-2.7462,-2.7494,-2.7954,-2.801,-2.7755,-2.7049,-2.7189,-2.7005,-2.6414,-2.6314,-2.6453,-2.6742,-2.7021,-2.7307,-2.7465,-2.7526,-2.7569,-2.76,-2.7569,-2.7526,-2.7496,-2.7509,-2.7557,-2.7496,-2.7526,-2.7465,-2.739,-2.7345,-2.7299,-2.7282,-2.7233,-2.7095,-2.6802,-2.6327,-2.5867,-2.5468,-2.4608,-2.3807,-2.3292,-2.2757,-2.2674,-2.2596,-2.2552,-2.2525,-2.2515,-2.2487,-2.246,-2.2409,-2.2573,-2.2661,-2.2649,-2.285,-2.2972,-2.3006,-2.3144,-2.3193,-2.3223,-2.3223,-2.3371,-2.9377,-2.8971,-2.8942,-2.9203,-2.9624,-2.9813,-3.0147,-3.0539,-3.0642,-3.0642,-3.0642,-3.0642,-3.0642,-3.0642,-3.0642,-3.1073,-3.1823,-3.2048,-3.2586,-3.3339,-3.3201,-3.3158,-3.3078,-3.2595,-3.2303,-3.2271,-3.206,-3.1996,-3.2028,-3.2028,-3.2028,-3.1931,-3.1477,-3.1189,-3.1137,-3.0502,-3.0173,-3.0178,-3.0004,-2.9918,-2.9837,-2.9399,-2.9081,-2.9049,-2.8579,-2.8304,-2.8304,-2.8288,-2.8281,-2.8306,-2.8102,-2.8086,-2.829,-2.7924,-2.7802,-2.8012,-2.819,-2.8345,-2.8453,-2.8371,-2.7956,-2.7169,-2.7218,-2.6977,-2.6277,-2.6046,-2.6173,-2.6487,-2.7021,-2.7355,-2.7448,-2.7612,-2.7701,-2.776,-2.773,-2.7672,-2.7677,-2.7689,-2.7642,-2.7574,-2.7659,-2.7612,-2.7421,-2.7376,-2.7376,-2.7313,-2.7489,-2.7609,-2.7558,-2.7095,-2.6685,-2.6623,-2.5794,-2.4812,-2.3944,-2.3227,-2.2711,-2.2547,-2.2558,-2.231,-2.2242,-2.2242,-2.2242,-2.2349,-2.2389,-2.2434,-2.2466,-2.2696,-2.2836,-2.2886,-2.2977,-2.307,-2.2977,-2.3052,-2.3175,-2.9624,-2.9595,-2.9581,-2.961,-2.9682,-3.0248,-3.0524,-3.0642,-3.0642,-3.0642,-3.0642,-3.0642,-3.0642,-3.0642,-3.0642,-3.0642,-3.0807,-3.1364,-3.1652,-3.1905,-3.2763,-3.3187,-3.3224,-3.3092,-3.3048,-3.2983,-3.2465,-3.2174,-3.2125,-3.2077,-3.2028,-3.2044,-3.1996,-3.1963,-3.1834,-3.1238,-3.0831,-3.0797,-3.0328,-2.9983,-2.9951,-2.9886,-2.9853,-2.9805,-2.9789,-2.9708,-2.974,-2.9789,-2.9756,-2.9772,-2.9124,-2.9016,-2.9562,-2.8466,-2.8093,-2.8709,-2.9383,-2.9783,-2.9821,-2.9745,-2.9251,-2.8095,-2.7858,-2.7388,-2.6379,-2.6234,-2.6327,-2.6624,-2.6858,-2.7085,-2.7289,-2.7504,-2.7748,-2.7911,-2.7806,-2.7806,-2.794,-2.7806,-2.7847,-2.7968,-2.7836,-2.7642,-2.7478,-2.7496,-2.7473,-2.7535,-2.792,-2.8316,-2.8334,-2.8265,-2.8159,-2.7858,-2.6951,-2.5665,-2.4735,-2.3913,-2.3498,-2.3321,-2.3004,-2.2496,-2.2361,-2.2299,-2.235,-2.235,-2.2479,-2.2525,-2.2361,-2.2355,-2.2456,-2.2542,-2.2579,-2.2632,-2.2773,-2.2659,-2.2799,-3.0582,-3.0234,-3.0234,-3.0234,-3.0248,-3.048,-3.0642,-3.0642,-3.0642,-3.0642,-3.0642,-3.0642,-3.0642,-3.0642,-3.0642,-3.0807,-3.119,-3.1422,-3.1709,-3.2104,-3.2879,-3.3198,-3.3219,-3.3558,-3.3728,-3.368,-3.3469,-3.334,-3.334,-3.334,-3.334,-3.3242,-3.2902,-3.2692,-3.2579,-3.1948,-3.1593,-3.1577,-3.1352,-3.1029,-3.0587,-3.0554,-3.0344,-2.9951,-2.9918,-2.9918,-2.9918,-2.9918,-2.9918,-2.9918,-2.9643,-2.9643,-2.9821,-2.9389,-2.9237,-2.954,-2.9756,-2.9946,-3.0119,-3.0076,-2.9609,-2.8821,-2.8674,-2.8092,-2.7043,-2.6681,-2.6574,-2.6358,-2.6505,-2.6707,-2.6822,-2.7147,-2.7491,-2.7748,-2.773,-2.7795,-2.794,-2.7996,-2.7996,-2.7893,-2.7777,-2.7612,-2.7461,-2.7448,-2.7656,-2.8063,-2.8295,-2.861,-2.9006,-2.9127,-2.8987,-2.8479,-2.793,-2.7235,-2.6361,-2.4995,-2.4207,-2.4143,-2.3926,-2.3795,-2.3659,-2.3604,-2.3655,-2.3175,-2.3085,-2.2756,-2.2637,-2.2432,-2.246,-2.2542,-2.2552,-2.2525,-2.2632,-2.2659,-2.279,-3.1264,-3.0887,-3.0655,-3.0642,-3.0642,-3.0642,-3.0642,-3.0642,-3.0642,-3.0642,-3.0642,-3.0642,-3.0642,-3.0642,-3.0642,-3.0807,-3.1204,-3.1204,-3.1422,-3.1823,-3.2391,-3.2664,-3.2772,-3.3439,-3.3815,-3.3866,-3.405,-3.4101,-3.4101,-3.4101,-3.4101,-3.4036,-3.3615,-3.3404,-3.3323,-3.2724,-3.2369,-3.232,-3.2143,-3.174,-3.1286,-3.1267,-3.0943,-3.0328,-3.0198,-3.0085,-2.9935,-2.9918,-2.9918,-2.9918,-2.9918,-2.9918,-2.9918,-2.9918,-2.9902,-2.9946,-2.9886,-2.9946,-3.0103,-3.006,-2.975,-2.919,-2.9075,-2.8567,-2.7531,-2.7383,-2.7038,-2.6623,-2.6573,-2.6703,-2.6537,-2.6691,-2.7053,-2.7465,-2.7762,-2.7809,-2.7771,-2.8158,-2.8169,-2.7993,-2.7911,-2.773,-2.7478,-2.7691,-2.7927,-2.8349,-2.8663,-2.9283,-2.9626,-2.9816,-2.9748,-2.9177,-2.8643,-2.8125,-2.7402,-2.6327,-2.5316,-2.5118,-2.4679,-2.4669,-2.4754,-2.4781,-2.4607,-2.4079,-2.3625,-2.322,-2.2887,-2.2637,-2.2605,-2.2685,-2.2685,-2.2632,-2.2712,-2.279,-2.2919,-3.1526,-3.1395,-3.0829,-3.0642,-3.0642,-3.0642,-3.0642,-3.0642,-3.0642,-3.0642,-3.0642,-3.0642,-3.0642,-3.0642,-3.0642,-3.0642,-3.0687,-3.0687,-3.0747,-3.0866,-3.1364,-3.1637,-3.1694,-3.2772,-3.3355,-3.3407,-3.3866,-3.4101,-3.4101,-3.4101,-3.4101,-3.4101,-3.4052,-3.3971,-3.4068,-3.342,-3.3113,-3.2983,-3.2546,-3.2125,-3.2028,-3.2012,-3.1672,-3.1024,-3.0898,-3.0652,-3.0064,-2.9967,-2.9918,-2.9918,-2.9918,-2.9918,-2.9918,-2.9918,-2.9918,-2.9918,-2.9918,-2.9946,-2.9973,-3.0017,-2.9766,-2.937,-2.9214,-2.8976,-2.8366,-2.8223,-2.7965,-2.7429,-2.7284,-2.7068,-2.6471,-2.6374,-2.6622,-2.7105,-2.7696,-2.7764,-2.7601,-2.8136,-2.8592,-2.8145,-2.8096,-2.8003,-2.7822,-2.8206,-2.8551,-2.8596,-2.9296,-3.0135,-3.027,-3.0448,-3.0606,-3.0208,-2.9454,-2.8646,-2.8161,-2.7656,-2.6791,-2.6065,-2.547,-2.5183,-2.532,-2.5367,-2.5265,-2.4851,-2.4224,-2.3812,-2.3168,-2.2944,-2.277,-2.2789,-2.2754,-2.2712,-2.2816,-2.2919,-2.3028,-3.1932,-3.1453,-3.0829,-3.0642,-3.0642,-3.0642,-3.0642,-3.0642,-3.0642,-3.0642,-3.0642,-3.0642,-3.0642,-3.0642,-3.0642,-3.0642,-3.0642,-3.0642,-3.0642,-3.0687,-3.1204,-3.148,-3.1694,-3.2648,-3.3423,-3.3815,-3.3984,-3.4101,-3.4101,-3.4101,-3.4101,-3.4101,-3.4101,-3.4101,-3.4084,-3.389,-3.3777,-3.3761,-3.3566,-3.3242,-3.2805,-3.2757,-3.24,-3.1769,-3.1672,-3.1542,-3.1316,-3.0437,-2.9951,-2.9935,-2.9918,-2.9918,-2.9918,-2.9918,-2.9918,-2.9918,-2.9918,-2.9902,-2.9989,-3.0092,-3.0113,-2.9995,-2.9996,-2.9733,-2.9161,-2.9046,-2.8731,-2.8196,-2.8063,-2.7781,-2.7131,-2.6932,-2.6985,-2.6842,-2.7062,-2.7315,-2.7373,-2.7552,-2.7451,-2.7284,-2.7989,-2.8395,-2.8334,-2.8888,-2.9615,-2.973,-3.0228,-3.0548,-3.0747,-3.0823,-3.0313,-2.9434,-2.914,-2.8922,-2.8133,-2.7635,-2.719,-2.6678,-2.6216,-2.5908,-2.5994,-2.6011,-2.5922,-2.5527,-2.4901,-2.431,-2.3677,-2.3256,-2.3099,-2.2928,-2.2833,-2.2877,-2.2962,-2.3045,-2.3168,-3.2266,-3.1801,-3.093,-3.0642,-3.0642,-3.0642,-3.0642,-3.0642,-3.0642,-3.0642,-3.0642,-3.0642,-3.0642,-3.0642,-3.0642,-3.0642,-3.0642,-3.0642,-3.0642,-3.0642,-3.097,-3.1146,-3.1248,-3.2114,-3.3039,-3.3646,-3.3764,-3.3866,-3.4101,-3.4101,-3.4101,-3.4101,-3.4101,-3.4101,-3.4101,-3.4101,-3.4101,-3.4101,-3.4068,-3.389,-3.3566,-3.3453,-3.3129,-3.2514,-3.2417,-3.2271,-3.1996,-3.1105,-3.0538,-3.0263,-3.008,-2.9935,-2.9918,-2.9918,-2.9918,-2.9918,-2.9918,-2.9902,-2.9989,-3.0065,-3.0195,-3.0333,-3.0401,-3.0303,-2.9873,-2.9831,-2.9516,-2.892,-2.8754,-2.8472,-2.7898,-2.7715,-2.7594,-2.7375,-2.7125,-2.7232,-2.764,-2.757,-2.7604,-2.7827,-2.8555,-2.8762,-2.8852,-2.9369,-3.023,-3.0505,-3.0651,-3.0834,-3.1021,-3.1021,-3.0196,-2.9517,-2.9256,-2.874,-2.7845,-2.7538,-2.7434,-2.7177,-2.6933,-2.6811,-2.6794,-2.6808,-2.6736,-2.6045,-2.5411,-2.489,-2.4292,-2.3744,-2.3457,-2.3239,-2.3076,-2.308,-2.3144,-2.3168,-2.3241,-3.2513,-3.2353,-3.1119,-3.0642,-3.0642,-3.0642,-3.0642,-3.0642,-3.0642,-3.0642,-3.0642,-3.0642,-3.0642,-3.0642,-3.0642,-3.0642,-3.0642,-3.0642,-3.0642,-3.0642,-3.0687,-3.0747,-3.097,-3.148,-3.2296,-3.3145,-3.3303,-3.3594,-3.405,-3.4101,-3.4101,-3.4101,-3.4101,-3.4101,-3.4101,-3.4101,-3.4101,-3.4101,-3.4101,-3.4068,-3.402,-3.4036,-3.3777,-3.3161,-3.3129,-3.2886,-3.24,-3.2077,-3.1623,-3.0959,-3.0295,-3.0048,-2.9935,-2.9918,-2.9918,-2.9918,-2.9918,-2.9918,-2.9918,-3.0006,-3.0136,-3.0231,-3.0375,-3.0459,-3.0385,-3.0303,-3.0145,-2.9566,-2.9466,-2.9201,-2.8605,-2.8423,-2.8395,-2.8296,-2.7753,-2.7835,-2.8592,-2.8193,-2.8146,-2.8851,-2.9317,-2.9333,-2.9098,-2.9726,-3.0136,-3.0281,-3.0661,-3.0948,-3.0988,-3.0925,-3.0845,-3.0246,-2.9482,-2.8728,-2.788,-2.7805,-2.7638,-2.6945,-2.6892,-2.704,-2.7186,-2.7201,-2.7181,-2.6505,-2.5939,-2.5443,-2.496,-2.4441,-2.3956,-2.3653,-2.3519,-2.3386,-2.3289,-2.3307,-2.3313,-3.2513,-3.2367,-3.1119,-3.0642,-3.0642,-3.0642,-3.0642,-3.0642,-3.0642,-3.0642,-3.0642,-3.0642,-3.0642,-3.0642,-3.0642,-3.0642,-3.0642,-3.0642,-3.0642,-3.0642,-3.0642,-3.0866,-3.119,-3.1422,-3.2074,-3.3039,-3.3145,-3.3527,-3.4034,-3.4101,-3.4101,-3.4101,-3.4101,-3.4101,-3.4101,-3.4101,-3.4101,-3.4101,-3.4101,-3.4101,-3.4101,-3.4101,-3.4036,-3.3874,-3.3809,-3.3712,-3.3501,-3.3064,-3.2174,-3.0995,-3.0781,-3.0393,-3.0016,-2.9935,-2.9918,-2.9918,-2.9918,-2.9902,-3.0006,-3.0065,-3.0195,-3.0316,-3.0401,-3.0485,-3.0468,-3.0468,-3.0369,-3.0228,-3.0212,-2.9914,-2.9317,-2.9135,-2.8936,-2.8456,-2.8274,-2.8301,-2.846,-2.8394,-2.8402,-2.8661,-2.9394,-2.9705,-2.9909,-3.0428,-3.098,-3.0857,-3.0836,-3.0942,-3.0821,-3.0609,-3.0468,-3.0011,-2.9337,-2.8685,-2.818,-2.8135,-2.7727,-2.6789,-2.6624,-2.6792,-2.7007,-2.7201,-2.7115,-2.6825,-2.6417,-2.5949,-2.5631,-2.5213,-2.4726,-2.4207,-2.3902,-2.3726,-2.3466,-2.3378,-2.3424,-3.2353,-3.2019,-3.1003,-3.0642,-3.0642,-3.0642,-3.0642,-3.0642,-3.0642,-3.0642,-3.0642,-3.0642,-3.0642,-3.0642,-3.0642,-3.0642,-3.0642,-3.0642,-3.0642,-3.0642,-3.0642,-3.0807,-3.1029,-3.1146,-3.1751,-3.2734,-3.2895,-3.3351,-3.3933,-3.4101,-3.4101,-3.4101,-3.4101,-3.4101,-3.4101,-3.4101,-3.4101,-3.4101,-3.4101,-3.4101,-3.4101,-3.4101,-3.4101,-3.4084,-3.4101,-3.4101,-3.402,-3.3712,-3.2854,-3.1672,-3.1105,-3.0733,-3.036,-3.0064,-2.9935,-2.9918,-2.9918,-2.9902,-2.9989,-3.0125,-3.0211,-3.0333,-3.0384,-3.0468,-3.0468,-3.0468,-3.0468,-3.0452,-3.0468,-3.0294,-3.0013,-2.988,-2.9698,-2.9433,-2.9284,-2.9135,-2.887,-2.886,-2.8986,-2.933,-2.9799,-3.0208,-3.0191,-3.083,-3.1094,-3.1067,-3.0834,-3.0821,-3.0699,-3.0375,-3.0119,-2.9794,-2.9302,-2.8682,-2.7977,-2.7789,-2.7363,-2.6507,-2.6349,-2.6538,-2.6674,-2.6957,-2.6952,-2.6819,-2.669,-2.6505,-2.6097,-2.5726,-2.5329,-2.4815,-2.4419,-2.4112,-2.3901,-2.3531,-2.3567,-3.2063,-3.1467,-3.0843,-3.0642,-3.0642,-3.0642,-3.0642,-3.0642,-3.0642,-3.0642,-3.0642,-3.0642,-3.0642,-3.0642,-3.0642,-3.0642,-3.0642,-3.0642,-3.0642,-3.0642,-3.0642,-3.0687,-3.0687,-3.0747,-3.1306,-3.2216,-3.2327,-3.3018,-3.3713,-3.3984,-3.4101,-3.4101,-3.4101,-3.4101,-3.4101,-3.4101,-3.4101,-3.4101,-3.4101,-3.4101,-3.4101,-3.4101,-3.4101,-3.4101,-3.4101,-3.4101,-3.4101,-3.3971,-3.3485,-3.2287,-3.1542,-3.114,-3.0959,-3.0279,-3.0016,-2.9935,-2.9918,-2.9902,-2.9962,-3.0082,-3.0228,-3.0248,-3.0401,-3.0468,-3.0468,-3.0468,-3.0468,-3.0468,-3.0468,-3.0477,-3.0444,-3.046,-3.0394,-3.0261,-3.0377,-3.0145,-2.9715,-2.9533,-2.9798,-3.0336,-3.0493,-3.0468,-3.0468,-3.051,-3.0634,-3.0861,-3.074,-3.0699,-3.0593,-3.0401,-3.0179,-3.0033,-2.941,-2.8676,-2.7972,-2.7308,-2.6787,-2.6163,-2.6148,-2.6225,-2.626,-2.6436,-2.659,-2.6556,-2.6471,-2.6434,-2.6374,-2.6027,-2.5681,-2.5374,-2.4927,-2.4679,-2.4445,-2.3943,-2.3797,-3.1642,-3.1467,-3.0843,-3.0642,-3.0642,-3.0642,-3.0642,-3.0642,-3.0642,-3.0642,-3.0642,-3.0642,-3.0642,-3.0642,-3.0642,-3.0642,-3.0642,-3.0642,-3.0642,-3.0642,-3.0642,-3.0642,-3.0642,-3.0642,-3.1029,-3.1709,-3.2231,-3.2749,-3.3371,-3.3866,-3.4101,-3.4101,-3.4101,-3.4101,-3.4101,-3.4101,-3.4101,-3.4101,-3.4101,-3.4101,-3.4101,-3.4101,-3.4101,-3.4101,-3.4101,-3.4101,-3.4101,-3.4101,-3.3939,-3.3566,-3.2951,-3.2125,-3.1267,-3.0814,-3.0441,-3.008,-2.9935,-2.9902,-3.0006,-3.0109,-3.0271,-3.0349,-3.0443,-3.0468,-3.0468,-3.0468,-3.0468,-3.0468,-3.0468,-3.0468,-3.0468,-3.0468,-3.0468,-3.0468,-3.051,-3.046,-3.0311,-3.0261,-3.0328,-3.0402,-3.0468,-3.0468,-3.0468,-3.0485,-3.0551,-3.0634,-3.0593,-3.0551,-3.0485,-3.0359,-3.0248,-3.0092,-2.9751,-2.9,-2.7899,-2.7203,-2.6584,-2.6108,-2.6024,-2.6278,-2.6336,-2.6082,-2.6264,-2.6318,-2.6266,-2.6274,-2.631,-2.6168,-2.5811,-2.5596,-2.5408,-2.5029,-2.4672,-2.4278,-2.3837,-3.1351,-3.1047,-3.0713,-3.0642,-3.0642,-3.0642,-3.0642,-3.0642,-3.0642,-3.0642,-3.0642,-3.0642,-3.0642,-3.0642,-3.0642,-3.0642,-3.0642,-3.0642,-3.0642,-3.0642,-3.0642,-3.0642,-3.0642,-3.0628,-3.0911,-3.1495,-3.212,-3.2695,-3.3214,-3.3764,-3.4101,-3.4101,-3.4101,-3.4101,-3.4101,-3.4101,-3.4101,-3.4101,-3.4101,-3.4101,-3.4101,-3.4101,-3.4101,-3.4101,-3.4101,-3.4101,-3.4101,-3.4101,-3.4101,-3.4003,-3.3728,-3.3097,-3.1996,-3.1299,-3.0749,-3.0441,-3.0048,-2.9978,-2.9989,-3.0109,-3.0254,-3.0375,-3.0443,-3.0468,-3.0468,-3.0468,-3.0468,-3.0468,-3.0468,-3.0468,-3.0468,-3.0468,-3.0468,-3.0468,-3.0468,-3.0468,-3.0468,-3.0468,-3.0468,-3.0468,-3.0468,-3.0468,-3.0468,-3.0485,-3.0443,-3.0526,-3.0526,-3.0443,-3.0359,-3.0274,-3.0182,-3.007,-2.9989,-2.9318,-2.798,-2.7122,-2.649,-2.6124,-2.5967,-2.6444,-2.6889,-2.6433,-2.599,-2.6079,-2.6184,-2.6072,-2.6094,-2.599,-2.6005,-2.6,-2.5773,-2.5305,-2.4895,-2.4488,-2.4017,-3.1061,-3.0642,-3.0642,-3.0642,-3.0642,-3.0642,-3.0642,-3.0642,-3.0642,-3.0642,-3.0642,-3.0642,-3.0642,-3.0642,-3.0642,-3.0642,-3.0642,-3.0642,-3.0642,-3.0642,-3.0642,-3.0642,-3.0642,-3.0628,-3.0792,-3.1364,-3.1936,-3.2461,-3.2895,-3.3594,-3.3815,-3.3933,-3.4101,-3.4101,-3.4101,-3.4101,-3.4101,-3.4101,-3.4101,-3.4101,-3.4101,-3.4101,-3.4101,-3.4101,-3.4101,-3.4101,-3.4101,-3.4101,-3.4101,-3.4101,-3.4101,-3.3793,-3.3097,-3.1963,-3.093,-3.0881,-3.0291,-2.9978,-3.0033,-3.0152,-3.0297,-3.0401,-3.0468,-3.0468,-3.0468,-3.0468,-3.0468,-3.0468,-3.0468,-3.0468,-3.0468,-3.0468,-3.0468,-3.0468,-3.0468,-3.0468,-3.0468,-3.0468,-3.0485,-3.0468,-3.0468,-3.0468,-3.0485,-3.0443,-3.0417,-3.0375,-3.0375,-3.0375,-3.0248,-3.0189,-3.0097,-3.0038,-2.9957,-2.9594,-2.8369,-2.751,-2.683,-2.6652,-2.6361,-2.6668,-2.7219,-2.6698,-2.6248,-2.6064,-2.608,-2.5994,-2.5912,-2.5893,-2.5964,-2.6216,-2.6084,-2.5592,-2.5137,-2.4729,-2.4233,-3.0669,-3.0642,-3.0642,-3.0642,-3.0642,-3.0642,-3.0642,-3.0642,-3.0642,-3.0642,-3.0642,-3.0642,-3.0642,-3.0642,-3.0642,-3.0642,-3.0642,-3.0642,-3.0642,-3.0642,-3.0642,-3.0642,-3.0642,-3.0642,-3.0687,-3.0866,-3.1379,-3.1751,-3.213,-3.2772,-3.3371,-3.3475,-3.3815,-3.4034,-3.4034,-3.4101,-3.3984,-3.3882,-3.3882,-3.3949,-3.3984,-3.3984,-3.3984,-3.3984,-3.3984,-3.405,-3.4101,-3.4101,-3.4101,-3.4101,-3.4101,-3.402,-3.3631,-3.2546,-3.1639,-3.1008,-3.0405,-3.0103,-3.0033,-3.0222,-3.0349,-3.0417,-3.0443,-3.0468,-3.0468,-3.0468,-3.0468,-3.0468,-3.0468,-3.0468,-3.0468,-3.0468,-3.0468,-3.0468,-3.0468,-3.0468,-3.0485,-3.0443,-3.0443,-3.0426,-3.0468,-3.0468,-3.0401,-3.0359,-3.0316,-3.0274,-3.029,-3.0248,-3.0162,-3.0103,-3.0027,-2.9984,-2.9941,-2.9491,-2.8773,-2.8061,-2.7429,-2.7446,-2.7251,-2.7008,-2.7235,-2.6847,-2.6545,-2.6357,-2.6054,-2.5772,-2.5745,-2.5766,-2.5881,-2.6087,-2.5959,-2.5778,-2.537,-2.4925,-2.4537,-3.0642,-3.0642,-3.0642,-3.0642,-3.0642,-3.0642,-3.0642,-3.0642,-3.0642,-3.0642,-3.0642,-3.0642,-3.0642,-3.0642,-3.0642,-3.0642,-3.0642,-3.0642,-3.0642,-3.0642,-3.0642,-3.0642,-3.0642,-3.0642,-3.0642,-3.0687,-3.0925,-3.1263,-3.1537,-3.2367,-3.2879,-3.3251,-3.3527,-3.3646,-3.3646,-3.3594,-3.3491,-3.3351,-3.3261,-3.3403,-3.3594,-3.3646,-3.3646,-3.3646,-3.3646,-3.3815,-3.405,-3.4101,-3.4101,-3.4101,-3.4101,-3.4101,-3.3809,-3.3194,-3.2238,-3.1526,-3.0843,-3.0331,-3.0158,-3.0222,-3.0323,-3.0443,-3.0468,-3.0468,-3.0468,-3.0468,-3.0468,-3.0468,-3.0468,-3.0468,-3.0468,-3.0468,-3.0468,-3.0468,-3.0468,-3.0468,-3.0443,-3.0417,-3.0417,-3.0359,-3.03,-3.0316,-3.029,-3.0248,-3.0189,-3.0146,-3.0189,-3.0146,-3.0076,-3.0017,-3.0,-2.9892,-2.98,-2.9475,-2.8984,-2.8514,-2.8158,-2.819,-2.8061,-2.7818,-2.7462,-2.7154,-2.687,-2.6617,-2.6243,-2.5686,-2.5654,-2.5707,-2.5803,-2.5897,-2.5895,-2.5791,-2.5479,-2.5135,-2.4752,-3.0642,-3.0642,-3.0642,-3.0642,-3.0642,-3.0642,-3.0642,-3.0642,-3.0642,-3.0642,-3.0642,-3.0642,-3.0642,-3.0642,-3.0642,-3.0642,-3.0642,-3.0642,-3.0642,-3.0642,-3.0642,-3.0642,-3.0642,-3.0642,-3.0642,-3.0642,-3.0628,-3.0866,-3.1263,-3.1879,-3.2422,-3.2664,-3.2879,-3.3039,-3.3055,-3.3055,-3.2749,-3.2547,-3.2398,-3.2641,-3.2933,-3.3039,-3.3039,-3.3039,-3.3039,-3.3266,-3.3559,-3.361,-3.3713,-3.3815,-3.3866,-3.3933,-3.4003,-3.3582,-3.2967,-3.2238,-3.1429,-3.0819,-3.05,-3.0254,-3.0323,-3.0443,-3.0468,-3.0468,-3.0468,-3.0468,-3.0468,-3.0468,-3.0468,-3.0468,-3.0468,-3.0468,-3.0468,-3.0468,-3.0468,-3.0468,-3.0401,-3.0359,-3.029,-3.0231,-3.0146,-3.0146,-3.0162,-3.0205,-3.0146,-3.006,-3.006,-3.0033,-2.9989,-2.9989,-2.9913,-2.98,-2.9626,-2.9383,-2.9124,-2.8935,-2.879,-2.8968,-2.8741,-2.8466,-2.8012,-2.7575,-2.7178,-2.6626,-2.6108,-2.5616,-2.5632,-2.5632,-2.5728,-2.5824,-2.5917,-2.59,-2.568,-2.5341,-2.494,-3.0642,-3.0642,-3.0642,-3.0642,-3.0642,-3.0642,-3.0642,-3.0642,-3.0642,-3.0642,-3.0642,-3.0642,-3.0642,-3.0642,-3.0642,-3.0642,-3.0642,-3.0642,-3.0642,-3.0642,-3.0642,-3.0642,-3.0642,-3.0642,-3.0642,-3.0642,-3.0642,-3.0642,-3.0925,-3.1364,-3.1652,-3.1864,-3.2312,-3.2492,-3.2477,-3.2477,-3.2437,-3.2398,-3.2342,-3.2398,-3.2437,-3.2437,-3.2492,-3.2492,-3.2492,-3.2602,-3.2765,-3.2873,-3.2964,-3.3371,-3.3371,-3.3594,-3.3968,-3.4068,-3.3631,-3.2853,-3.1911,-3.1075,-3.0908,-3.0647,-3.0399,-3.0434,-3.0485,-3.0468,-3.0468,-3.0468,-3.0468,-3.0468,-3.0468,-3.0468,-3.0468,-3.0468,-3.0468,-3.0468,-3.0485,-3.0443,-3.0401,-3.0231,-3.0146,-3.0119,-3.0033,-3.0033,-3.0033,-3.0119,-3.0162,-3.0017,-2.993,-2.9946,-2.9918,-2.9946,-2.9946,-2.9821,-2.9772,-2.9562,-2.9448,-2.9227,-2.9259,-2.9534,-2.934,-2.9,-2.8385,-2.7769,-2.6976,-2.6426,-2.594,-2.5632,-2.5632,-2.5616,-2.5675,-2.5733,-2.5844,-2.5917,-2.5961,-2.5581,-2.5082,-3.0642,-3.0642,-3.0642,-3.0642,-3.0642,-3.0642,-3.0642,-3.0642,-3.0642,-3.0642,-3.0642,-3.0642,-3.0642,-3.0642,-3.0642,-3.0642,-3.0642,-3.0642,-3.0642,-3.0642,-3.0642,-3.0642,-3.0642,-3.0642,-3.0642,-3.0642,-3.0642,-3.0642,-3.0747,-3.0851,-3.1087,-3.148,-3.1709,-3.1864,-3.1879,-3.1879,-3.1652,-3.1537,-3.1652,-3.1709,-3.1537,-3.1724,-3.1894,-3.1879,-3.1879,-3.2064,-3.2287,-3.2398,-3.2641,-3.3093,-3.3198,-3.3475,-3.3933,-3.4084,-3.3922,-3.3663,-3.2789,-3.1911,-3.1206,-3.0991,-3.0777,-3.0483,-3.0459,-3.0468,-3.0468,-3.0468,-3.0468,-3.0468,-3.0468,-3.0485,-3.0501,-3.0468,-3.0485,-3.0476,-3.0674,-3.0415,-3.033,-3.0146,-3.006,-2.9989,-2.9962,-2.9946,-2.9946,-2.9989,-3.0033,-2.9989,-2.9902,-2.9918,-2.9918,-2.9918,-2.9918,-2.9902,-2.9886,-2.9837,-2.9805,-2.9708,-2.9583,-2.9772,-2.9789,-2.9308,-2.8611,-2.7915,-2.7138,-2.6474,-2.5988,-2.5778,-2.5664,-2.5616,-2.5637,-2.5696,-2.5754,-2.5828,-2.5888,-2.5628,-2.5103,-3.0642,-3.0642,-3.0642,-3.0642,-3.0642,-3.0642,-3.0642,-3.0642,-3.0642,-3.0642,-3.0642,-3.0642,-3.0642,-3.0642,-3.0642,-3.0642,-3.0642,-3.0642,-3.0642,-3.0642,-3.0642,-3.0642,-3.0642,-3.0642,-3.0642,-3.0642,-3.0642,-3.0642,-3.0642,-3.0687,-3.0925,-3.1263,-3.1263,-3.1263,-3.1263,-3.1263,-3.1087,-3.0851,-3.1087,-3.1029,-3.0866,-3.1087,-3.1263,-3.1248,-3.1321,-3.1495,-3.1894,-3.1879,-3.213,-3.2555,-3.2879,-3.3161,-3.3697,-3.3984,-3.4084,-3.3922,-3.3453,-3.2805,-3.2039,-3.1573,-3.1183,-3.0793,-3.0434,-3.0468,-3.0468,-3.0468,-3.0468,-3.0468,-3.0468,-3.0551,-3.07,-3.074,-3.0929,-3.1018,-3.104,-3.068,-3.0386,-3.0424,-3.0217,-2.9946,-2.9918,-2.9918,-2.9918,-2.9918,-2.9918,-2.9918,-2.9918,-2.9918,-2.9918,-2.9918,-2.9918,-2.9918,-2.9918,-2.9918,-2.9918,-2.9918,-2.9918,-2.9918,-2.9918,-2.961,-2.8838,-2.8126,-2.7381,-2.6749,-2.6118,-2.5794,-2.5616,-2.5616,-2.56,-2.5675,-2.5696,-2.5791,-2.5757,-2.5511,-2.516,-3.0642,-3.0642,-3.0642,-3.0642,-3.0642,-3.0642,-3.0642,-3.0642,-3.0642,-3.0642,-3.0642,-3.0642,-3.0642,-3.0642,-3.0642,-3.0642,-3.0642,-3.0642,-3.0642,-3.0642,-3.0642,-3.0642,-3.0642,-3.0642,-3.0642,-3.0642,-3.0642,-3.0642,-3.0642,-3.0642,-3.0642,-3.0702,-3.0807,-3.0762,-3.0747,-3.0807,-3.0807,-3.0628,-3.0747,-3.0747,-3.0642,-3.0687,-3.0747,-3.0747,-3.0687,-3.0687,-3.0747,-3.0851,-3.1306,-3.1921,-3.2367,-3.2964,-3.3491,-3.3882,-3.4101,-3.4036,-3.3987,-3.3437,-3.2934,-3.2331,-3.1756,-3.1181,-3.074,-3.05,-3.0401,-3.0485,-3.0485,-3.0501,-3.0542,-3.0797,-3.1084,-3.1369,-3.1506,-3.1626,-3.1597,-3.1393,-3.114,-3.1059,-3.0786,-3.0129,-2.9983,-3.0036,-2.9918,-2.9918,-2.9918,-2.9918,-2.9918,-2.9918,-2.9918,-2.9918,-2.9918,-2.9918,-2.9918,-2.9918,-2.9918,-2.9918,-2.9918,-2.9918,-2.9918,-2.9594,-2.9059,-2.8304,-2.7494,-2.6927,-2.6312,-2.594,-2.5616,-2.5616,-2.5616,-2.5616,-2.5675,-2.5733,-2.5648,-2.5403,-2.508,-3.0642,-3.0642,-3.0642,-3.0642,-3.0642,-3.0642,-3.0642,-3.0642,-3.0642,-3.0642,-3.0642,-3.0642,-3.0642,-3.0642,-3.0642,-3.0642,-3.0642,-3.0642,-3.0642,-3.0642,-3.0642,-3.0642,-3.0642,-3.0642,-3.0642,-3.0642,-3.0642,-3.0642,-3.0642,-3.0642,-3.0642,-3.0642,-3.0642,-3.0642,-3.0642,-3.0642,-3.0642,-3.0642,-3.0642,-3.0642,-3.0642,-3.0642,-3.0642,-3.0642,-3.0642,-3.0642,-3.0642,-3.0642,-3.1204,-3.1823,-3.2216,-3.2803,-3.3507,-3.3899,-3.405,-3.4101,-3.4101,-3.3939,-3.3646,-3.308,-3.2368,-3.1446,-3.1013,-3.0816,-3.0504,-3.0382,-3.0333,-3.0415,-3.0777,-3.1205,-3.1292,-3.1691,-3.2023,-3.2161,-3.2196,-3.2101,-3.1892,-3.1716,-3.1359,-3.0733,-3.0474,-3.0393,-3.015,-2.9918,-2.9918,-2.9918,-2.9918,-2.9918,-2.9918,-2.9918,-2.9918,-2.9874,-2.9874,-2.9874,-2.9918,-2.9918,-2.9874,-2.9918,-2.9918,-2.9615,-2.9211,-2.8288,-2.7543,-2.6992,-2.6458,-2.5956,-2.5664,-2.5632,-2.5616,-2.5616,-2.5654,-2.5712,-2.553,-2.5363,-2.5077,-3.0312,-3.0312,-3.0493,-3.0642,-3.0642,-3.0642,-3.0642,-3.0642,-3.0642,-3.0642,-3.0642,-3.0642,-3.0642,-3.0642,-3.0642,-3.0642,-3.0642,-3.0642,-3.0642,-3.0642,-3.0642,-3.0642,-3.0642,-3.0642,-3.0642,-3.0642,-3.0642,-3.0642,-3.0642,-3.0642,-3.0642,-3.0642,-3.0642,-3.0642,-3.0642,-3.0642,-3.0642,-3.0642,-3.0642,-3.0642,-3.0642,-3.0642,-3.0642,-3.0642,-3.0642,-3.0642,-3.0642,-3.0642,-3.0925,-3.1595,-3.216,-3.2765,-3.3351,-3.3899,-3.405,-3.4101,-3.4101,-3.4101,-3.3937,-3.3435,-3.2789,-3.2073,-3.1658,-3.1356,-3.0947,-3.0784,-3.1068,-3.1035,-3.1368,-3.1647,-3.1749,-3.2308,-3.2751,-3.2949,-3.3063,-3.295,-3.2562,-3.2351,-3.1866,-3.1396,-3.1202,-3.0992,-3.0441,-3.0134,-2.9983,-2.9967,-2.9918,-2.9918,-2.9918,-2.9918,-2.9918,-2.9874,-2.977,-2.9814,-2.9858,-2.9681,-2.9592,-2.9874,-2.9874,-2.9814,-2.9345,-2.8498,-2.7802,-2.7381,-2.6782,-2.6043,-2.5697,-2.5648,-2.5632,-2.5616,-2.5637,-2.5696,-2.5705,-2.552,-2.5302,-2.9623,-2.9685,-3.0251,-3.0507,-3.0447,-3.0568,-3.0642,-3.0642,-3.0642,-3.0642,-3.0642,-3.0642,-3.0642,-3.0642,-3.0642,-3.0642,-3.0642,-3.0642,-3.0642,-3.0642,-3.0642,-3.0642,-3.0642,-3.0642,-3.0642,-3.0642,-3.0642,-3.0642,-3.0642,-3.0642,-3.0642,-3.0642,-3.0642,-3.0642,-3.0642,-3.0642,-3.0642,-3.0642,-3.0642,-3.0642,-3.0642,-3.0642,-3.0642,-3.0642,-3.0642,-3.0642,-3.0642,-3.0642,-3.0807,-3.1146,-3.1879,-3.2437,-3.2819,-3.361,-3.3984,-3.4101,-3.4101,-3.4101,-3.4052,-3.3469,-3.308,-3.2821,-3.2348,-3.2052,-3.2082,-3.2063,-3.1945,-3.1687,-3.2142,-3.2504,-3.2833,-3.3176,-3.3437,-3.3583,-3.368,-3.3632,-3.321,-3.3032,-3.2627,-3.2174,-3.1979,-3.172,-3.1008,-3.0441,-3.0101,-3.0016,-2.9951,-2.9918,-2.9918,-2.9874,-2.9874,-2.977,-2.9665,-2.9637,-2.9592,-2.935,-2.9305,-2.9637,-2.9814,-2.977,-2.9604,-2.8984,-2.8352,-2.785,-2.7088,-2.6303,-2.5918,-2.5648,-2.5632,-2.5616,-2.5659,-2.5663,-2.5738,-2.5693,-2.5458,-2.8889,-2.8889,-2.9142,-2.9205,-2.9331,-3.0237,-3.0642,-3.0642,-3.0642,-3.0642,-3.0642,-3.0642,-3.0642,-3.0642,-3.0642,-3.0642,-3.0642,-3.0642,-3.0642,-3.0642,-3.0642,-3.0642,-3.0642,-3.0642,-3.0642,-3.0642,-3.0642,-3.0642,-3.0642,-3.0642,-3.0642,-3.0642,-3.0642,-3.0642,-3.0642,-3.0642,-3.0642,-3.0642,-3.0642,-3.0642,-3.0642,-3.0642,-3.0642,-3.0642,-3.0642,-3.0642,-3.0642,-3.0642,-3.0747,-3.1029,-3.1709,-3.2089,-3.2625,-3.3423,-3.3697,-3.3984,-3.4101,-3.4101,-3.4084,-3.3809,-3.355,-3.3243,-3.2967,-3.2625,-3.2219,-3.2106,-3.2073,-3.2299,-3.2657,-3.2918,-3.3096,-3.3551,-3.3891,-3.3906,-3.3955,-3.3939,-3.3761,-3.3744,-3.3518,-3.3,-3.2676,-3.2368,-3.1817,-3.1154,-3.0733,-3.0441,-3.0393,-3.0048,-2.9935,-2.9874,-2.9874,-2.9681,-2.9531,-2.9441,-2.9321,-2.9091,-2.9121,-2.9441,-2.9621,-2.9681,-2.9436,-2.9216,-2.8871,-2.8336,-2.746,-2.6596,-2.6168,-2.5794,-2.5664,-2.5616,-2.5621,-2.568,-2.5701,-2.5738,-2.5677,-2.7973,-2.7973,-2.8298,-2.8363,-2.8634,-2.9732,-3.0387,-3.0582,-3.0642,-3.0642,-3.0642,-3.0642,-3.0642,-3.0642,-3.0642,-3.0642,-3.0642,-3.0642,-3.0642,-3.0642,-3.0642,-3.0642,-3.0642,-3.0642,-3.0642,-3.0642,-3.0642,-3.0642,-3.0642,-3.0642,-3.0642,-3.0642,-3.0642,-3.0642,-3.0642,-3.0642,-3.0642,-3.0642,-3.0642,-3.0642,-3.0642,-3.0642,-3.0642,-3.0642,-3.0642,-3.0642,-3.0642,-3.0687,-3.0732,-3.1146,-3.1465,-3.1792,-3.2501,-3.3039,-3.3303,-3.3697,-3.4034,-3.4034,-3.4084,-3.4084,-3.3809,-3.355,-3.3437,-3.321,-3.2821,-3.2886,-3.2854,-3.2983,-3.3194,-3.3307,-3.3518,-3.402,-3.4036,-3.4101,-3.4084,-3.4068,-3.4068,-3.402,-3.3971,-3.3501,-3.3323,-3.3,-3.2659,-3.1996,-3.1429,-3.1154,-3.0895,-3.0409,-2.9923,-2.983,-2.971,-2.956,-2.9335,-2.9213,-2.9075,-2.8905,-2.9029,-2.9305,-2.9396,-2.9486,-2.9601,-2.9447,-2.9135,-2.8763,-2.7849,-2.7009,-2.6328,-2.5956,-2.5729,-2.5616,-2.5616,-2.5621,-2.5642,-2.568,-2.5717,-2.6867,-2.6989,-2.7789,-2.8038,-2.8247,-2.9093,-2.9931,-3.0582,-3.0582,-3.0582,-3.0582,-3.0582,-3.0642,-3.0642,-3.0642,-3.0642,-3.0642,-3.0642,-3.0642,-3.0642,-3.0642,-3.0642,-3.0642,-3.0642,-3.0642,-3.0642,-3.0642,-3.0642,-3.0642,-3.0642,-3.0642,-3.0642,-3.0642,-3.0642,-3.0642,-3.0642,-3.0642,-3.0642,-3.0642,-3.0642,-3.0642,-3.0642,-3.0642,-3.0642,-3.0642,-3.0642,-3.0642,-3.0642,-3.0628,-3.0866,-3.1131,-3.1364,-3.1849,-3.2594,-3.2971,-3.3407,-3.3866,-3.4034,-3.4101,-3.4101,-3.4084,-3.3906,-3.3971,-3.402,-3.3922,-3.3696,-3.3631,-3.3663,-3.3809,-3.3922,-3.4084,-3.4084,-3.4084,-3.4101,-3.4101,-3.4101,-3.4101,-3.4084,-3.4084,-3.3955,-3.3922,-3.3728,-3.3501,-3.2935,-3.2013,-3.1656,-3.1235,-3.0429,-2.9964,-2.9665,-2.956,-2.9393,-2.9166,-2.892,-2.8795,-2.8668,-2.8795,-2.9059,-2.9121,-2.9152,-2.9393,-2.9585,-2.9355,-2.8925,-2.8211,-2.7364,-2.6292,-2.5826,-2.5681,-2.5616,-2.5616,-2.5616,-2.5637,-2.5637,-2.5637,-2.6164,-2.6233,-2.6496,-2.6564,-2.6756,-2.8051,-2.9233,-3.0158,-3.0326,-3.0372,-3.0387,-3.0507,-3.0582,-3.0642,-3.0642,-3.0642,-3.0642,-3.0642,-3.0642,-3.0642,-3.0642,-3.0642,-3.0642,-3.0642,-3.0642,-3.0642,-3.0642,-3.0642,-3.0642,-3.0642,-3.0642,-3.0642,-3.0642,-3.0642,-3.0642,-3.0642,-3.0642,-3.0642,-3.0642,-3.0642,-3.0642,-3.0642,-3.0642,-3.0642,-3.0642,-3.0642,-3.0642,-3.0642,-3.0642,-3.0687,-3.0747,-3.097,-3.1595,-3.2256,-3.2803,-3.3764,-3.405,-3.4101,-3.4101,-3.4101,-3.405,-3.3984,-3.405,-3.4101,-3.4084,-3.4101,-3.4101,-3.4101,-3.4101,-3.4101,-3.4101,-3.4101,-3.4101,-3.4101,-3.4101,-3.4101,-3.4101,-3.4101,-3.4101,-3.4101,-3.4101,-3.4018,-3.3856,-3.3452,-3.2628,-3.2159,-3.1577,-3.0787,-3.0035,-2.9707,-2.9348,-2.9196,-2.8997,-2.8748,-2.8621,-2.8493,-2.8621,-2.8748,-2.8842,-2.8936,-2.9152,-2.9332,-2.9387,-2.8998,-2.8206,-2.7121,-2.5895,-2.5627,-2.5616,-2.5616,-2.5616,-2.5616,-2.5616,-2.5616,-2.5616,-2.5688,-2.5676,-2.5758,-2.6107,-2.6837,-2.7934,-2.9044,-2.9898,-3.028,-3.0387,-3.0326,-3.0507,-3.0642,-3.0642,-3.0642,-3.0642,-3.0642,-3.0642,-3.0642,-3.0642,-3.0642,-3.0642,-3.0642,-3.0642,-3.0642,-3.0642,-3.0642,-3.0642,-3.0642,-3.0642,-3.0642,-3.0642,-3.0642,-3.0642,-3.0642,-3.0642,-3.0642,-3.0642,-3.0642,-3.0642,-3.0642,-3.0642,-3.0642,-3.0642,-3.0642,-3.0642,-3.0642,-3.0642,-3.0642,-3.0642,-3.0642,-3.0747,-3.1204,-3.1709,-3.2382,-3.3177,-3.3298,-3.3298,-3.3298,-3.3351,-3.3507,-3.3713,-3.3764,-3.3882,-3.4034,-3.4101,-3.4101,-3.4101,-3.4101,-3.4101,-3.4101,-3.4101,-3.4101,-3.4101,-3.4101,-3.4101,-3.4101,-3.4101,-3.4101,-3.4117,-3.405,-3.405,-3.3806,-3.3516,-3.329,-3.2983,-3.2418,-3.1598,-3.0621,-2.9795,-2.9309,-2.898,-2.8764,-2.8525,-2.8444,-2.8411,-2.8493,-2.8605,-2.8685,-2.8826,-2.8982,-2.9118,-2.9201,-2.879,-2.8142,-2.7034,-2.5972,-2.5713,-2.5616,-2.5616,-2.5616,-2.5616,-2.5616,-2.5616,-2.5616,-2.5312,-2.5312,-2.5523,-2.6346,-2.7643,-2.8274,-2.8903,-2.967,-3.0129,-3.0447,-3.0312,-3.0493,-3.0582,-3.0582,-3.0582,-3.0568,-3.0568,-3.0642,-3.0642,-3.0582,-3.0642,-3.0642,-3.0642,-3.0642,-3.0642,-3.0642,-3.0642,-3.0642,-3.0642,-3.0642,-3.0642,-3.0642,-3.0642,-3.0642,-3.0642,-3.0642,-3.0642,-3.0642,-3.0642,-3.0642,-3.0642,-3.0642,-3.0642,-3.0642,-3.0642,-3.0642,-3.0642,-3.0642,-3.0642,-3.0642,-3.0642,-3.0642,-3.097,-3.1248,-3.1864,-3.2327,-3.2672,-3.2672,-3.2711,-3.2711,-3.2873,-3.3055,-3.3198,-3.3475,-3.3764,-3.4034,-3.4101,-3.4101,-3.4101,-3.4101,-3.4101,-3.4101,-3.4101,-3.4101,-3.4101,-3.4101,-3.4101,-3.405,-3.3949,-3.3899,-3.3813,-3.3797,-3.3866,-3.3526,-3.3201,-3.34,-3.2962,-3.2077,-3.1085,-2.999,-2.9375,-2.8858,-2.8622,-2.8493,-2.8444,-2.8411,-2.8411,-2.8493,-2.8558,-2.8653,-2.8716,-2.8871,-2.9045,-2.8638,-2.8239,-2.726,-2.6351,-2.6124,-2.5843,-2.5616,-2.5616,-2.5616,-2.5616,-2.5616,-2.5616,-2.5312,-2.5312,-2.5382,-2.5931,-2.6744,-2.6989,-2.7511,-2.813,-2.917,-2.987,-3.0251,-3.0387,-3.0447,-3.0522,-3.0462,-3.0447,-3.0568,-3.0522,-3.0582,-3.0582,-3.0582,-3.0522,-3.0582,-3.0522,-3.0582,-3.0642,-3.0642,-3.0582,-3.0582,-3.0582,-3.0582,-3.0582,-3.0582,-3.0582,-3.0642,-3.0642,-3.0642,-3.0642,-3.0642,-3.0642,-3.0642,-3.0642,-3.0642,-3.0642,-3.0642,-3.0642,-3.0642,-3.0642,-3.0642,-3.0642,-3.0642,-3.0866,-3.1263,-3.1422,-3.1766,-3.2287,-3.2287,-3.2231,-3.2231,-3.2176,-3.2327,-3.2586,-3.2826,-3.3145,-3.3475,-3.3866,-3.4101,-3.405,-3.4101,-3.4101,-3.4101,-3.4101,-3.4101,-3.4101,-3.405,-3.405,-3.405,-3.3899,-3.3797,-3.3694,-3.3555,-3.3555,-3.3694,-3.3531,-3.3256,-3.2965,-3.2609,-3.1883,-3.0935,-2.9925,-2.9437,-2.8935,-2.8573,-2.8429,-2.8396,-2.8411,-2.8411,-2.8411,-2.8493,-2.8493,-2.8493,-2.8795,-2.9005,-2.8846,-2.841,-2.7542,-2.6927,-2.6649,-2.6335,-2.5956,-2.5762,-2.581,-2.5664,-2.5616,-2.5616,-2.4626,-2.4719,-2.5213,-2.5642,-2.6088,-2.6739,-2.7258,-2.7644,-2.8298,-2.9016,-2.9718,-3.0129,-3.0326,-3.0416,-3.028,-3.028,-3.0401,-3.0341,-3.0341,-3.0341,-3.0401,-3.0341,-3.0355,-3.0416,-3.0341,-3.0401,-3.0447,-3.0447,-3.0387,-3.0447,-3.0447,-3.0447,-3.0447,-3.0522,-3.0582,-3.0582,-3.0582,-3.0642,-3.0582,-3.0642,-3.0642,-3.0642,-3.0642,-3.0642,-3.0642,-3.0642,-3.0642,-3.0642,-3.0642,-3.0642,-3.0642,-3.0687,-3.0911,-3.1029,-3.1204,-3.1437,-3.1537,-3.161,-3.1652,-3.1652,-3.1766,-3.1962,-3.2059,-3.221,-3.2648,-3.3039,-3.3713,-3.3764,-3.405,-3.4101,-3.4101,-3.4101,-3.4101,-3.4101,-3.3949,-3.3848,-3.3642,-3.345,-3.345,-3.3503,-3.3361,-3.324,-3.3346,-3.3293,-3.3066,-3.3087,-3.2636,-3.1871,-3.0905,-3.0053,-2.9469,-2.8976,-2.8642,-2.8409,-2.8396,-2.8411,-2.8411,-2.8411,-2.8411,-2.8493,-2.8621,-2.8889,-2.9025,-2.8882,-2.8656,-2.8184,-2.7655,-2.7276,-2.6821,-2.6393,-2.6183,-2.6053,-2.5843,-2.5578,-2.5502,-2.3725,-2.3966,-2.4913,-2.5365,-2.5494,-2.6499,-2.705,-2.7222,-2.7446,-2.7944,-2.8889,-2.967,-3.0021,-3.0111,-3.005,-3.005,-3.0111,-3.0172,-3.0172,-3.0111,-3.0111,-3.0172,-3.0172,-3.0111,-3.0172,-3.0172,-3.0219,-3.0219,-3.0172,-3.0219,-3.0266,-3.0266,-3.0326,-3.0401,-3.0522,-3.0582,-3.0507,-3.0507,-3.0582,-3.0582,-3.0642,-3.0642,-3.0642,-3.0642,-3.0642,-3.0642,-3.0642,-3.0642,-3.0642,-3.0642,-3.0582,-3.0628,-3.0628,-3.0673,-3.0628,-3.0792,-3.0747,-3.0747,-3.0687,-3.0732,-3.0837,-3.0999,-3.1058,-3.1392,-3.1834,-3.2336,-3.3002,-3.3387,-3.3662,-3.3949,-3.3949,-3.4,-3.4,-3.3899,-3.3694,-3.3591,-3.3346,-3.3096,-3.315,-3.3256,-3.3081,-3.2973,-3.2866,-3.2881,-3.2812,-3.285,-3.2478,-3.1787,-3.1036,-3.0253,-2.9585,-2.9055,-2.8617,-2.8469,-2.8424,-2.8411,-2.8363,-2.8411,-2.846,-2.8589,-2.8716,-2.8936,-2.9071,-2.899,-2.8705,-2.8587,-2.8297,-2.7953,-2.7445,-2.6879,-2.6428,-2.6115,-2.5641,-2.5426,-2.5371,-2.3388,-2.3839,-2.4068,-2.4183,-2.4183,-2.4426,-2.4737,-2.5216,-2.6003,-2.6817,-2.7814,-2.8712,-2.9387,-3.005,-2.9898,-2.9898,-2.9988,-3.005,-3.005,-3.0111,-3.005,-3.005,-3.005,-2.9988,-3.005,-3.0111,-3.0097,-3.0111,-2.9988,-3.0111,-3.0158,-3.0158,-3.0158,-3.0172,-3.0219,-3.028,-3.0387,-3.0447,-3.0507,-3.0642,-3.0642,-3.0642,-3.0642,-3.0642,-3.0642,-3.0642,-3.0642,-3.0642,-3.0642,-3.0642,-3.0582,-3.0462,-3.0387,-3.0387,-3.0387,-3.0401,-3.0341,-3.0341,-3.0341,-3.028,-3.0447,-3.0433,-3.0598,-3.0925,-3.1319,-3.1607,-3.2114,-3.2336,-3.2718,-3.3366,-3.3539,-3.3642,-3.3642,-3.3487,-3.3277,-3.3277,-3.3187,-3.2989,-3.2881,-3.2812,-3.2687,-3.2453,-3.2272,-3.216,-3.1951,-3.1879,-3.1637,-3.0995,-3.0689,-3.0148,-2.9653,-2.9086,-2.8554,-2.853,-2.8427,-2.8314,-2.8299,-2.8363,-2.8396,-2.8477,-2.8668,-2.8982,-2.9039,-2.9074,-2.9251,-2.9318,-2.8968,-2.8571,-2.7904,-2.7284,-2.6631,-2.6118,-2.567,-2.5294,-2.5178]}]]